GFSGBSN_250_spd_000.txt.gz
Wind_Speed
50 52 49 50 56 63 68 54 54 60 60 58 52 44 34 38 45 47 63 82 87 87 92 93 99 106 106 92 88 87 82 79 71 64 59 55 51 47 45 40 37 39 36 31 26 26 28
50 52 48 50 56 63 65 48 52 55 61 61 53 41 27 27 33 36 44 69 84 89 89 93 93 97 103 95 96 91 88 83 72 65 60 54 55 51 47 42 36 40 37 34 27 28 25
49 51 46 50 58 61 61 43 44 47 54 59 55 42 26 20 24 30 36 57 76 88 89 87 91 90 93 104 100 93 90 85 77 71 64 61 57 55 49 39 41 39 38 36 32 32 27
47 48 45 50 57 62 61 38 41 53 50 51 50 43 29 19 19 23 29 44 66 83 85 84 89 84 88 110 100 94 90 85 74 72 67 65 60 59 50 41 43 43 40 37 34 30 30
45 47 45 50 57 61 57 33 37 47 43 49 49 49 38 22 13 11 20 36 57 73 86 87 84 84 87 94 96 99 95 84 81 75 71 65 64 58 51 45 46 40 42 35 33 28 29
42 48 45 47 53 58 54 33 38 38 41 48 47 55 49 33 20 8 9 26 50 68 86 87 81 80 84 85 98 98 99 88 82 81 74 69 64 58 52 47 45 46 37 38 32 33 32
40 46 46 46 51 56 52 27 40 32 43 44 47 55 55 41 30 16 2 18 40 62 82 79 74 76 83 86 93 98 97 92 88 82 73 69 62 56 52 52 55 41 39 38 35 35 29
39 43 45 45 49 54 49 26 36 27 36 36 45 47 56 59 42 25 10 13 35 56 78 80 77 79 80 81 87 94 97 91 84 76 74 67 57 56 57 56 51 47 43 38 39 36 32
38 39 43 44 46 51 49 26 28 21 28 28 38 44 53 59 57 33 16 16 32 53 77 76 75 72 71 75 84 92 92 88 85 81 74 67 61 64 60 58 50 48 45 43 39 36 31
37 35 41 42 43 47 49 23 25 16 24 28 35 39 52 54 55 54 26 18 32 55 76 75 71 67 67 75 80 86 90 87 85 79 76 72 70 64 63 56 52 51 48 43 40 38 36
34 33 38 39 40 42 44 21 18 13 19 22 28 34 44 47 49 55 43 24 30 56 75 76 71 67 65 67 73 79 85 84 82 77 72 70 67 64 61 59 55 57 48 46 42 40 37
29 30 35 37 36 38 40 20 14 9 18 20 22 30 35 35 43 46 45 30 25 53 73 74 71 66 61 62 67 73 77 79 81 77 75 71 69 64 65 60 57 54 51 48 44 41 36
26 28 32 34 33 34 38 26 6 12 17 17 16 26 26 28 32 38 39 41 20 43 69 67 63 61 58 57 62 67 71 74 75 72 71 68 65 62 62 59 58 55 49 47 47 44 41
24 25 29 30 30 30 33 32 3 12 13 15 13 24 22 24 30 35 39 43 37 40 64 67 60 57 55 53 55 59 63 65 66 68 68 65 61 61 61 60 61 57 53 49 46 48 44
22 22 27 27 29 28 30 31 7 10 15 13 12 21 14 23 26 29 34 39 41 38 48 66 59 55 54 52 50 52 53 58 60 60 61 62 62 64 63 62 60 53 47 47 46 48 46
21 19 24 25 27 26 30 30 14 12 20 12 11 19 15 15 20 27 34 33 43 44 39 49 65 59 53 50 49 50 51 53 54 56 57 60 64 63 61 60 58 55 50 46 48 48 46
22 18 21 22 24 24 26 29 24 17 23 20 14 18 23 20 17 31 31 33 38 38 38 41 44 47 67 60 54 52 53 53 53 55 55 58 61 59 59 57 57 56 51 44 52 46 48
23 17 18 19 19 22 24 28 24 20 27 21 18 20 25 24 19 24 33 32 27 31 24 42 45 47 46 60 63 59 56 57 52 55 58 60 59 58 60 58 55 56 50 45 45 49 47
22 17 16 16 14 20 21 27 23 18 30 25 30 23 26 27 26 22 21 29 24 17 21 25 36 42 42 46 54 59 61 65 65 68 62 58 56 56 55 53 54 54 50 46 48 49 48
20 19 14 15 10 16 20 24 20 9 32 32 28 30 30 29 31 27 14 24 27 21 24 22 21 25 26 30 38 41 44 41 48 53 59 61 64 65 64 65 61 56 51 46 46 46 44
23 18 14 13 8 13 17 20 17 7 32 34 34 30 27 32 35 32 27 24 19 28 28 33 27 22 20 23 23 28 28 25 32 32 30 36 39 41 43 46 47 47 47 47 45 37 40
24 19 15 12 8 9 11 15 17 8 30 37 37 34 28 24 41 37 31 33 26 24 28 31 31 28 24 21 29 27 25 28 29 36 40 37 40 35 40 45 32 33 40 40 39 39 44
29 23 17 13 9 7 6 9 16 8 10 38 36 38 34 30 33 39 38 35 34 28 24 27 30 29 26 26 22 23 30 33 28 30 29 32 39 40 38 40 40 37 38 40 41 42 43
35 27 21 17 12 9 6 2 9 8 3 25 34 39 33 35 34 34 40 34 39 39 34 27 26 32 32 23 24 26 25 26 31 28 26 23 30 29 31 33 35 36 34 37 40 41 46
40 34 27 21 18 13 8 7 2 7 3 9 29 32 34 39 41 40 41 36 39 44 40 32 29 30 34 29 29 28 31 29 25 25 23 30 31 30 29 30 32 35 39 42 44 46 50
46 40 35 28 24 18 13 8 7 3 5 5 14 24 30 35 36 39 39 46 35 43 47 40 39 35 37 37 34 31 34 35 35 32 31 29 32 32 31 33 37 38 41 45 48 49 53
52 47 40 35 30 26 21 15 10 9 6 5 6 13 22 28 28 39 40 41 44 43 38 36 45 41 36 36 33 36 37 40 42 45 45 37 33 37 38 40 41 44 48 50 52 55 57
57 52 47 40 37 32 27 23 17 12 11 9 6 7 13 21 27 32 36 39 47 46 41 38 35 39 45 45 40 37 35 34 37 41 42 44 43 43 45 46 50 52 54 55 56 57 59
60 58 54 46 41 38 35 28 24 20 14 12 12 9 8 10 19 23 25 29 32 43 44 42 41 38 36 34 39 45 44 40 38 40 44 46 45 47 50 52 54 56 58 60 60 60 62

GFSGBSN_250_spd_003.txt.gz
Wind_Speed
42 51 52 53 52 50 53 60 65 64 46 51 55 54 54 56 52 44 44 46 55 70 93 94 93 99 102 99 93 93 87 83 77 68 55 52 47 43 43 41 36 36 31 32 28 26 30
42 48 51 53 52 50 55 62 65 53 43 46 48 46 49 54 47 38 38 37 44 58 82 92 92 94 96 97 100 100 94 87 78 71 63 53 53 50 44 40 37 36 33 31 30 28 27
42 46 51 52 53 50 55 61 66 41 43 41 46 50 51 52 47 34 34 37 35 51 72 90 92 90 90 106 107 101 98 90 83 77 69 63 58 51 49 44 41 36 35 31 26 29 26
42 44 49 51 53 51 52 56 61 36 43 40 47 45 50 49 45 32 29 33 33 49 68 86 90 86 88 107 108 102 100 93 85 81 74 67 60 58 52 48 42 38 38 37 30 29 27
42 43 48 50 50 51 50 55 48 34 35 40 41 44 48 47 48 31 23 25 31 46 61 79 88 84 95 95 101 104 101 96 91 88 80 69 63 58 52 47 44 39 40 41 34 32 31
40 43 46 47 48 50 48 54 44 32 32 39 38 50 50 52 47 33 18 17 28 45 56 76 84 82 87 89 106 105 105 99 94 93 84 70 63 60 52 43 42 43 45 36 35 33 34
39 42 43 45 46 49 46 51 43 27 32 36 39 44 51 57 50 35 22 12 24 41 54 72 78 80 88 89 101 107 106 100 98 94 82 70 65 55 53 50 47 49 43 41 38 36 32
39 40 41 42 44 47 44 48 49 25 27 30 36 49 55 59 56 43 26 12 18 37 50 66 81 89 88 87 92 107 107 100 93 87 84 75 68 65 59 50 54 50 46 44 40 38 34
38 38 38 39 42 44 43 46 48 22 22 27 32 40 46 54 58 50 27 7 16 35 47 66 81 87 84 82 84 102 105 100 95 91 82 73 69 66 59 53 55 50 50 47 44 40 37
39 37 36 37 40 41 41 43 47 21 17 21 26 27 40 47 57 57 37 12 14 33 46 68 80 80 76 79 81 93 104 103 97 88 82 77 73 65 56 57 55 51 54 51 46 43 41
36 36 33 34 37 37 38 40 45 17 10 21 23 29 35 42 49 56 42 16 13 34 48 68 72 74 71 73 77 83 94 99 97 91 83 73 68 64 58 62 60 60 57 52 46 44 43
32 34 31 31 34 35 33 36 42 18 6 15 19 24 28 34 41 52 44 20 19 35 54 69 66 65 65 69 75 79 83 92 98 93 87 81 74 68 69 68 62 57 56 51 47 43 37
31 32 30 29 31 33 31 33 36 17 2 9 14 16 23 27 34 41 46 29 16 39 59 62 60 58 59 60 66 71 72 85 90 86 83 79 76 73 70 65 60 57 56 52 47 42 41
30 29 30 27 27 31 29 29 33 17 5 5 8 13 21 21 29 34 40 31 20 50 57 55 54 53 50 52 57 61 65 73 81 84 82 73 70 69 66 61 62 64 60 56 52 46 48
29 26 28 26 24 29 27 26 30 21 13 2 4 8 15 18 24 32 35 33 33 52 52 50 43 42 39 41 45 52 57 63 72 74 74 75 73 70 69 69 67 63 60 59 54 49 48
29 24 27 25 21 26 25 25 29 25 18 8 4 3 8 13 21 31 34 35 28 52 48 46 45 35 33 33 34 43 51 59 68 73 73 73 74 72 72 71 62 62 64 58 55 51 51
31 23 26 24 19 23 24 25 25 28 19 14 9 9 10 11 19 22 31 29 26 49 48 44 42 42 36 32 31 34 42 51 56 63 67 70 70 69 68 64 64 65 64 60 58 56 53
33 25 25 23 16 20 23 24 23 26 21 21 11 13 10 7 16 20 29 26 31 28 52 43 40 40 40 34 32 32 35 42 47 52 61 65 66 67 67 68 66 64 62 59 56 57 53
35 27 24 21 17 18 20 22 20 22 15 27 20 18 15 5 15 19 18 29 32 34 35 52 46 40 39 40 38 39 38 42 47 49 50 55 59 63 65 64 64 62 61 61 60 59 56
37 30 24 20 17 17 19 20 18 20 12 28 29 24 21 13 7 17 18 29 22 27 35 40 52 51 47 41 41 40 41 40 42 46 47 49 54 58 61 65 66 64 63 61 59 57 59
38 31 26 21 18 15 18 18 15 17 17 30 30 29 26 26 18 10 18 23 26 21 31 38 39 47 53 53 49 45 45 42 44 46 47 49 51 53 55 57 57 60 59 58 58 59 54
41 35 28 24 21 14 16 16 14 18 16 30 34 36 32 29 27 23 12 21 25 25 18 35 31 35 42 44 49 57 54 50 50 49 50 50 52 53 54 55 56 56 57 57 55 53 56
44 40 33 27 22 15 16 13 13 16 15 19 36 36 39 32 35 29 26 16 17 26 28 18 19 27 25 34 34 37 45 48 51 56 56 55 54 55 54 53 52 52 55 57 59 57 51
48 44 38 31 25 18 16 12 12 12 12 10 31 38 37 37 37 39 32 25 25 22 26 27 21 20 14 20 25 20 33 28 25 32 40 48 58 53 55 57 55 47 47 49 46 45 47
53 48 43 35 29 22 18 13 12 10 10 8 21 37 39 38 34 42 41 33 28 29 24 26 27 23 21 18 20 23 22 27 27 25 27 32 31 34 37 39 40 41 42 36 40 39 39
58 52 48 41 33 27 21 17 12 13 8 7 13 28 35 40 40 37 44 42 38 31 32 30 28 29 30 27 21 23 19 22 33 29 28 30 25 26 30 32 31 34 34 35 37 38 43
63 58 52 47 38 32 25 22 15 14 11 7 11 20 34 39 35 43 42 40 43 41 37 38 36 30 33 33 33 27 26 27 27 29 34 29 28 27 30 32 31 30 32 34 34 42 42
68 61 56 51 44 37 31 28 23 15 15 12 8 14 21 32 40 38 45 43 43 43 41 39 44 39 36 34 36 39 34 33 33 33 32 30 28 27 28 30 33 37 39 39 42 45 47
72 66 60 55 50 44 38 32 30 24 18 17 14 10 15 24 36 38 42 44 45 47 50 45 39 44 48 44 39 39 40 40 41 41 42 41 41 42 40 39 40 42 45 45 48 52 56

GFSGBSN_250_spd_006.txt.gz
Wind_Speed
42 43 45 43 46 51 51 54 55 53 58 64 54 48 49 49 51 54 54 58 64 62 56 61 68 86 96 95 95 103 99 96 88 77 69 60 54 52 50 49 46 44 42 41 34 32 31
46 43 44 42 46 50 52 54 53 52 58 61 50 44 52 45 45 49 52 57 60 54 46 53 60 79 91 93 98 107 107 101 89 80 76 63 58 59 52 45 43 40 40 33 34 31 28
46 45 43 41 45 50 53 55 54 51 58 59 50 46 47 43 38 47 48 52 52 48 45 49 54 73 83 96 98 106 109 103 91 84 78 72 66 61 55 48 44 36 34 31 34 27 26
46 46 43 42 43 50 52 54 53 51 57 58 45 45 43 44 44 46 47 50 46 42 42 46 51 62 79 93 101 103 112 106 94 88 82 75 68 62 57 51 43 36 34 31 30 28 24
46 45 44 41 41 48 51 52 52 50 56 55 48 44 47 40 39 48 45 48 43 38 38 39 47 60 77 99 99 102 113 106 97 91 85 79 71 60 55 50 43 36 36 35 29 29 27
46 44 44 40 41 47 49 52 52 48 53 51 43 39 49 46 45 48 48 47 40 30 32 33 41 53 85 100 99 100 112 108 102 96 90 79 72 61 55 46 40 44 44 37 32 30 31
46 44 42 39 40 45 48 51 50 47 52 49 42 39 46 41 47 53 49 50 38 24 25 29 38 58 88 96 96 97 110 108 104 97 85 76 69 58 54 56 53 46 42 40 36 32 33
45 44 40 38 39 42 46 49 49 46 51 48 38 39 42 40 50 57 52 45 38 21 18 27 41 63 84 94 96 97 106 106 102 92 87 79 67 67 66 57 50 47 47 43 39 36 35
45 43 38 39 38 39 43 47 47 45 49 45 34 37 37 46 49 59 58 42 31 16 15 26 40 64 84 91 91 93 101 105 100 97 86 76 70 70 62 56 52 51 47 41 41 38 37
44 44 40 39 37 37 41 45 43 42 46 40 31 32 36 43 50 55 60 44 28 9 12 24 40 64 80 86 86 90 98 106 99 91 86 80 76 75 63 60 56 56 51 44 42 41 40
44 44 40 38 36 36 40 43 40 39 44 33 27 25 31 41 45 50 56 44 24 4 9 24 40 65 79 83 84 81 93 103 99 91 86 80 77 74 64 62 62 65 54 49 46 45 41
45 44 39 38 35 35 38 40 38 35 41 29 22 20 24 32 42 47 53 43 19 7 7 25 44 66 71 75 80 83 84 101 102 94 89 87 86 77 72 72 71 62 53 52 47 45 41
46 43 39 36 33 33 36 38 36 33 37 25 17 16 20 26 35 41 49 45 18 9 11 30 53 61 66 69 71 74 77 97 100 91 87 86 82 79 78 70 66 59 55 52 47 44 47
48 43 38 34 32 32 35 36 34 30 36 22 12 10 14 21 26 33 40 39 15 6 20 39 54 57 60 60 63 66 70 87 94 91 89 82 75 74 68 67 65 60 57 53 49 47 49
49 42 38 33 29 31 33 34 32 28 33 19 11 10 12 14 20 29 32 30 11 17 34 43 48 52 50 50 54 57 60 72 87 87 82 81 82 80 77 75 70 63 57 58 51 50 49
49 43 37 32 28 30 30 32 29 27 31 16 9 11 5 12 14 21 29 22 20 27 34 40 41 36 36 36 40 47 49 57 73 87 88 85 84 81 79 74 68 62 63 56 53 53 53
51 44 38 31 28 29 28 30 26 25 28 18 11 4 2 8 9 17 25 16 26 28 29 34 33 31 29 29 31 37 45 51 57 73 86 88 87 83 79 73 70 69 62 60 59 57 56
50 44 39 32 30 27 26 28 25 23 23 23 12 5 6 6 5 12 20 14 26 27 28 26 29 29 31 29 29 33 41 47 51 58 73 85 88 83 79 75 73 71 65 62 60 59 61
52 46 42 34 30 26 25 25 23 21 22 23 20 12 5 10 3 11 19 14 18 30 27 27 24 25 24 25 28 30 33 40 46 53 62 72 77 79 77 73 69 67 64 64 65 65 63
59 48 45 37 31 26 25 24 22 19 19 20 23 20 13 12 7 5 16 16 13 29 29 28 27 26 23 23 25 28 29 33 39 46 54 61 68 68 69 73 75 73 71 70 68 63 64
56 51 47 40 34 28 25 23 22 18 17 19 20 26 21 15 12 11 14 18 16 14 33 30 30 30 30 27 26 26 29 30 35 41 48 53 59 64 67 68 67 67 67 65 63 64 60
58 53 49 41 35 29 26 22 23 18 17 21 15 32 29 23 13 20 17 13 18 18 18 32 31 33 33 31 30 31 29 30 33 36 40 46 53 58 63 66 66 66 65 63 63 63 62
59 57 50 43 37 32 27 24 23 18 17 20 14 35 35 31 25 21 22 16 19 22 20 20 29 35 33 34 34 33 31 32 33 35 37 41 45 49 51 54 55 54 56 57 59 60 60
64 59 52 45 38 35 28 26 22 18 17 18 16 35 39 36 32 25 22 25 23 28 17 16 21 26 34 40 34 32 34 36 38 37 38 39 40 41 43 45 44 48 49 51 52 54 54
66 62 54 47 42 39 30 28 24 17 17 17 13 30 40 41 38 35 28 24 24 27 25 18 24 20 22 18 28 32 42 41 40 38 36 37 40 43 46 45 46 48 50 52 54 54 56
72 66 57 51 46 44 34 30 26 17 18 16 10 22 40 40 43 40 38 31 27 24 24 26 22 18 18 23 21 22 26 27 35 35 40 45 47 46 49 50 51 52 53 55 59 61 65
76 67 61 55 50 47 38 33 29 20 16 17 10 15 27 37 42 44 40 43 38 32 29 25 29 27 24 22 22 25 23 22 25 24 24 24 31 33 38 40 45 49 51 52 53 53 55
78 71 65 58 53 48 44 37 32 24 17 17 15 10 21 35 37 39 41 39 45 40 35 33 32 29 26 28 27 24 22 22 27 32 31 29 33 32 29 30 32 34 35 39 43 46 48
81 75 69 62 57 52 47 42 36 29 22 16 16 12 11 20 36 39 40 39 41 45 43 41 37 37 38 34 31 31 31 27 31 28 33 38 36 33 34 33 33 37 39 42 41 40 41

GFSGBSN_250_spd_009.txt.gz
Wind_Speed
50 50 53 50 50 50 48 46 46 49 52 56 57 58 57 60 57 48 53 50 50 52 59 68 79 82 70 71 85 100 101 101 106 97 89 79 73 63 57 58 57 54 56 51 47 47 48
54 51 51 49 49 52 48 46 47 49 53 57 59 57 58 60 53 50 53 52 48 58 61 71 81 75 64 52 76 96 104 102 109 100 94 82 74 68 63 60 57 56 55 49 45 47 45
53 52 52 51 49 50 48 46 46 49 52 56 58 56 58 59 51 53 49 51 51 56 63 79 83 66 47 53 65 89 107 104 107 102 95 85 79 73 65 62 60 54 50 46 49 49 45
56 54 52 50 48 49 48 46 45 49 51 56 59 54 56 56 49 54 55 48 50 59 63 72 69 50 38 47 64 83 107 107 105 105 99 90 83 77 69 62 60 56 46 47 49 47 41
58 51 53 50 47 49 48 47 45 48 51 55 59 55 56 52 48 54 52 49 49 57 61 64 50 35 39 48 61 83 108 107 103 107 103 95 85 77 68 62 58 52 50 48 48 38 32
58 55 53 49 46 49 48 46 46 46 50 53 58 53 57 47 49 44 42 51 53 52 54 47 36 34 45 50 60 81 105 105 102 110 105 97 85 77 67 60 50 52 52 45 44 34 31
60 54 53 49 46 47 46 45 45 45 49 51 55 52 55 43 44 43 46 53 59 51 49 37 32 31 43 49 61 83 103 103 102 109 103 95 82 71 62 60 64 60 50 44 39 33 32
63 54 52 45 44 45 45 44 45 43 48 50 52 53 52 43 39 44 50 61 58 40 44 35 25 29 41 48 62 86 100 100 100 106 104 96 79 73 70 67 65 59 51 45 39 36 32
67 57 51 46 45 45 43 43 45 42 47 48 49 50 46 38 40 47 52 59 54 44 39 27 18 23 33 47 62 89 100 99 98 106 100 85 75 76 72 67 60 58 53 47 40 36 33
68 57 48 47 47 44 42 42 43 42 45 46 46 47 41 36 40 46 52 58 49 42 32 26 13 18 27 45 64 90 98 96 96 104 97 89 83 78 72 68 62 60 59 48 40 36 34
63 59 49 47 46 43 41 39 41 40 44 44 43 46 37 30 38 44 49 52 46 42 26 19 10 15 27 47 68 91 94 93 96 101 96 87 82 77 72 70 69 66 57 46 40 37 37
63 59 50 47 43 44 42 39 39 38 42 43 40 43 28 26 33 42 45 49 46 41 27 16 8 17 32 56 77 84 88 89 95 100 95 89 85 81 78 77 72 65 53 47 44 40 39
63 61 53 47 43 42 40 36 36 35 39 40 38 39 25 24 31 38 41 45 44 35 23 15 6 22 37 60 72 79 81 87 95 99 95 94 88 82 78 75 69 61 52 48 45 42 45
58 61 55 49 48 43 38 34 33 33 36 37 34 34 18 20 27 33 36 36 34 26 18 9 11 28 43 58 69 74 80 81 87 93 92 84 84 79 75 70 67 63 54 51 48 48 46
64 64 57 51 50 43 37 31 32 29 33 34 31 25 15 15 23 28 33 26 23 20 14 11 23 32 42 50 56 62 69 71 82 89 85 84 80 76 72 68 70 62 53 56 53 51 47
64 64 61 54 49 42 34 30 30 27 31 31 29 18 11 11 19 22 27 18 18 20 17 21 23 32 36 38 44 56 57 60 77 86 83 81 80 76 74 69 63 62 61 55 52 53 51
66 67 64 53 48 42 33 29 29 25 29 26 25 15 6 8 13 17 23 8 13 19 21 23 27 30 28 30 31 41 47 54 70 83 82 79 78 78 76 68 67 67 62 59 57 52 52
68 68 64 54 47 40 32 28 28 24 26 22 21 15 7 6 8 11 17 2 12 18 21 23 26 28 32 29 29 33 43 49 59 77 83 81 77 75 73 73 71 68 66 62 59 57 57
70 71 65 55 49 39 33 29 27 24 23 19 17 13 10 10 3 7 11 2 10 16 19 20 19 21 23 27 30 35 40 45 50 68 81 83 80 77 73 70 65 64 65 65 68 68 64
70 70 65 56 51 41 34 30 27 24 21 18 15 15 14 11 5 3 8 8 10 14 17 18 20 20 19 21 22 26 33 40 44 52 73 83 82 78 74 75 78 76 74 73 69 62 66
73 70 64 57 49 42 35 32 28 24 19 17 14 17 21 18 10 9 6 6 5 16 16 17 19 20 21 22 23 26 31 35 41 45 53 70 80 81 80 80 77 76 74 71 65 66 63
73 71 68 62 49 45 37 34 30 26 20 17 14 15 26 20 18 13 9 6 3 14 20 20 19 19 19 18 21 27 31 33 40 44 47 51 63 76 82 83 81 79 76 72 70 68 69
74 69 67 61 52 48 39 37 31 28 19 17 15 14 25 27 21 20 14 12 9 6 17 24 19 20 21 19 18 17 21 27 33 39 44 48 52 59 67 75 78 77 77 76 74 71 70
76 71 67 62 59 52 41 39 34 29 20 18 16 15 18 33 27 27 20 16 17 14 9 15 26 23 19 19 20 22 23 22 25 29 32 36 42 47 52 57 61 67 68 68 67 68 67
78 73 70 66 59 52 46 41 35 30 22 20 16 16 15 39 34 30 26 22 21 19 16 12 13 24 29 25 21 20 21 22 24 27 29 32 33 38 42 46 53 58 60 61 62 62 62
80 77 73 66 61 54 47 43 37 32 24 20 17 16 15 43 41 34 30 28 25 26 21 18 14 10 16 25 28 28 29 25 23 23 27 28 30 33 36 39 43 49 51 52 52 53 55
81 79 75 69 62 55 50 45 39 33 26 22 16 16 15 36 45 42 35 33 31 28 27 24 20 17 18 17 19 21 23 31 34 34 32 29 30 31 33 36 37 42 43 45 46 49 51
83 81 76 70 64 58 53 48 41 35 28 23 16 14 11 27 46 45 42 38 35 32 27 27 26 23 18 20 24 25 23 22 24 29 33 38 41 41 42 42 44 43 43 44 48 51 51
85 85 78 73 66 60 55 50 44 38 31 25 17 12 10 16 38 44 46 43 39 39 35 31 28 28 29 26 23 20 20 23 24 27 25 24 26 27 26 26 32 33 36 39 40 43 44

GFSGBSN_250_spd_012.txt.gz
Wind_Speed
73 69 64 61 61 58 52 51 49 53 51 49 50 50 53 51 53 55 54 56 56 45 47 45 49 54 54 65 71 72 77 85 94 95 93 96 93 86 76 72 68 65 63 60 55 52 54
72 73 70 65 61 60 56 52 52 53 54 48 50 50 52 53 54 56 55 57 53 45 48 52 53 56 62 73 81 76 75 73 90 99 97 98 95 92 83 77 70 68 64 60 53 51 51
75 73 70 66 63 58 52 52 51 53 55 48 51 49 51 53 55 56 55 59 48 46 48 52 57 62 71 84 87 81 71 75 81 104 103 99 100 97 87 79 74 70 61 57 52 50 51
73 77 74 67 64 59 54 54 52 51 54 49 50 49 52 54 56 56 57 54 40 45 49 54 60 67 69 81 84 82 70 72 85 103 110 106 103 98 88 82 77 69 62 55 54 52 53
71 74 74 70 66 61 58 54 53 50 54 49 50 48 51 55 57 56 57 47 41 46 55 61 66 67 65 76 75 64 58 75 94 103 112 109 105 100 93 84 78 67 57 58 56 53 52
65 70 72 73 69 64 58 55 53 52 53 48 49 46 51 53 56 56 54 40 44 52 58 63 67 65 60 61 60 48 52 66 85 101 110 110 104 102 93 85 67 62 58 62 57 53 52
63 66 70 72 71 67 57 55 53 54 52 45 47 45 51 53 55 54 48 42 48 53 62 67 63 59 48 49 46 42 47 55 68 82 100 107 103 100 88 76 73 67 69 62 58 53 50
62 65 68 73 71 66 57 55 52 51 49 43 45 44 50 52 53 54 41 46 51 57 60 66 59 47 36 39 39 39 44 51 62 75 98 106 99 97 87 80 74 72 67 60 51 51 49
60 65 67 68 69 65 59 54 50 50 45 43 43 42 48 53 50 48 41 49 54 61 62 60 51 38 30 30 33 38 46 51 63 79 100 101 95 97 90 83 74 68 65 57 52 53 50
61 63 66 65 65 66 58 54 51 49 44 41 39 40 45 51 50 39 45 50 57 62 63 57 45 37 27 24 30 38 45 50 66 85 100 93 99 95 87 80 73 70 67 54 51 54 49
62 60 63 64 62 64 59 56 50 48 41 40 37 39 42 48 45 37 44 52 56 65 61 47 37 30 21 24 31 40 44 49 69 88 95 92 99 96 86 78 74 75 69 56 56 53 49
62 57 59 59 59 60 60 57 50 48 40 39 34 38 40 44 36 36 43 50 56 60 52 44 35 27 22 25 32 39 44 52 74 90 91 96 98 92 85 82 77 74 66 58 58 53 48
56 55 56 55 56 54 57 56 50 45 39 37 30 35 39 40 30 35 41 48 52 50 43 38 30 17 12 19 30 40 48 59 80 92 92 98 97 91 87 84 80 72 66 61 58 51 49
51 53 54 55 55 51 60 56 48 42 35 32 27 32 36 36 28 33 37 44 44 41 36 31 23 10 5 17 31 42 59 74 90 89 95 98 98 96 88 83 73 67 64 59 56 54 50
48 51 53 54 56 53 57 54 47 39 33 27 25 28 31 28 24 28 35 36 35 33 31 28 19 11 10 19 33 42 59 79 88 87 94 99 96 88 83 78 73 68 62 56 58 57 53
46 48 53 55 55 57 57 54 47 38 32 24 23 25 27 22 21 23 29 29 25 26 25 24 26 20 24 22 28 44 64 81 85 85 92 95 91 87 80 77 74 69 67 61 59 57 54
43 48 56 61 58 61 58 53 45 35 31 22 20 23 24 19 17 19 23 20 16 23 24 23 28 26 29 24 31 45 65 71 73 79 88 91 88 81 78 77 71 69 65 62 62 58 56
43 48 58 62 62 62 59 51 42 37 30 20 19 20 18 16 14 12 19 12 12 21 23 24 25 28 34 36 38 47 57 61 63 70 78 83 81 79 77 75 73 71 67 64 59 59 60
44 51 61 65 65 63 60 48 40 38 29 20 19 17 15 14 13 10 14 5 9 16 19 22 22 27 28 36 37 40 49 54 59 66 76 81 80 77 74 73 67 60 61 63 66 68 64
46 54 63 68 65 64 58 48 41 37 28 21 20 15 13 16 15 10 9 1 6 13 15 19 21 21 24 29 35 42 45 49 54 64 74 80 79 75 72 71 70 67 66 67 68 64 66
47 58 66 69 65 62 56 47 43 36 29 22 21 15 13 20 16 9 6 3 10 14 13 15 18 21 20 23 28 33 39 43 48 58 69 75 76 74 74 73 71 69 66 64 59 65 62
52 60 66 69 65 63 59 51 43 35 29 24 21 16 14 23 21 15 8 3 9 14 15 15 14 17 18 21 25 32 37 41 44 51 62 72 76 76 74 72 70 69 68 64 62 62 61
55 62 67 69 67 62 57 52 44 37 32 27 22 17 17 23 27 18 15 6 5 14 17 15 16 18 17 16 18 22 29 36 40 43 50 65 74 74 72 71 69 65 66 67 68 67 69
57 64 66 70 68 63 59 55 46 38 33 28 24 19 18 22 30 24 20 13 8 7 19 19 15 17 18 19 18 20 24 29 34 39 42 49 65 73 73 71 69 71 70 69 69 69 70
57 65 67 73 72 66 60 56 47 40 35 31 25 21 19 17 31 28 24 20 15 10 10 22 21 18 18 18 17 18 21 25 28 31 36 41 46 57 68 73 76 77 76 75 74 75 75
61 68 68 73 73 70 64 58 50 43 37 33 27 22 21 16 33 32 30 25 23 17 12 13 24 25 20 20 19 19 18 19 20 24 30 36 41 44 48 55 64 72 75 76 76 78 78
63 70 71 72 76 71 65 59 51 45 38 34 28 24 22 23 34 38 35 30 28 23 19 14 12 14 22 23 21 20 21 21 21 19 18 24 28 32 35 39 44 48 52 56 59 62 63
66 70 73 73 79 74 68 60 53 46 40 35 30 25 21 21 20 46 40 37 32 32 26 22 17 16 13 13 18 23 25 25 23 24 24 24 23 25 27 28 29 31 31 30 34 39 41
68 72 74 77 81 76 69 62 55 49 42 37 32 27 22 21 18 47 47 42 38 35 34 29 26 21 18 18 17 16 15 18 23 28 30 30 32 30 31 33 32 33 35 36 39 40 41

GFSGBSN_250_spd_015.txt.gz
Wind_Speed
69 76 78 78 78 71 74 73 68 66 62 57 53 55 56 53 50 54 50 54 52 54 55 53 54 53 45 40 45 48 51 57 62 65 74 87 87 85 86 88 84 75 73 73 72 61 60
43 70 80 77 77 77 77 76 73 67 64 59 56 56 55 56 51 55 52 55 54 55 57 53 57 49 45 44 53 51 52 58 66 68 71 77 91 91 88 90 88 82 79 74 70 61 57
38 49 66 76 80 78 78 73 73 73 69 62 55 55 53 55 52 55 53 55 54 56 58 55 56 48 42 52 53 57 61 66 73 78 77 78 84 96 90 90 91 87 83 76 68 62 57
35 39 51 65 78 79 79 76 77 74 69 61 57 57 58 57 53 55 53 55 55 58 59 58 50 48 44 56 60 68 72 74 81 86 86 82 82 97 94 91 92 90 87 76 67 63 57
42 40 46 57 67 76 78 79 78 75 71 64 58 59 58 58 55 56 53 55 54 59 59 58 50 49 53 64 66 73 76 80 82 86 87 79 78 91 103 96 95 94 83 73 68 62 58
55 50 43 52 61 72 78 77 77 75 73 65 61 58 55 60 54 56 52 56 55 61 60 55 51 56 61 70 75 76 73 73 78 84 71 66 82 88 108 104 95 87 82 75 69 63 59
64 63 61 53 58 64 73 76 73 71 71 66 61 61 59 58 53 56 51 56 58 59 59 56 56 61 68 75 76 71 68 73 78 70 63 70 92 104 107 103 92 91 88 80 74 68 58
74 75 72 66 58 61 68 73 73 69 72 63 60 56 56 53 52 53 51 54 58 62 55 56 59 68 71 76 70 64 63 68 69 56 60 77 89 94 107 103 96 92 88 81 75 66 60
81 84 82 78 71 61 63 70 71 68 67 64 55 55 55 47 53 51 51 56 59 62 55 54 64 66 73 69 61 56 56 63 56 47 51 63 63 90 102 102 98 93 87 82 73 63 62
85 88 86 84 74 62 62 68 70 68 66 60 55 55 53 45 52 50 51 56 60 60 54 55 65 64 66 60 48 44 47 47 41 41 44 44 64 81 95 98 95 91 85 79 73 63 63
89 85 82 75 65 59 61 64 68 64 60 57 54 52 50 46 49 49 50 54 59 57 58 57 60 62 62 56 45 39 36 35 33 35 31 46 58 72 93 95 94 89 85 79 68 63 61
72 64 63 60 54 55 60 62 66 62 57 56 50 49 44 47 45 45 50 53 53 55 58 58 60 58 50 44 39 33 30 27 28 30 40 49 59 76 96 93 92 92 85 79 70 61 62
56 51 52 50 48 50 57 60 63 59 56 54 49 46 42 47 41 42 46 51 47 51 54 56 56 52 44 32 29 28 26 25 30 35 47 58 67 93 98 94 91 89 83 78 65 64 63
45 41 44 41 44 49 56 58 63 57 55 53 48 43 43 42 35 39 43 44 41 45 48 51 49 45 31 21 20 23 25 29 32 47 59 70 87 98 95 95 99 91 80 70 60 63 62
38 39 37 37 41 48 55 57 59 56 54 50 46 39 42 35 31 34 39 34 35 38 41 43 43 33 19 11 14 20 29 30 37 50 68 81 95 94 97 95 93 82 76 66 62 64 57
35 35 35 36 42 48 54 56 58 56 53 46 42 38 33 31 29 32 31 27 30 31 33 36 36 23 14 6 15 25 28 35 49 65 77 91 91 94 96 89 86 78 74 67 67 67 61
32 32 34 36 42 47 55 58 59 57 50 45 40 36 29 26 25 29 24 22 23 23 26 31 34 20 15 15 17 24 39 55 68 83 87 82 82 92 97 89 78 75 71 68 70 65 62
30 31 34 36 42 49 58 60 59 56 48 45 41 34 27 21 22 24 16 18 14 16 19 26 29 23 20 24 32 37 51 65 79 86 89 91 87 84 83 82 81 75 73 74 71 66 64
30 31 34 37 45 54 62 63 59 53 50 43 38 31 25 19 20 20 13 13 8 8 11 19 21 23 21 20 35 49 61 67 75 79 82 85 95 94 88 82 75 69 64 64 68 67 64
29 32 34 40 49 60 65 64 59 54 50 42 38 30 23 20 17 18 13 8 4 4 5 12 16 17 21 22 29 46 61 69 71 73 72 71 80 84 84 77 74 74 70 70 69 64 63
33 34 36 43 54 66 68 65 61 55 49 42 37 30 22 20 16 18 13 5 5 4 5 11 13 14 17 25 32 36 44 48 48 49 60 69 75 75 74 71 72 75 75 69 62 65 59
32 36 39 48 60 67 67 63 59 53 47 43 36 31 23 21 18 20 15 9 7 9 8 11 15 14 17 19 29 41 42 45 49 54 61 67 72 76 77 76 73 71 69 63 60 58 57
36 38 43 51 64 69 70 66 61 55 49 44 36 32 24 23 21 25 19 12 10 12 11 11 13 16 15 20 24 27 35 39 43 50 59 65 72 75 75 74 70 65 63 63 66 64 65
38 41 47 54 66 69 69 66 60 55 50 43 39 34 27 23 21 28 21 17 14 15 14 14 13 13 16 17 20 26 31 34 38 43 50 60 67 71 71 71 67 65 67 66 64 64 63
41 45 48 58 67 70 70 70 64 58 52 44 41 35 28 24 22 27 25 20 15 18 18 18 16 15 15 15 16 20 24 30 35 37 42 51 61 67 69 69 68 70 68 66 65 67 66
42 46 51 60 68 72 71 71 64 59 52 44 42 35 29 25 22 27 29 23 20 19 19 22 20 19 19 16 17 18 22 26 29 33 37 42 50 60 66 68 69 69 67 66 66 68 68
43 48 53 61 69 73 71 69 65 59 52 46 43 37 31 24 21 29 32 29 24 21 20 20 25 23 19 18 19 19 19 20 22 27 32 36 41 48 56 61 65 67 67 67 68 70 69
45 49 54 61 69 74 75 73 67 60 53 48 43 38 33 27 27 26 37 34 30 24 21 19 20 25 23 22 22 22 21 20 23 24 25 26 29 33 36 43 52 58 62 64 68 69 69
47 52 57 65 71 76 76 73 67 61 55 49 45 39 35 30 26 23 39 36 35 31 27 22 21 22 24 24 25 23 24 23 23 23 23 23 26 28 30 31 35 38 42 46 49 49 49

GFSGBSN_250_spd_018.txt.gz
Wind_Speed
38 33 37 42 52 70 77 74 77 74 72 75 72 68 63 63 63 59 58 60 58 56 56 49 51 52 54 53 58 53 58 58 57 57 58 64 71 76 79 78 78 83 82 83 79 74 63
37 34 28 37 44 60 74 72 72 76 76 75 71 71 71 69 66 59 60 61 57 55 56 52 52 54 54 54 61 54 58 55 54 55 54 55 61 73 79 83 80 79 86 85 84 76 66
41 37 32 25 37 48 66 76 76 79 79 79 78 79 78 72 69 66 62 60 59 58 59 57 55 55 55 63 60 59 53 53 52 50 49 53 58 63 74 83 85 82 85 88 84 76 69
45 42 37 34 32 30 47 61 75 78 78 79 72 76 75 74 67 62 61 60 60 62 61 60 59 56 56 65 60 61 53 51 54 56 58 63 65 67 71 79 86 88 85 85 83 79 71
46 45 44 41 40 38 38 40 59 70 75 79 79 79 75 73 68 66 62 60 62 63 64 60 60 57 57 66 62 55 51 54 58 62 66 68 70 70 73 75 86 89 83 80 85 80 74
50 48 48 49 49 46 47 48 45 50 72 84 85 82 79 73 72 67 63 58 62 62 65 62 59 58 61 64 58 56 59 62 63 66 69 72 77 79 77 75 75 83 88 82 83 83 79
52 53 53 55 57 56 57 56 55 53 53 63 78 81 77 75 71 70 64 61 65 58 61 62 59 61 62 63 61 63 65 66 69 69 75 82 84 76 77 78 72 86 95 90 86 87 81
55 60 63 64 66 67 65 65 64 61 59 58 65 75 74 72 70 65 59 63 61 60 55 59 64 65 67 63 62 67 71 71 72 75 81 81 74 74 80 73 72 86 95 93 89 89 86
60 65 70 73 73 76 74 73 72 67 66 61 61 68 69 65 65 59 59 58 59 61 53 54 65 66 68 61 65 72 75 75 75 75 77 79 68 71 62 59 67 81 95 94 88 90 83
69 73 78 81 80 84 85 82 79 75 70 65 62 64 64 62 63 56 58 56 57 62 53 55 63 66 65 65 66 75 73 73 70 68 74 58 65 62 57 58 72 83 91 98 90 92 82
80 81 86 90 86 90 89 85 83 79 72 66 61 62 61 60 59 53 54 52 57 59 56 58 62 60 62 66 67 71 70 67 63 63 60 57 59 47 51 56 69 80 89 97 88 84 83
81 79 85 82 76 75 75 78 76 72 66 62 59 59 60 57 54 52 49 49 58 58 58 59 57 55 58 64 65 63 60 56 54 50 45 48 41 38 45 52 72 91 93 97 92 93 83
67 64 64 63 61 59 60 62 64 62 58 59 56 56 56 53 48 47 44 50 54 56 57 53 52 54 56 59 59 57 53 46 43 37 36 32 32 38 44 60 80 83 98 99 93 89 76
56 53 50 51 49 49 52 55 56 52 56 55 55 54 52 48 45 40 42 48 51 50 51 48 48 51 55 55 50 49 41 33 27 26 25 27 31 37 48 58 68 83 89 84 83 76 72
49 43 41 43 42 45 47 49 50 51 55 52 53 51 49 44 41 39 42 47 44 46 43 41 44 47 53 49 41 31 24 21 18 20 23 31 37 47 58 75 85 90 92 82 80 82 78
39 35 36 38 39 41 42 47 49 53 52 50 51 50 49 37 36 36 40 39 38 36 34 35 41 46 48 39 26 15 11 15 15 18 26 40 54 67 78 86 90 90 83 89 85 80 71
34 32 34 34 36 37 41 46 50 52 50 50 52 49 45 35 34 34 36 33 31 28 27 32 37 44 41 26 10 1 13 19 25 25 40 57 66 73 81 87 88 84 88 82 82 75 73
33 31 32 32 35 36 40 45 48 49 49 51 53 47 40 35 32 31 30 28 24 22 21 27 32 39 34 17 4 7 18 29 37 44 54 69 75 81 83 86 85 81 88 83 79 76 73
31 29 28 30 35 37 40 43 48 48 49 55 53 46 38 35 31 29 25 22 18 16 16 21 25 32 28 16 5 16 30 41 49 62 73 75 77 86 88 86 84 90 79 79 75 72 69
29 28 28 30 35 38 39 45 48 50 54 57 50 44 39 34 29 26 21 18 14 12 12 15 17 26 23 12 9 23 41 54 53 57 71 76 85 84 88 85 86 82 82 79 72 71 69
25 27 31 34 36 39 43 48 52 54 58 55 51 44 38 34 28 23 19 15 9 9 6 9 10 18 18 9 7 24 45 59 62 61 68 77 82 83 83 81 82 81 79 73 70 72 65
24 28 33 35 38 42 47 54 57 59 59 57 51 44 40 32 29 22 19 16 8 7 3 3 4 10 13 8 12 21 39 59 66 69 69 70 71 72 72 74 78 75 69 63 66 63 63
21 26 33 36 39 44 50 54 57 61 60 58 52 45 39 33 28 24 21 18 10 9 7 4 3 6 12 8 15 19 27 38 53 64 69 72 71 69 71 72 72 68 63 63 63 61 62
19 28 35 38 42 46 51 57 62 64 64 59 53 46 38 34 30 25 21 19 15 13 11 10 9 9 10 14 16 22 31 35 39 43 46 42 37 52 68 72 67 62 59 61 58 57 57
19 28 37 39 43 48 54 62 69 71 66 59 52 46 40 35 30 28 25 21 17 16 16 14 13 12 12 15 18 20 24 28 31 33 37 40 43 49 58 62 62 61 59 60 58 58 58
19 29 37 40 45 50 59 66 70 68 63 59 52 45 42 37 31 29 27 24 19 18 20 17 16 14 14 16 18 22 24 26 29 33 35 37 40 47 56 61 64 62 60 58 59 60 61
18 29 39 43 48 53 59 65 70 69 64 58 52 46 43 37 32 30 29 27 23 21 24 22 17 17 17 15 17 19 20 23 26 29 32 36 41 45 52 60 63 65 62 61 63 62 60
18 31 40 45 49 56 63 70 72 69 63 59 52 47 44 38 33 28 33 33 27 25 25 26 24 20 19 17 17 19 21 22 21 23 26 28 31 37 45 54 60 62 63 64 64 62 62
19 33 43 48 51 60 68 72 73 71 66 59 53 50 45 39 32 27 38 32 32 29 26 26 27 27 23 19 20 19 20 20 21 22 24 28 30 31 37 41 47 54 59 62 64 64 65

GFSGBSN_250_spd_021.txt.gz
Wind_Speed
49 48 46 44 37 32 30 35 44 55 66 73 77 77 73 71 69 66 62 58 60 60 59 59 55 58 58 55 55 50 55 56 53 53 55 56 60 63 62 65 70 71 73 71 76 81 80
46 47 47 44 39 33 26 30 40 52 64 70 74 76 73 72 69 68 65 66 67 65 67 65 60 58 59 58 55 48 52 59 57 55 58 56 61 58 58 61 62 73 74 72 72 78 81
44 46 47 46 43 38 31 25 32 43 59 69 72 72 74 70 71 69 67 65 67 67 71 67 63 59 59 63 56 56 53 58 58 59 58 59 59 55 54 55 58 62 73 74 73 74 79
42 44 49 47 45 44 38 32 27 33 44 63 68 70 69 70 71 69 71 71 73 74 65 61 55 57 61 62 59 61 56 61 61 61 61 60 55 54 53 52 55 59 65 72 77 77 78
43 44 47 48 48 46 45 41 36 34 34 44 59 70 75 74 73 71 71 70 68 66 67 58 57 59 62 63 63 60 61 63 62 63 64 58 48 50 52 51 50 49 54 67 75 81 80
43 45 47 49 51 52 50 48 45 43 41 41 40 47 62 71 75 73 73 70 71 69 71 68 59 60 61 63 63 62 63 65 64 67 62 56 50 49 53 53 54 60 62 67 71 83 82
42 44 45 47 50 53 53 54 53 51 50 48 46 46 47 48 56 70 72 76 76 73 71 71 61 63 67 65 64 65 67 66 69 68 60 59 52 55 65 66 67 64 61 62 65 78 86
42 44 46 50 52 54 57 58 57 58 57 56 55 53 52 52 52 53 62 74 79 76 68 68 65 63 69 63 64 68 70 69 73 67 65 61 56 70 73 72 71 69 65 59 66 78 91
53 51 53 55 58 62 60 63 64 63 63 61 60 59 57 55 54 54 54 60 69 73 66 58 62 65 68 62 62 73 72 75 74 69 69 66 67 78 76 76 74 72 67 65 65 79 90
61 63 66 69 70 69 69 70 70 72 68 68 65 64 63 61 57 56 55 56 63 61 54 50 58 66 66 63 65 74 76 79 72 71 76 70 79 81 82 78 79 74 75 72 66 77 88
68 70 73 76 79 84 81 83 81 77 75 73 74 71 67 64 63 60 54 55 54 52 46 50 56 61 63 66 69 78 81 77 73 78 80 76 77 83 79 77 80 68 73 68 69 78 87
77 78 76 72 74 79 84 88 91 85 78 80 79 78 74 69 67 59 53 49 47 47 46 46 53 55 60 68 72 77 75 73 75 81 80 75 73 74 75 73 65 61 62 63 70 84 93
69 62 60 57 55 59 64 69 75 78 81 83 81 78 74 70 65 56 50 44 42 43 47 44 49 53 61 68 74 69 68 73 77 78 73 67 61 55 54 56 53 48 59 62 75 87 78
58 56 52 49 48 47 53 56 58 61 67 71 73 71 66 62 57 51 44 40 37 44 40 43 47 54 62 67 61 66 72 69 66 59 50 43 41 38 40 42 44 50 66 70 73 72 80
54 49 45 43 42 42 46 47 48 50 56 60 61 57 56 52 51 43 37 34 42 35 38 42 49 56 60 56 60 62 56 44 39 30 28 26 25 28 30 32 35 46 54 67 73 80 82
49 44 41 40 39 38 40 40 43 47 50 52 52 52 51 48 43 34 33 38 34 33 36 42 50 51 48 53 55 44 33 27 17 15 16 17 19 24 28 30 38 52 61 70 83 81 83
48 43 39 36 35 36 36 38 40 43 43 46 49 47 46 44 34 34 34 34 30 30 34 42 46 41 46 50 40 27 23 14 11 13 14 16 19 25 32 37 46 54 63 72 77 77 80
47 40 35 31 30 32 34 35 36 38 41 43 44 42 45 38 38 37 35 29 26 28 34 38 33 37 42 40 32 22 15 9 8 13 17 27 38 41 46 55 60 67 68 61 71 75 72
46 36 30 26 26 28 30 33 37 37 41 41 42 47 42 43 41 37 30 25 25 28 32 26 26 31 36 34 26 20 7 11 21 34 45 49 57 60 58 58 65 71 55 56 67 72 68
45 35 28 23 24 26 28 33 36 37 37 39 45 45 46 46 41 34 28 24 24 26 24 17 19 27 29 28 22 9 14 31 39 54 65 62 65 60 59 60 59 65 48 42 42 68 72
44 32 24 21 23 25 31 35 35 35 37 40 43 49 52 46 40 33 27 24 21 21 13 9 14 21 24 24 18 6 19 29 47 59 73 69 62 59 54 57 55 61 54 57 69 75 76
41 30 21 20 25 28 33 35 36 41 47 49 50 54 53 47 39 32 26 22 19 17 7 4 7 14 19 21 18 6 17 33 56 62 69 64 55 62 57 63 57 64 67 71 76 77 77
39 27 19 20 26 32 34 35 35 41 49 54 57 57 52 43 36 30 25 20 19 14 8 3 2 7 11 16 17 8 23 40 52 58 61 64 63 66 63 65 70 71 72 68 70 72 70
35 24 18 19 28 34 34 33 41 51 56 62 61 58 50 42 36 31 27 22 21 15 12 6 4 2 4 12 12 9 11 29 41 49 52 57 62 65 66 66 66 65 59 61 67 65 62
33 22 17 22 31 34 32 37 51 58 64 66 63 56 49 43 37 32 26 24 21 17 15 11 10 8 6 6 10 12 9 5 28 40 47 45 49 56 61 62 61 57 53 58 59 54 53
31 20 16 25 30 33 35 46 56 58 66 67 61 55 49 43 36 33 28 25 21 19 18 17 13 13 13 13 13 14 15 17 22 26 29 31 39 47 51 60 57 46 51 58 54 52 53
27 17 15 26 31 32 40 49 56 64 67 68 63 56 50 43 37 33 31 29 23 21 20 21 17 15 14 16 18 19 19 19 19 23 25 27 31 38 41 44 45 45 50 54 50 50 50
24 15 16 28 33 36 42 51 62 67 68 67 61 55 51 45 39 34 30 29 26 22 22 22 22 19 18 16 16 20 22 23 23 23 25 26 28 29 32 35 39 45 51 52 50 49 51
21 13 19 29 34 39 45 54 60 65 68 66 61 55 50 46 40 34 32 35 30 25 23 23 23 21 19 19 18 18 20 21 23 24 25 25 25 26 27 29 37 46 51 53 52 50 51

GFSGBSN_250_spd_024.txt.gz
Wind_Speed
46 46 47 48 47 47 47 52 47 44 37 38 44 56 61 66 71 75 76 75 73 69 64 60 56 56 57 56 53 56 59 54 50 49 52 53 55 55 52 52 52 50 58 60 65 68 68
44 43 43 44 44 44 46 50 47 41 36 34 42 52 61 63 68 73 75 74 75 72 65 62 58 57 58 61 59 58 63 62 55 50 53 53 54 55 53 53 53 55 58 60 63 70 71
40 42 42 40 41 42 45 47 49 42 36 35 37 50 54 63 65 67 71 72 73 70 67 67 59 60 64 63 62 62 63 62 59 57 55 58 54 52 54 55 54 56 58 60 62 69 74
37 37 38 38 40 43 45 46 48 48 41 33 36 43 57 60 65 66 66 69 71 71 70 63 62 62 64 62 62 63 63 61 58 57 57 58 58 54 55 56 55 57 58 57 59 63 70
34 33 36 35 39 43 47 48 48 49 45 41 35 36 46 62 65 67 67 70 68 70 70 65 62 66 69 69 67 62 64 61 61 59 58 56 58 57 58 55 57 57 51 52 55 60 68
31 32 34 36 39 41 46 50 51 50 50 47 44 38 37 45 60 66 70 69 70 71 65 64 62 65 64 70 69 65 69 66 63 61 60 58 57 58 59 60 57 55 53 52 52 57 62
33 34 34 33 37 40 46 47 51 52 54 54 51 47 43 41 43 55 70 69 70 68 67 67 64 67 70 71 71 71 71 70 63 64 65 61 57 58 66 67 65 57 51 48 51 56 58
43 42 43 43 41 43 46 47 51 54 57 58 58 55 52 48 46 45 49 52 58 64 69 73 77 73 71 69 71 79 76 71 66 66 65 63 60 66 69 69 69 61 54 51 58 64 64
54 53 52 51 50 49 49 50 54 52 57 59 59 59 58 55 52 52 50 47 46 45 48 51 59 71 80 77 75 79 75 70 69 66 67 66 66 69 72 73 67 61 58 63 65 72 69
57 58 60 61 64 66 66 60 60 59 60 58 59 61 60 56 55 55 54 50 50 50 47 49 60 68 76 82 79 77 75 73 69 68 70 66 72 75 77 77 75 67 71 74 74 74 71
62 65 68 70 72 71 73 76 77 68 67 61 64 66 59 61 59 59 54 54 51 52 46 50 58 65 70 69 71 73 71 69 69 69 70 72 77 80 79 81 79 73 78 78 78 77 76
68 72 73 64 61 61 61 64 70 76 73 67 68 66 67 63 63 61 58 57 53 53 51 54 59 59 61 60 62 65 67 68 68 72 74 79 80 84 83 86 84 83 83 83 81 80 71
76 72 61 57 54 55 55 55 56 63 70 75 68 74 71 68 69 63 61 60 56 53 56 57 55 51 53 55 59 62 63 68 72 76 78 80 82 82 86 90 89 90 90 90 84 76 38
78 64 58 51 47 45 44 44 47 51 56 68 69 79 75 77 74 68 66 57 53 55 58 54 47 44 45 52 56 59 64 67 73 76 77 80 85 85 84 80 80 81 79 65 60 42 45
73 61 52 46 42 39 38 37 39 45 51 54 60 63 81 80 79 72 68 55 54 57 55 45 39 37 45 49 52 57 62 68 69 75 76 68 60 56 53 52 51 52 47 63 55 50 65
67 58 49 43 40 35 33 31 32 38 44 48 49 57 60 62 68 67 60 53 54 55 42 37 33 38 42 45 50 58 60 65 70 60 46 42 37 32 29 28 29 32 36 35 35 46 49
65 55 47 42 36 31 28 26 28 29 38 43 43 50 54 47 53 53 47 50 51 40 33 29 33 34 37 44 50 54 62 57 38 30 28 23 16 12 11 12 21 25 25 28 38 45 51
62 54 47 39 31 25 21 21 24 27 32 37 45 44 39 40 40 39 47 49 37 32 29 28 30 29 37 42 46 52 43 25 19 19 16 10 6 10 15 16 15 19 30 36 40 42 48
60 54 46 34 24 18 15 18 21 25 29 35 38 40 39 33 38 48 48 38 37 29 26 27 24 30 31 35 41 36 17 8 6 15 19 19 17 31 41 43 44 39 32 37 42 49 56
58 53 42 31 21 12 14 17 21 24 29 34 35 31 30 39 48 48 42 38 31 27 24 19 24 26 23 30 23 13 6 14 24 38 42 47 50 55 56 53 49 40 54 48 46 43 50
58 50 38 29 18 11 12 16 21 25 30 32 31 34 47 50 49 48 42 35 30 25 17 18 23 14 18 12 10 2 19 40 45 51 57 56 66 60 54 50 42 37 30 43 42 47 54
58 49 33 25 17 10 12 16 20 22 25 31 38 50 55 53 52 47 40 33 26 19 15 18 16 7 9 10 9 7 41 55 50 55 56 63 62 62 57 54 47 40 34 24 37 48 56
56 46 33 22 14 9 13 17 19 24 31 39 51 57 56 56 52 44 38 32 26 19 15 16 8 2 8 15 7 10 34 50 58 55 56 48 65 59 52 52 55 53 45 32 42 38 54
53 42 30 20 13 10 13 18 21 29 38 50 56 58 59 54 49 44 37 29 25 18 17 13 5 6 7 19 9 10 37 45 52 49 48 49 52 55 53 51 55 60 54 51 47 55 60
49 40 28 17 12 11 16 18 24 29 41 52 58 62 58 53 48 42 35 32 24 19 20 12 6 9 8 17 13 15 29 34 46 43 46 50 47 49 51 50 49 54 52 52 54 61 57
47 37 27 15 10 14 16 22 29 36 46 58 63 61 56 51 46 41 36 31 25 20 21 14 9 11 10 21 21 22 12 20 31 43 33 41 43 45 45 49 49 50 49 46 48 56 56
44 35 25 14 10 13 20 28 34 40 52 60 65 63 58 53 46 40 37 33 26 21 23 17 13 14 14 18 17 15 12 12 10 19 27 30 32 35 33 37 39 39 37 41 38 49 53
43 32 24 13 10 16 26 30 38 47 58 65 66 62 58 53 46 40 37 32 26 21 24 21 15 11 14 16 16 16 17 14 11 10 7 21 24 27 26 31 29 28 29 32 36 43 47
42 28 23 13 13 21 29 32 44 53 62 67 66 63 57 52 46 40 39 35 28 23 22 25 20 16 13 14 18 15 14 13 11 13 15 17 20 19 22 25 26 24 27 29 29 42 47

GFSGBSN_250_spd_027.txt.gz
Wind_Speed
50 48 48 48 50 50 49 50 50 50 51 52 56 60 60 57 58 61 63 65 68 72 75 75 76 76 71 67 63 62 61 56 55 54 50 49 48 47 47 48 52 48 55 54 54 58 60
54 48 46 44 44 45 46 47 45 45 47 50 53 54 53 48 51 56 61 64 68 71 73 75 76 76 72 70 67 65 62 61 58 57 56 58 54 48 47 51 52 52 54 56 54 57 60
52 45 41 42 41 41 41 43 45 41 45 49 51 52 50 43 48 55 61 64 66 70 72 73 75 75 71 68 67 63 63 60 62 59 60 59 59 55 51 53 54 52 53 57 58 59 59
50 40 35 37 38 38 39 38 42 42 45 48 49 51 48 41 48 55 59 65 66 67 71 73 72 73 72 71 70 67 67 64 62 63 61 61 64 55 52 54 56 57 55 56 59 62 62
43 36 31 31 33 35 37 40 40 43 45 48 47 48 49 44 43 53 61 62 65 66 68 71 70 72 74 71 68 70 68 64 65 65 65 67 64 60 57 56 55 56 61 62 61 65 65
46 39 35 34 32 31 32 34 42 43 46 49 51 49 48 46 41 48 56 65 66 65 62 65 68 72 73 71 68 69 70 68 69 69 69 68 67 60 60 63 59 60 62 65 64 66 64
57 44 39 35 37 37 37 35 38 39 47 50 54 53 52 49 46 41 51 61 65 68 64 62 61 65 68 68 67 68 70 70 70 73 74 73 67 63 66 68 64 61 59 58 62 64 66
56 51 46 45 44 42 43 44 43 40 44 49 54 56 56 55 51 47 41 53 62 64 66 68 70 71 72 71 71 74 76 74 75 75 76 73 68 71 73 69 66 65 61 61 64 67 66
57 51 48 49 51 57 62 59 55 52 49 49 53 56 58 59 57 50 50 48 44 53 61 65 65 68 69 68 71 78 78 81 79 76 78 78 75 76 74 74 71 68 66 66 68 72 66
68 59 56 56 61 66 68 70 76 66 61 57 56 55 57 61 57 57 57 53 46 45 42 49 52 58 65 64 70 77 77 76 81 88 89 84 79 82 77 74 75 72 72 71 71 73 68
75 67 66 68 74 65 61 61 60 69 69 66 63 59 57 57 56 61 68 55 51 51 43 46 47 51 54 57 59 61 64 69 72 76 81 88 85 84 79 79 79 74 78 76 77 76 72
83 77 76 74 64 58 55 54 53 54 58 67 72 66 60 57 56 62 60 60 58 54 47 48 51 55 56 56 56 60 66 68 70 70 72 78 84 83 81 81 80 78 80 82 83 81 65
86 82 81 69 60 53 48 46 44 44 48 56 65 65 69 64 62 65 59 58 58 50 50 52 54 55 56 53 56 61 66 67 62 62 65 70 74 75 76 78 80 82 86 88 88 81 57
92 87 79 68 56 48 43 40 37 36 39 45 54 64 67 62 69 65 63 60 56 54 56 56 55 55 54 54 57 62 62 58 57 60 65 67 66 72 75 80 86 87 90 90 89 81 77
93 89 77 65 55 48 40 35 33 34 34 39 51 55 62 66 72 65 62 58 56 59 60 58 54 51 53 54 57 56 55 56 57 61 62 67 70 73 78 81 84 85 87 90 81 78 82
94 88 75 64 56 47 39 31 27 26 30 38 41 44 53 58 73 70 67 61 60 62 61 56 49 50 52 52 51 51 51 51 54 60 65 65 70 65 54 53 54 57 60 60 59 61 66
94 86 73 64 55 46 35 25 20 20 26 29 33 40 52 63 69 62 63 67 67 67 61 54 52 52 49 47 48 43 46 47 57 56 64 61 49 39 34 32 32 32 33 35 36 37 41
92 84 70 63 53 41 28 19 15 20 27 30 30 36 47 55 40 52 64 71 72 67 59 54 50 45 41 43 36 38 42 50 54 52 41 34 32 29 22 12 10 12 12 15 21 24 30
90 80 68 60 48 36 22 14 13 15 21 28 32 39 43 40 34 44 57 64 65 62 53 48 42 39 37 28 31 31 44 50 35 15 14 14 11 12 15 17 24 15 4 6 8 13 24
88 78 66 58 44 31 15 10 9 14 21 26 30 32 29 29 38 43 42 44 47 44 42 38 38 33 21 24 24 29 32 23 11 16 25 30 37 34 36 31 25 28 21 14 18 20 25
85 76 64 55 40 26 13 6 9 14 19 23 24 25 30 38 40 38 37 37 36 35 38 37 29 17 18 17 25 16 23 13 26 35 42 45 41 44 44 42 34 28 26 27 30 33 37
83 72 62 54 39 22 9 4 7 13 19 22 28 35 38 36 35 36 35 37 41 41 36 27 18 14 13 18 10 31 30 28 39 43 44 44 44 37 41 38 32 21 22 28 33 39 41
79 68 59 49 38 22 8 3 4 9 19 28 35 35 32 33 37 42 45 46 43 36 27 20 13 11 12 8 8 26 34 38 44 47 45 44 42 42 35 29 20 13 21 18 29 29 25
75 66 57 45 34 19 7 2 4 10 18 25 28 29 35 43 47 50 50 44 36 28 23 18 14 12 9 10 9 22 25 43 45 47 45 48 45 38 29 35 34 27 27 26 19 18 23
73 65 55 43 33 16 3 5 10 13 17 24 31 38 45 50 53 51 46 39 32 26 21 18 17 13 14 20 11 27 36 34 50 50 48 44 42 42 36 39 33 35 38 36 36 32 31
70 61 53 41 31 17 4 8 13 18 24 28 35 45 53 55 53 48 42 36 31 26 22 20 16 11 16 33 17 18 18 27 39 53 47 46 40 42 42 41 38 37 35 37 35 29 25
67 57 49 37 27 16 7 11 14 22 27 34 45 53 58 56 52 47 41 36 30 25 23 20 18 13 13 25 22 19 13 20 16 45 47 44 46 40 41 46 40 37 33 35 35 30 27
64 54 47 34 25 16 11 15 19 27 33 42 52 58 61 56 51 46 41 36 31 25 23 20 16 16 15 20 30 29 19 10 14 9 37 32 35 35 34 35 36 29 29 29 17 20 25
61 51 44 32 22 15 14 19 21 28 39 45 56 58 59 56 51 47 42 36 30 23 24 20 18 17 16 18 24 20 19 9 8 5 12 16 26 19 12 23 15 23 18 16 16 16 19

GFSGBSN_250_spd_030.txt.gz
Wind_Speed
61 59 53 51 50 48 47 45 47 48 53 53 57 57 58 59 63 65 67 71 74 76 78 80 82 85 90 91 89 86 78 74 68 64 61 58 52 50 49 47 49 46 53 54 54 57 60
64 60 53 51 48 44 42 42 43 43 44 47 50 52 55 56 59 62 64 66 67 70 74 81 85 83 79 78 77 82 83 76 70 66 63 62 57 55 54 55 52 48 46 52 54 55 59
66 65 56 46 46 41 39 39 39 39 41 44 46 46 53 53 55 58 59 59 62 65 71 71 72 72 70 74 75 77 79 77 73 69 67 63 59 59 59 59 54 53 50 51 54 59 59
70 65 60 51 43 38 36 34 36 37 37 39 45 45 50 50 53 54 55 56 55 57 60 64 67 68 72 74 74 75 77 77 74 71 69 66 62 62 61 64 60 59 57 55 60 60 62
75 68 61 50 45 41 36 33 33 35 35 37 41 45 48 51 52 54 54 51 47 51 58 63 66 69 70 72 73 74 75 75 75 73 71 68 65 64 63 66 64 64 63 59 61 61 62
77 71 65 54 43 39 38 36 36 35 37 35 38 47 49 52 53 53 50 48 43 48 55 63 68 70 70 71 72 72 73 74 73 73 74 69 68 69 67 71 69 69 66 62 60 64 63
81 72 64 57 53 44 42 43 43 42 41 40 39 42 50 53 54 51 48 45 42 44 56 63 68 68 69 71 71 72 72 72 72 72 74 72 69 69 74 76 77 75 72 67 66 66 65
85 75 69 56 51 56 55 52 51 52 48 47 45 44 48 54 55 53 48 45 44 43 56 60 66 67 67 69 70 72 73 71 70 73 74 73 72 75 78 79 79 78 76 72 68 73 68
91 80 75 67 63 61 63 67 66 64 62 57 52 50 50 51 59 55 52 51 46 39 50 61 64 67 68 66 64 68 67 69 70 69 74 76 77 78 80 82 83 83 81 80 74 76 70
96 87 82 75 70 72 67 60 58 55 63 68 63 59 56 54 56 58 57 54 52 44 41 53 63 68 68 69 68 71 70 70 70 72 76 77 80 81 81 81 86 88 88 89 84 79 74
101 92 86 81 76 72 61 53 48 44 45 53 61 67 66 61 53 53 64 63 54 49 44 41 43 59 62 67 70 69 66 65 66 71 72 70 73 79 77 79 82 81 91 94 93 84 77
105 96 91 82 79 69 58 48 42 39 37 41 49 57 71 68 57 56 66 63 57 56 47 43 41 42 46 50 54 57 58 57 58 59 60 64 67 69 76 82 82 81 82 86 87 84 69
106 99 93 85 80 67 57 48 38 34 33 34 41 48 59 73 62 60 62 61 59 56 52 48 47 44 42 41 42 44 47 50 53 57 59 63 70 76 78 81 76 72 74 77 75 72 58
109 101 95 87 79 67 57 47 36 27 26 32 35 41 52 62 66 67 62 57 55 52 54 54 52 49 48 45 44 46 49 52 55 58 61 67 70 72 64 65 63 61 69 71 71 67 65
110 101 96 88 78 66 57 45 33 23 21 27 31 36 46 56 70 69 63 56 49 51 55 57 56 53 47 43 44 47 51 54 57 61 64 63 58 58 64 66 68 67 69 76 73 72 75
110 101 96 90 77 67 57 46 33 21 16 22 29 33 38 44 62 70 65 59 53 53 55 53 53 49 46 43 45 50 52 55 58 60 57 50 50 61 71 69 69 69 72 75 73 73 69
110 100 93 88 76 66 54 45 31 18 16 24 28 31 38 49 58 67 69 58 57 57 55 50 47 44 44 43 48 50 53 55 56 52 46 48 55 59 63 53 47 45 43 48 52 56 52
109 99 91 85 74 64 51 40 24 14 13 19 21 27 36 43 49 44 60 65 63 58 54 52 47 45 44 44 48 49 53 52 45 45 47 50 38 31 43 48 39 42 43 42 41 39 38
108 99 90 82 71 61 48 34 17 9 13 18 21 26 32 36 41 45 56 64 64 60 56 51 48 45 44 47 47 48 45 40 43 43 35 18 25 32 22 26 22 24 25 23 22 20 24
107 98 88 80 69 57 44 29 12 7 12 18 21 24 29 32 42 47 54 60 64 61 57 52 48 45 45 46 46 40 34 39 36 24 12 13 13 7 3 8 13 12 11 9 6 5 11
105 95 87 78 66 55 40 25 9 5 9 15 17 22 28 29 31 29 37 45 52 56 56 54 51 48 45 46 34 30 28 31 23 19 20 17 17 14 21 23 23 21 18 16 16 11 4
103 92 84 75 63 52 37 20 7 3 6 11 15 17 18 22 26 30 32 37 43 49 52 50 50 46 45 29 27 24 27 24 26 25 26 21 25 25 17 27 24 24 17 21 18 16 11
101 90 82 72 60 50 35 16 5 0 5 11 19 21 25 25 26 30 33 34 36 39 40 41 42 37 27 28 20 23 26 26 32 31 28 26 18 19 17 19 27 27 23 28 25 15 12
98 88 80 69 58 47 33 15 4 4 9 14 19 21 22 25 30 31 32 36 36 38 39 35 31 29 26 16 20 31 32 37 35 34 30 27 15 25 19 23 25 22 25 29 29 25 18
93 85 77 66 56 44 31 15 5 4 9 13 16 18 26 27 30 36 38 40 41 40 37 33 30 24 17 19 27 23 46 46 40 36 33 23 23 20 27 24 22 19 20 15 23 14 22
87 80 74 63 54 41 29 16 7 5 9 14 20 24 29 33 38 42 44 46 44 40 33 29 22 19 18 23 25 29 34 32 29 37 36 25 29 27 26 24 24 20 21 14 15 15 21
83 74 71 59 51 38 27 17 6 7 13 16 24 30 38 43 44 48 48 44 41 34 29 24 22 20 22 27 25 24 28 35 33 40 35 29 26 30 23 23 23 22 18 15 11 6 11
80 70 67 55 48 36 24 16 8 10 14 19 27 39 48 46 51 50 47 42 37 33 26 24 23 18 21 30 27 26 30 23 27 21 24 34 31 34 28 25 25 22 19 18 10 5 3
77 68 62 52 46 34 22 14 11 13 17 23 32 45 49 52 51 49 44 39 34 30 27 25 24 18 23 33 35 26 26 16 17 30 18 24 31 29 28 28 22 20 16 13 14 8 11

GFSGBSN_250_spd_033.txt.gz
Wind_Speed
88 81 68 58 52 46 42 39 38 38 38 38 43 48 54 58 61 63 66 68 71 76 79 82 82 82 77 76 73 74 71 70 70 72 71 68 65 64 58 54 50 45 48 49 53 54 58
91 84 74 64 55 48 44 39 39 38 37 37 38 43 47 51 57 60 61 64 69 71 74 77 77 79 81 79 76 77 75 73 74 74 75 74 71 67 62 61 52 48 50 50 50 53 54
92 85 78 66 60 55 46 41 40 39 39 37 36 37 41 47 50 55 59 62 64 68 73 73 74 75 76 80 79 79 77 78 79 79 79 78 74 72 67 64 60 55 52 54 58 58 54
95 88 81 70 62 58 51 45 41 41 40 41 38 36 38 43 48 52 57 61 64 65 68 68 66 70 75 77 80 81 80 81 82 84 84 83 79 78 71 66 65 63 59 61 62 60 57
98 92 85 71 65 60 55 47 45 42 43 42 41 41 37 40 45 49 54 58 60 59 60 62 61 62 63 69 74 79 81 84 86 85 82 80 77 75 73 70 69 68 63 63 63 64 63
100 94 87 77 68 66 57 47 47 45 46 47 48 45 44 40 42 46 52 55 54 54 53 55 56 57 63 73 79 82 83 85 84 81 79 77 74 71 71 75 71 67 66 64 66 70 68
102 97 90 79 70 65 57 55 55 52 56 54 54 53 48 46 43 46 48 51 52 53 55 57 54 54 61 65 68 70 73 76 77 76 75 70 69 73 77 76 74 73 71 69 70 73 76
105 99 91 82 74 69 59 59 61 59 57 61 61 59 55 53 49 45 48 52 56 56 53 53 51 49 52 57 61 66 68 72 73 73 71 70 71 74 77 79 78 76 74 74 74 78 77
109 103 95 87 78 71 66 62 54 49 47 46 55 59 62 59 54 47 49 56 57 56 50 48 46 44 46 53 61 66 69 70 70 70 72 72 73 75 76 76 75 77 78 81 83 84 81
113 107 100 91 82 73 68 59 49 44 41 40 44 49 64 63 56 52 51 56 61 56 50 47 43 39 43 53 62 66 66 67 67 68 69 69 72 70 71 73 79 80 84 88 88 88 85
117 110 102 94 84 77 69 58 50 43 37 36 37 43 52 63 60 53 51 59 61 59 51 45 38 36 43 49 60 60 62 63 65 67 69 70 71 71 72 79 83 84 86 88 91 93 90
118 112 105 97 87 80 69 58 51 40 33 32 33 37 43 59 62 58 58 62 58 58 51 44 40 35 38 48 56 57 59 59 63 64 64 66 67 70 74 78 79 82 84 85 87 87 75
121 113 107 99 89 82 72 61 52 37 28 27 30 32 39 53 67 63 63 61 53 53 52 47 42 39 36 38 49 53 56 59 60 61 63 64 66 70 71 67 68 73 78 81 83 84 72
121 113 107 99 90 83 71 62 52 35 23 21 25 30 38 47 57 64 65 58 53 53 54 51 47 42 37 34 36 40 45 49 48 48 50 51 54 56 60 64 71 77 83 87 79 76 68
121 113 106 99 91 83 71 63 50 35 21 16 21 29 37 42 58 60 68 56 51 56 56 56 52 47 41 38 36 35 36 35 38 39 41 45 51 56 63 66 76 81 80 75 69 70 65
121 113 105 99 90 81 70 62 49 34 20 10 18 27 34 40 51 59 65 58 54 58 60 54 54 50 46 42 39 38 37 39 38 42 45 48 50 59 63 68 70 69 70 70 67 64 62
120 113 104 97 89 78 68 60 45 35 21 7 15 26 32 38 40 48 50 59 59 57 54 55 52 51 48 44 41 41 42 37 42 43 47 49 54 60 57 58 61 59 58 54 49 45 44
119 113 103 96 87 76 65 56 42 34 21 6 12 20 26 30 36 38 43 64 64 56 53 52 51 47 45 45 44 43 40 39 43 43 48 50 52 50 50 41 41 42 45 47 46 43 40
117 111 102 94 85 74 63 53 40 31 16 8 11 20 25 28 30 35 47 60 62 56 52 47 44 43 42 41 40 38 39 38 40 45 47 45 44 33 29 29 30 34 25 25 23 28 32
115 109 101 91 83 71 61 49 37 27 14 5 12 15 20 27 33 39 44 53 59 57 50 45 42 41 39 38 36 37 34 38 41 42 38 37 26 20 16 13 16 21 30 30 29 24 20
112 107 100 89 80 70 59 47 34 23 12 4 7 16 22 23 27 31 36 46 56 55 50 46 43 40 38 36 36 33 34 40 38 33 32 21 13 5 11 17 18 29 30 37 37 32 19
109 104 97 87 79 68 58 46 33 21 9 3 5 11 18 22 23 26 29 36 50 55 52 48 43 42 41 37 36 34 37 35 29 28 21 11 4 7 18 24 23 27 26 35 37 39 28
105 102 94 85 76 67 56 43 31 20 8 1 7 12 15 17 21 25 30 38 47 56 56 51 48 46 42 40 37 36 34 29 29 26 22 13 7 10 23 23 18 21 27 33 36 36 33
101 98 93 82 73 65 56 44 29 19 8 0 7 15 20 21 25 26 31 37 43 49 51 51 50 46 43 41 39 36 29 29 25 22 26 18 10 18 22 16 17 13 22 34 38 34 42
98 94 90 80 72 63 53 43 29 18 9 3 6 10 19 22 25 27 28 33 37 41 44 49 50 46 42 39 35 32 31 27 26 33 25 21 20 18 9 15 8 17 24 33 32 32 38
93 90 85 78 71 61 51 39 25 15 8 5 9 15 21 24 25 27 29 31 35 38 40 42 39 39 35 32 32 32 28 28 33 38 27 21 19 19 11 10 6 11 16 24 28 31 34
89 86 81 74 68 60 48 36 23 14 10 7 11 17 21 24 27 29 32 34 34 34 34 35 36 34 30 29 28 30 31 36 39 33 28 22 22 19 16 12 6 2 5 11 16 18 24
84 81 77 69 65 57 46 34 21 14 9 9 12 17 21 27 31 35 35 36 37 40 39 35 32 29 26 29 30 29 25 44 44 36 24 23 26 22 16 12 11 11 6 3 5 6 9
81 78 72 66 62 53 42 31 20 12 9 9 13 18 24 30 35 38 41 44 41 38 35 31 26 22 27 34 35 31 30 41 43 32 21 14 23 18 16 15 13 15 10 11 9 7 6

GFSGBSN_250_spd_036.txt.gz
Wind_Speed
99 92 86 83 73 64 55 50 45 39 38 38 38 36 38 47 56 61 64 69 69 71 76 78 84 84 86 86 83 82 79 80 81 80 80 77 74 71 71 70 68 60 58 55 53 55 55
103 96 89 86 77 68 58 52 47 42 37 38 39 38 39 42 49 55 59 63 67 69 71 73 78 84 86 86 84 84 82 80 79 77 77 79 79 76 74 74 67 60 61 58 57 58 55
104 98 92 87 80 71 63 56 50 43 39 36 39 41 41 41 43 49 54 58 62 65 70 73 73 79 83 85 84 82 81 79 77 75 73 72 73 73 73 72 67 64 60 58 62 61 54
106 101 97 93 84 74 66 58 54 46 40 39 38 41 44 43 43 44 48 54 57 61 65 69 74 76 79 82 80 80 79 78 77 76 73 71 71 72 72 71 69 66 66 64 66 64 59
107 104 98 93 85 76 70 65 57 48 46 43 44 42 44 46 43 43 46 50 54 58 63 67 72 74 76 80 80 81 82 79 79 78 77 75 75 75 75 76 74 73 71 67 68 67 68
111 107 100 95 87 77 67 61 56 55 57 53 54 51 49 48 49 46 45 49 51 54 59 63 69 73 75 79 77 77 78 77 76 80 80 79 77 75 79 80 79 77 75 77 75 70 72
114 110 105 99 91 83 72 63 54 55 60 63 58 61 58 54 53 52 49 42 47 51 59 68 70 69 73 75 74 75 74 75 75 75 80 78 76 79 80 80 81 82 80 78 75 74 74
116 113 109 104 97 87 74 65 59 57 55 53 49 49 57 57 58 56 47 39 50 60 61 63 66 65 68 71 72 69 67 67 69 74 78 79 79 81 83 84 83 83 80 77 76 76 74
119 115 113 107 100 90 77 67 62 56 50 48 45 45 49 50 59 57 49 47 55 55 58 57 60 58 57 56 56 56 56 59 62 66 73 76 80 83 85 87 87 84 78 78 78 77 75
121 116 116 108 101 93 80 72 63 55 48 43 40 40 43 44 52 59 53 53 54 55 55 53 54 52 50 52 51 52 56 62 67 73 76 79 81 81 81 83 82 77 75 76 79 80 80
123 118 118 110 103 92 81 75 66 56 47 38 34 34 36 40 48 57 60 57 57 57 53 52 51 50 49 49 52 52 54 53 54 58 61 63 67 69 72 75 72 73 74 77 78 79 79
124 120 118 111 102 93 82 76 66 57 45 35 30 27 32 39 43 59 63 60 59 52 51 50 52 50 47 47 47 46 44 45 51 52 55 58 62 65 67 68 68 69 73 77 79 82 80
126 123 120 112 102 91 83 75 66 56 42 32 24 20 28 38 45 59 67 66 56 48 52 53 54 51 47 44 40 38 41 44 47 50 53 54 56 60 63 65 67 71 75 77 80 82 79
126 123 120 111 100 89 82 73 64 51 37 28 18 17 27 35 43 57 63 63 50 49 53 55 54 50 44 38 33 33 39 44 46 47 50 51 54 57 62 63 66 68 70 75 73 74 74
125 121 117 110 97 87 80 72 63 47 33 23 16 14 23 33 43 53 61 57 49 52 55 58 56 51 43 37 31 30 33 36 40 42 45 50 54 55 55 54 54 54 60 67 70 76 78
125 120 116 108 95 84 78 69 59 43 31 22 13 11 18 31 39 48 56 56 53 53 54 55 55 50 46 38 32 28 26 28 31 35 39 43 41 43 42 45 49 53 62 70 76 76 77
123 119 115 104 92 82 76 67 55 40 33 21 9 5 14 26 34 42 49 55 57 57 51 52 54 51 45 38 33 29 28 26 27 29 29 31 36 40 44 46 52 57 66 65 64 60 59
122 118 113 101 89 80 73 63 52 38 32 18 7 3 13 23 29 34 48 60 59 56 46 51 52 49 44 40 38 35 31 29 31 30 32 34 37 40 44 49 54 53 41 40 46 51 52
120 115 111 98 85 77 70 60 49 36 27 16 10 5 12 21 28 32 47 58 57 51 47 46 47 47 46 43 40 37 35 34 33 33 34 34 36 41 46 45 31 23 32 27 24 27 37
118 114 108 94 83 75 67 58 46 34 25 15 9 7 16 22 32 39 52 57 57 50 45 44 45 45 44 43 41 39 35 34 35 34 31 32 36 42 31 14 13 14 16 21 30 29 29
115 111 104 90 80 75 66 56 43 33 25 16 8 5 13 23 30 36 45 55 56 53 47 44 43 41 44 42 41 35 33 34 32 29 29 32 33 16 3 6 10 19 19 25 30 37 29
111 108 100 86 77 74 66 57 43 31 23 13 6 2 14 18 26 33 38 44 51 55 51 45 41 39 40 42 40 36 34 32 27 27 28 28 10 7 4 6 10 19 22 27 33 38 26
105 104 95 83 74 72 64 54 43 30 21 13 2 5 11 18 22 28 35 40 50 58 55 48 45 43 41 38 36 34 33 26 25 24 23 15 8 10 3 9 7 17 20 26 34 40 43
99 99 91 80 71 71 61 51 42 29 21 11 2 7 13 19 23 27 32 40 49 56 57 53 49 44 41 38 35 33 30 26 25 20 13 11 13 13 7 5 13 15 19 24 36 42 43
94 90 85 78 71 68 60 52 42 29 19 11 3 7 14 18 23 28 34 40 48 56 60 56 51 47 43 40 36 32 31 27 24 18 15 17 15 13 15 4 14 14 19 24 29 42 41
87 81 79 75 71 67 61 52 42 28 18 11 6 6 13 16 22 25 28 35 43 51 57 55 54 50 45 40 37 34 32 29 25 18 23 23 18 17 14 5 3 6 11 19 28 30 38
80 75 72 70 69 67 59 51 40 28 16 9 6 7 9 14 20 24 27 32 38 44 50 53 52 48 44 40 38 35 34 30 25 23 27 29 23 20 15 9 1 4 7 11 16 18 25
76 70 68 64 66 63 56 49 38 25 13 6 7 7 11 14 19 22 23 27 31 36 40 43 44 43 42 38 38 38 34 29 27 29 33 28 23 18 17 16 11 8 7 7 8 14 15
72 66 65 59 61 60 52 45 36 24 12 7 6 9 12 15 18 20 23 27 30 32 34 35 36 36 35 35 35 33 29 28 30 33 35 31 24 15 14 11 12 10 9 9 10 14 14

GFSGBSN_250_spd_039.txt.gz
Wind_Speed
101 101 100 97 92 86 79 74 68 58 49 47 43 43 44 44 44 48 56 64 68 73 76 86 89 87 89 88 88 89 86 86 86 82 80 78 78 77 75 72 74 77 76 74 70 67 70
102 103 104 100 94 93 86 80 72 63 54 47 43 39 42 44 45 45 49 60 65 71 75 79 85 86 87 85 87 88 89 85 86 87 85 84 83 80 76 72 73 72 76 77 77 72 68
104 105 106 104 103 99 91 82 75 66 59 51 43 40 38 43 45 43 45 54 61 67 72 76 79 81 86 85 86 87 89 90 87 85 85 87 83 82 80 79 78 77 80 79 76 74 67
107 107 108 104 100 98 93 83 73 67 64 56 48 43 41 40 43 45 44 48 56 62 68 75 78 78 78 82 84 86 86 86 89 90 85 86 86 86 85 81 82 80 78 76 75 77 72
111 112 112 110 104 99 94 84 72 62 59 58 59 53 49 44 45 45 45 47 52 59 64 70 76 76 74 79 78 86 84 84 84 84 84 84 83 81 82 84 82 80 80 80 78 78 70
114 116 116 114 108 102 97 89 75 65 57 55 59 66 62 55 47 46 47 49 51 54 60 64 69 74 75 75 77 75 86 86 85 83 82 83 81 80 81 80 80 79 76 76 74 74 72
116 120 119 116 110 105 100 93 80 69 65 62 59 56 55 53 53 50 52 54 49 43 53 61 67 68 76 77 79 77 77 82 83 81 82 82 79 81 82 77 77 76 76 75 77 77 76
120 121 121 119 114 106 102 94 84 73 65 56 50 46 44 44 51 49 55 54 40 49 62 64 63 62 66 71 74 76 74 75 81 81 78 76 78 77 77 77 77 78 78 79 79 80 78
122 123 123 122 114 107 102 96 88 76 65 55 49 44 39 40 47 45 55 52 49 57 52 55 58 58 59 62 64 68 71 72 75 76 71 74 76 78 79 77 80 82 80 82 82 81 80
122 123 125 123 116 109 105 98 87 77 64 57 47 38 32 33 40 43 54 54 57 54 51 51 54 56 56 56 60 63 66 67 70 73 73 71 74 75 75 77 79 81 83 85 83 82 82
122 124 126 124 115 109 104 96 85 74 64 55 44 33 24 26 32 41 53 59 58 57 53 49 51 53 56 56 56 61 64 66 70 72 77 76 75 76 79 80 79 81 81 83 83 84 85
124 124 125 122 112 107 103 95 82 70 61 51 40 29 18 22 29 39 49 61 63 61 45 44 49 50 52 53 56 56 54 57 64 64 62 63 64 67 68 70 73 75 77 82 84 85 84
123 124 124 121 110 106 102 94 79 68 56 47 35 23 12 17 26 41 50 66 67 48 41 45 47 48 48 49 49 46 46 48 48 50 53 55 63 66 68 72 74 75 77 79 80 79 73
125 124 122 118 108 105 101 90 77 65 53 42 29 17 7 15 29 39 50 61 56 40 43 45 46 45 44 45 43 42 44 45 47 51 55 56 57 55 55 52 52 54 56 62 60 66 67
125 123 120 115 104 102 97 86 73 63 50 37 26 13 4 12 25 36 47 54 47 45 45 46 45 43 43 44 44 42 42 44 45 47 45 41 39 39 39 40 43 47 50 57 59 61 60
125 122 117 111 100 99 93 82 70 59 45 37 26 13 1 12 23 35 42 51 50 46 46 46 47 46 46 47 44 40 38 36 38 36 32 33 32 34 39 38 37 40 48 51 50 52 60
123 120 113 107 98 97 88 77 66 55 42 34 24 11 1 10 20 33 36 48 51 50 46 45 47 46 46 45 39 34 30 28 29 28 28 31 30 34 29 26 33 36 43 47 52 59 66
120 118 109 103 96 94 85 74 62 51 39 30 20 8 3 12 22 34 45 54 52 48 43 43 46 46 45 44 39 33 27 24 24 23 22 23 25 25 23 27 32 40 45 50 56 48 47
116 113 106 98 94 91 80 70 59 50 37 27 16 7 7 13 20 32 45 56 51 45 43 43 46 47 46 43 38 31 28 25 22 21 21 20 22 24 27 31 35 41 42 27 26 28 32
111 107 101 94 93 88 75 65 57 48 38 25 16 10 6 15 23 34 46 50 48 43 43 42 44 45 46 42 40 33 29 26 24 22 21 21 22 24 28 31 36 25 19 11 15 21 24
106 102 95 91 91 86 73 61 54 48 38 26 17 9 5 14 24 28 36 40 45 43 40 41 44 44 44 44 39 34 31 30 27 25 23 22 23 25 28 31 19 10 8 22 26 22 27
99 95 89 87 88 81 70 59 52 46 37 27 15 7 2 13 22 25 32 40 44 41 38 36 40 41 42 41 39 37 35 32 28 25 22 22 21 26 26 15 4 4 10 18 23 27 30
92 90 87 85 83 77 67 58 50 44 36 25 14 5 3 11 21 29 37 44 47 43 40 39 40 40 38 37 37 35 34 31 25 22 21 20 21 15 12 7 10 6 9 14 28 29 26
84 86 84 83 79 72 63 53 50 42 35 26 14 5 4 13 18 24 35 48 50 48 44 41 38 39 39 38 36 35 34 31 27 23 20 20 11 13 9 11 11 2 10 13 20 28 26
78 81 81 80 76 69 59 51 48 42 33 24 14 8 5 15 24 29 35 43 51 50 49 46 42 43 39 35 34 33 32 29 26 22 19 12 10 15 5 14 10 2 9 15 24 27 33
75 78 75 75 75 68 58 50 45 42 34 26 17 7 7 11 20 28 33 40 49 54 55 53 50 46 41 38 36 35 33 29 24 20 16 11 16 16 9 15 7 6 10 12 17 24 28
71 72 70 70 71 68 58 48 44 41 33 24 19 10 7 11 17 26 31 37 45 54 60 59 55 50 46 42 39 37 34 28 24 20 16 20 22 18 14 14 9 4 6 13 15 17 24
67 68 65 66 64 66 55 47 43 42 34 24 19 12 8 10 14 20 25 30 38 46 53 59 59 54 48 45 41 38 35 29 25 20 17 23 24 23 19 16 13 10 14 15 14 15 13
64 66 63 62 59 58 53 44 40 39 33 25 18 12 10 12 13 17 21 24 30 38 43 49 56 54 49 45 41 37 37 30 25 22 23 23 27 28 14 13 14 18 20 16 13 18 17

GFSGBSN_250_spd_042.txt.gz
Wind_Speed
104 107 108 107 108 109 105 100 91 83 78 71 63 54 52 45 42 46 48 54 62 68 75 82 83 88 91 93 92 94 92 91 87 81 77 76 77 77 77 71 71 68 65 69 68 69 72
105 108 111 111 111 114 109 104 94 86 80 74 69 62 51 48 45 45 48 49 58 65 70 78 82 85 89 91 87 94 93 91 91 88 83 78 78 78 73 70 71 68 67 70 70 71 72
107 109 112 113 114 116 109 107 98 90 83 77 74 68 57 47 47 45 47 49 52 59 66 74 79 81 85 91 90 91 91 93 89 89 90 87 78 77 76 77 76 73 73 74 72 74 77
111 111 114 116 116 118 113 108 101 92 84 78 71 71 70 59 49 49 47 50 50 54 61 69 77 78 82 86 94 92 88 90 91 91 89 89 87 80 81 77 78 79 77 77 78 76 75
112 114 117 117 118 121 118 111 102 94 87 79 72 66 66 71 60 51 50 50 50 54 58 63 70 73 78 83 91 92 91 86 85 89 82 84 88 87 85 82 82 81 80 82 82 79 77
114 116 120 119 119 123 119 110 104 96 87 78 72 65 58 58 62 49 49 52 53 55 56 57 60 69 72 79 83 89 91 90 83 83 84 83 87 85 87 88 86 84 84 83 81 79 79
117 120 121 121 121 124 120 111 106 99 88 81 72 64 55 49 50 47 44 56 57 57 51 50 58 63 75 79 81 82 88 89 88 85 85 81 82 82 88 84 88 86 85 85 86 85 85
117 119 122 122 123 126 121 112 105 98 87 81 71 60 46 37 38 42 41 52 61 53 46 49 50 53 68 75 76 79 80 81 80 82 83 80 81 83 86 86 85 83 85 85 85 85 83
117 119 124 124 125 126 119 110 104 97 87 80 69 52 42 32 29 34 39 45 60 49 48 52 48 51 59 68 74 76 77 75 76 73 78 81 79 78 79 80 81 80 82 84 84 82 80
119 121 125 124 125 126 118 109 103 95 87 79 65 50 40 30 25 27 36 43 58 49 51 50 41 44 51 56 67 71 75 74 72 72 71 76 80 78 75 78 76 73 74 77 79 81 77
119 122 124 124 127 125 116 108 102 93 85 75 60 49 37 27 21 21 32 50 48 48 50 45 43 41 44 51 56 60 66 71 73 74 72 70 77 83 79 77 76 73 71 75 76 74 72
121 124 125 125 126 122 113 106 100 91 83 68 54 45 33 23 16 20 32 40 42 50 50 39 37 37 38 45 48 50 54 61 65 67 68 67 67 71 78 77 75 71 72 75 75 75 75
121 124 125 126 125 119 109 102 96 89 79 65 50 40 30 19 12 18 27 33 43 47 38 37 37 35 39 45 44 43 45 49 51 53 59 64 66 67 67 69 70 67 70 74 77 77 78
120 123 125 126 122 115 105 99 92 86 75 60 46 37 26 12 5 14 21 32 38 38 36 36 35 33 37 44 44 42 42 41 44 47 52 55 57 62 66 70 72 74 76 77 73 71 71
119 120 125 125 120 109 104 99 92 85 72 55 44 35 22 7 3 9 21 35 42 41 38 37 32 30 36 40 42 43 43 43 43 42 44 46 51 55 59 60 60 61 60 63 65 69 69
117 119 123 123 115 106 101 95 89 82 69 51 41 32 20 9 7 14 27 37 45 42 39 36 34 32 37 40 39 38 38 37 36 36 36 38 40 41 45 49 50 54 54 50 48 44 43
114 117 121 118 110 103 99 93 86 79 65 47 37 29 17 8 11 19 28 34 44 41 38 34 30 28 32 37 39 37 32 30 30 32 36 36 38 42 47 44 37 32 30 31 31 38 38
111 115 117 113 105 99 95 89 83 76 60 42 33 27 15 7 12 16 26 37 41 41 35 31 29 29 33 33 32 30 29 29 29 30 32 34 37 37 27 22 19 23 23 27 32 41 48
109 111 112 107 100 96 91 86 80 72 56 39 33 25 13 8 13 21 27 41 41 38 34 32 30 32 34 34 34 33 29 24 23 24 26 26 26 20 17 14 17 20 25 30 39 43 42
107 106 105 101 97 94 87 82 76 70 54 38 31 23 12 9 14 24 36 42 41 36 32 28 29 33 35 34 33 30 26 21 19 19 19 19 17 14 12 15 20 23 27 28 27 23 26
104 100 97 94 94 90 86 78 73 68 53 38 29 22 13 5 12 17 26 37 37 35 31 28 30 33 35 34 31 29 25 22 20 18 17 14 13 13 14 17 20 25 16 13 9 12 16
99 94 90 89 88 85 83 77 69 67 54 37 29 23 11 4 12 14 15 30 32 31 31 30 32 34 35 35 33 31 27 22 21 18 16 14 14 14 14 18 18 13 13 1 8 15 21
93 87 83 85 84 80 77 75 66 60 56 40 28 22 13 2 8 15 25 29 35 34 30 29 30 32 34 33 33 31 29 25 21 18 16 15 13 13 17 16 11 14 3 4 13 20 23
86 81 77 80 79 78 73 70 65 54 48 39 29 21 11 1 11 20 28 34 35 35 33 32 33 34 33 33 33 32 30 27 23 20 16 12 13 15 17 9 16 9 2 7 17 22 28
78 76 70 74 74 76 72 66 63 55 43 34 29 17 12 6 12 24 33 38 39 39 37 34 34 35 34 33 32 31 30 28 23 19 16 15 15 16 12 13 15 10 1 7 16 21 27
72 69 65 68 70 72 71 63 60 55 45 35 25 16 11 8 14 23 33 40 43 41 40 38 37 37 36 34 32 29 27 24 21 18 17 17 15 9 14 21 21 12 5 11 14 20 21
67 64 62 64 64 67 69 65 56 53 46 38 26 17 11 10 13 20 28 41 46 44 45 43 41 40 38 36 33 30 26 22 21 21 21 18 12 14 14 18 19 9 8 14 18 16 19
64 61 60 61 61 62 64 63 57 52 45 37 28 16 12 10 15 19 24 34 43 48 50 50 47 44 42 40 36 32 29 27 25 23 19 15 13 19 19 15 16 14 15 17 14 12 21
61 57 58 59 58 59 58 56 56 51 45 38 29 17 12 12 14 18 22 30 37 46 50 51 50 48 45 42 38 37 34 30 27 23 19 13 17 24 19 19 11 12 16 15 14 21 22

GFSGBSN_250_spd_045.txt.gz
Wind_Speed
113 112 110 107 110 112 112 111 111 108 98 88 81 77 69 59 51 46 41 41 50 56 64 71 78 82 85 87 88 95 97 98 95 89 86 85 83 82 80 81 82 78 78 79 82 82 79
114 116 112 110 112 112 112 111 111 109 98 89 82 76 71 60 55 48 45 42 46 54 61 68 74 81 83 84 87 89 95 98 96 93 89 84 83 81 81 78 75 72 74 76 78 78 74
114 116 113 113 114 114 113 114 114 108 98 91 84 73 66 67 57 55 49 46 44 52 58 65 70 75 82 87 87 87 91 94 98 96 93 88 83 80 80 79 76 71 72 76 78 77 73
117 117 114 113 115 114 113 115 113 107 99 92 86 73 62 57 58 55 46 48 47 48 56 61 67 70 78 85 89 90 86 91 93 97 97 94 87 83 78 79 77 75 75 75 79 77 74
118 117 115 116 117 117 117 118 115 106 100 96 88 73 63 55 49 47 45 44 48 47 53 59 60 70 74 79 88 91 87 88 89 92 96 94 93 88 81 78 77 75 74 76 78 76 76
119 118 118 119 119 118 120 119 116 104 100 96 85 71 62 52 44 40 39 36 48 48 52 54 53 62 64 73 83 88 89 88 90 89 92 95 91 90 87 83 79 80 78 75 76 73 72
118 118 119 120 120 120 120 117 113 105 103 96 83 70 59 50 42 36 32 33 48 51 50 42 52 61 66 68 77 85 85 89 91 89 86 88 89 89 91 90 88 79 75 77 80 80 76
117 117 119 121 120 121 120 118 111 107 104 97 83 69 60 50 41 33 30 31 42 48 44 46 51 56 62 63 70 78 81 84 90 89 86 82 84 88 89 88 88 86 86 83 81 79 75
116 118 120 120 120 122 120 118 109 106 102 91 79 68 59 49 38 25 21 25 37 48 44 48 46 54 56 55 62 73 79 81 87 88 85 82 81 81 83 85 87 86 84 86 85 84 83
116 119 120 121 121 122 119 117 108 105 99 85 75 66 58 46 33 19 16 23 37 43 37 42 44 50 47 47 54 67 72 74 76 84 86 81 79 76 75 76 80 81 82 82 83 84 83
118 119 120 119 121 123 119 116 109 106 99 83 73 64 54 40 27 15 13 24 34 37 41 43 45 46 44 44 51 63 68 67 71 74 77 78 77 80 80 74 74 77 79 83 82 82 79
117 118 119 119 121 122 119 115 109 106 98 83 71 61 49 37 24 11 10 17 23 34 41 41 42 39 38 39 44 51 62 67 67 67 71 73 75 74 77 76 75 75 78 80 79 77 74
117 117 118 118 120 121 117 112 107 104 93 79 68 57 45 34 22 11 3 14 26 29 34 38 37 36 34 36 40 45 56 65 66 67 67 67 69 70 69 67 69 75 77 76 74 72 72
117 118 116 116 119 120 115 110 106 102 90 75 64 52 40 28 14 10 17 25 29 33 36 37 36 36 32 33 37 43 46 53 58 62 64 66 65 65 66 64 63 66 76 73 70 69 71
116 115 114 114 117 117 112 106 103 100 88 72 61 48 36 21 8 9 20 29 35 40 38 33 29 29 26 27 32 36 40 44 49 54 56 60 64 64 61 60 60 62 61 64 68 72 74
114 113 112 113 116 114 109 103 99 95 83 69 57 45 33 21 10 6 22 34 39 41 38 35 33 29 25 27 29 33 37 37 39 40 40 44 47 50 49 51 54 54 54 57 61 64 66
111 111 110 111 112 111 106 101 97 93 80 67 56 42 30 20 12 14 22 33 40 40 36 33 28 24 24 27 31 35 36 34 34 33 34 34 34 38 38 38 41 46 50 51 54 55 55
108 107 108 109 108 107 103 96 92 89 76 66 52 39 29 19 9 13 18 30 40 38 35 31 27 24 21 24 27 27 32 31 29 28 25 28 32 31 28 29 31 34 38 41 45 44 47
106 106 105 107 102 103 98 93 89 82 73 64 49 36 26 18 7 11 20 32 37 34 31 25 23 22 22 25 24 24 25 26 25 25 25 25 24 22 24 29 33 35 31 27 26 30 35
103 105 103 103 96 98 94 90 88 80 71 60 49 34 26 23 11 10 22 31 35 30 27 23 22 22 24 28 30 29 26 23 21 20 20 22 21 24 26 25 23 18 18 18 25 29 35
99 102 100 97 91 92 91 89 85 83 69 60 52 33 27 20 15 9 17 32 33 29 26 22 24 27 30 33 31 28 25 21 17 19 19 20 22 22 21 18 15 15 15 21 23 22 25
98 98 97 91 85 87 86 84 82 79 75 64 56 36 25 17 11 14 8 33 30 26 23 23 28 30 32 34 30 25 22 18 17 20 21 21 19 16 14 13 12 13 16 16 16 12 7
96 94 92 85 79 81 82 80 78 73 69 58 51 37 22 13 5 13 21 27 28 25 23 22 29 32 33 34 31 26 23 20 19 18 16 15 14 13 13 11 10 12 14 14 6 7 13
93 89 87 80 74 75 76 77 73 67 65 58 48 40 21 14 4 16 27 29 29 29 27 26 28 33 34 33 31 27 25 22 19 16 14 13 13 13 10 7 9 13 15 13 5 10 13
88 83 81 74 70 72 71 73 72 65 58 54 48 40 26 12 9 14 26 31 34 31 29 28 29 32 34 33 30 27 23 22 20 18 15 13 12 10 7 9 13 21 13 7 6 14 15
82 78 76 70 66 68 69 69 69 67 58 50 46 39 29 17 12 14 24 32 33 33 31 29 31 31 33 33 32 30 28 24 22 20 17 14 12 9 8 15 19 21 16 10 8 13 19
77 72 71 63 62 63 65 67 65 65 61 51 44 38 32 21 15 15 22 33 41 40 38 35 36 36 35 34 33 30 27 24 21 20 17 14 12 11 12 18 20 21 16 12 12 16 18
74 68 65 57 57 60 62 63 62 60 60 54 46 38 33 25 17 18 20 27 39 40 42 41 38 38 37 36 34 31 27 24 22 20 17 15 16 13 14 19 22 25 18 17 16 19 20
71 64 61 54 54 57 59 61 58 58 56 53 48 40 34 25 19 19 23 25 33 38 42 44 41 39 38 37 36 33 28 23 24 22 20 19 17 14 15 20 21 17 17 16 12 16 19

GFSGBSN_250_spd_048.txt.gz
Wind_Speed
104 108 111 108 109 111 111 111 107 106 99 90 84 80 74 69 67 61 47 44 41 45 51 58 67 76 83 89 94 96 102 108 105 100 98 98 98 99 96 94 94 89 88 88 90 91 87
108 110 111 110 110 111 113 112 110 107 101 90 87 82 75 67 58 60 56 43 42 43 48 55 64 72 80 86 94 93 96 104 108 103 100 96 94 94 97 95 90 87 88 88 86 86 86
109 112 112 111 112 114 116 114 113 109 101 93 90 86 77 65 54 52 52 49 41 44 48 52 61 69 77 87 90 92 95 98 104 107 100 96 96 90 91 90 88 88 87 87 86 88 86
111 113 112 112 114 117 116 114 115 108 99 93 91 86 76 64 51 42 40 46 37 44 48 51 56 63 74 81 88 92 91 93 97 103 107 103 94 92 89 88 86 84 84 84 88 89 87
112 113 113 115 117 119 117 115 114 108 99 96 92 86 75 60 44 35 31 34 34 43 49 52 51 60 74 77 86 90 91 91 94 96 103 106 101 94 90 88 86 82 80 81 83 82 83
112 113 116 117 121 119 117 117 115 107 101 97 94 86 73 56 42 33 26 27 31 40 49 51 48 57 66 75 81 86 90 89 92 95 95 102 102 100 92 86 83 83 83 81 79 78 75
113 115 118 119 122 117 115 116 115 107 101 97 92 85 69 54 46 33 23 23 28 36 43 42 43 47 62 71 75 80 85 87 90 91 90 91 98 95 94 89 88 85 81 77 76 76 73
114 116 119 121 120 115 116 118 115 108 102 100 92 83 66 56 48 33 21 19 23 29 36 41 46 51 60 68 74 78 79 83 85 85 87 84 89 98 97 96 92 86 79 78 79 77 72
116 118 120 120 117 114 117 120 115 108 104 102 94 82 63 58 48 31 17 14 21 28 36 41 48 49 53 61 67 71 74 79 86 87 85 82 83 93 96 95 92 90 85 82 80 75 72
116 118 121 118 114 114 118 121 116 108 104 101 93 78 63 57 43 28 14 10 21 27 36 45 47 46 45 53 60 66 67 72 77 83 86 81 80 78 86 91 92 90 88 86 85 80 74
115 119 121 115 113 115 119 121 115 106 103 98 88 73 62 54 39 22 10 5 16 23 35 47 48 43 43 47 52 54 57 63 67 77 83 82 79 75 77 81 86 88 85 85 87 86 83
116 119 118 114 114 116 117 120 113 106 103 96 85 68 61 52 37 15 5 5 12 24 37 44 42 36 36 42 44 45 52 59 63 68 79 80 81 78 74 74 75 81 84 85 82 83 81
117 119 115 115 115 115 116 117 111 103 101 94 83 66 57 47 39 22 3 16 20 26 35 36 33 36 39 41 37 41 47 51 56 64 73 79 76 77 75 72 69 73 78 80 79 80 81
116 118 113 113 114 114 114 117 109 102 98 92 79 63 51 43 36 21 7 21 30 35 35 37 33 36 36 35 35 40 42 46 55 61 65 70 68 69 75 74 69 68 67 68 70 73 73
116 114 111 112 113 113 112 114 105 100 95 89 76 60 49 40 29 15 12 27 33 36 35 30 31 33 28 27 30 31 36 42 51 55 58 58 59 63 65 71 72 69 66 70 71 72 72
116 111 109 111 114 112 109 110 102 96 93 86 71 55 49 39 29 15 5 20 35 36 36 35 31 27 27 27 29 32 34 40 47 53 53 53 54 57 59 61 61 60 61 62 63 62 64
113 108 108 111 113 110 105 105 98 91 88 81 66 53 47 38 28 12 6 18 32 38 38 35 32 31 26 26 28 30 31 34 37 45 49 50 49 51 52 53 53 55 56 55 53 53 53
107 105 106 109 111 107 102 101 95 85 84 80 66 52 44 35 26 13 3 19 32 34 32 29 24 18 18 24 24 24 26 28 29 34 39 41 41 43 47 51 52 53 52 53 49 50 53
101 102 105 108 109 103 98 97 92 80 75 74 64 52 40 32 24 14 6 24 31 31 31 28 25 24 23 20 20 23 25 26 27 28 30 31 31 31 31 31 34 36 37 36 38 40 40
98 100 103 105 104 99 94 93 89 81 78 72 64 52 39 28 21 15 6 21 27 28 26 23 23 21 24 28 28 27 28 27 27 27 27 26 26 26 28 30 30 29 28 29 30 33 37
96 98 101 101 99 95 88 90 87 79 73 68 60 52 40 28 21 10 17 19 23 25 22 22 24 24 27 26 26 26 28 26 26 25 24 24 24 25 26 27 25 25 26 25 26 27 28
93 96 99 96 92 88 82 84 84 76 68 62 56 47 40 24 14 7 19 22 23 21 20 21 24 26 28 30 32 33 31 28 26 24 23 23 24 24 23 21 21 22 20 20 21 25 22
92 95 96 91 85 81 77 78 78 75 68 61 52 44 38 26 18 3 18 21 22 21 20 22 25 28 33 35 34 30 25 22 22 23 24 23 22 23 22 21 19 18 18 19 18 18 16
93 94 93 86 81 75 72 72 73 70 66 58 51 40 33 30 16 13 16 23 26 25 24 25 28 32 35 36 31 26 25 24 23 24 24 24 23 21 18 15 16 16 15 18 19 16 13
92 92 89 81 76 70 68 68 70 68 64 58 52 41 31 27 24 13 18 25 27 26 26 27 30 33 34 33 31 30 27 26 25 22 22 20 18 16 16 16 14 14 18 23 27 23 16
90 88 83 77 71 67 63 63 65 65 63 58 53 46 32 25 24 20 17 24 29 29 28 28 33 35 37 36 34 32 29 25 22 21 20 17 16 16 17 13 12 14 21 23 20 17 16
87 82 78 72 68 62 59 61 61 63 59 55 53 49 37 27 23 23 21 22 31 36 33 32 33 37 39 38 36 34 31 28 25 22 20 17 17 16 14 11 11 18 27 24 20 18 14
80 76 74 67 63 59 57 58 60 59 57 54 54 49 41 29 24 24 24 26 30 39 38 39 36 36 38 39 38 35 33 31 27 24 23 21 19 17 13 12 15 22 26 26 23 17 19
74 73 70 64 60 55 55 56 57 56 52 52 53 50 41 32 26 22 23 27 29 30 39 36 38 37 36 37 38 36 36 32 29 27 25 23 21 18 16 15 18 21 27 28 24 21 21

GFSGBSN_250_spd_051.txt.gz
Wind_Speed
97 101 103 106 109 111 112 106 106 106 106 99 91 85 79 76 70 62 62 53 50 49 53 58 65 72 75 79 88 98 105 111 114 114 115 114 110 108 104 104 100 95 94 97 99 98 93
98 102 105 107 109 112 111 108 107 109 108 101 92 88 81 75 65 57 54 50 47 46 53 57 65 71 74 77 89 96 101 107 112 115 113 113 111 110 107 105 100 96 93 95 97 96 94
100 103 104 106 110 113 113 111 111 112 111 101 93 89 86 76 62 51 48 46 42 44 49 58 65 69 73 81 84 92 98 104 110 114 113 110 110 108 107 105 101 96 93 91 90 92 91
102 103 104 108 112 115 114 113 112 114 112 102 96 92 86 75 60 46 42 40 38 41 44 56 64 66 70 79 80 87 93 99 106 113 115 113 108 106 105 101 101 98 95 93 90 91 90
103 102 106 110 115 118 116 115 116 116 113 104 99 94 87 72 57 44 38 34 36 37 39 54 61 63 72 73 75 81 88 94 102 109 113 112 109 105 103 99 95 94 93 92 96 93 88
104 105 109 112 116 119 117 117 119 118 113 106 99 95 83 68 57 43 35 28 30 34 36 51 61 64 72 71 75 78 82 90 98 101 106 114 110 104 100 96 91 90 91 93 94 92 88
108 109 111 114 118 120 119 118 121 119 112 105 99 92 80 66 54 42 33 24 23 31 33 44 53 58 66 68 70 74 77 86 92 98 99 106 112 106 100 98 96 92 89 87 88 89 88
111 111 112 116 119 120 118 119 123 119 112 104 98 92 80 65 53 41 32 19 18 24 30 41 54 57 62 62 64 66 71 79 88 92 93 95 104 108 105 101 96 93 87 84 83 83 82
111 112 113 117 119 118 118 118 123 119 110 103 97 89 77 63 52 39 30 17 14 23 30 44 57 58 61 59 61 63 69 75 84 85 90 92 90 99 104 106 102 93 88 88 86 83 80
109 113 114 118 119 117 116 117 122 117 108 101 96 89 76 61 49 39 29 15 8 20 30 44 54 55 54 51 54 58 64 70 78 81 85 88 88 91 98 102 100 99 92 89 86 81 77
109 112 116 117 118 115 114 116 120 114 106 98 95 88 74 56 45 38 29 9 3 17 27 38 48 52 47 43 46 48 54 61 69 72 80 81 84 84 88 90 94 96 98 96 90 84 81
109 113 117 116 115 112 112 115 117 111 103 97 95 85 70 52 42 36 26 5 9 16 29 41 46 43 38 40 40 42 49 56 65 66 70 78 79 79 81 83 82 88 95 96 95 92 84
109 112 115 114 112 109 111 113 113 108 100 95 92 80 65 49 41 37 21 7 15 20 30 36 37 37 35 34 35 39 45 51 56 62 68 70 72 72 73 74 78 77 84 90 90 88 87
109 112 114 111 110 108 109 112 110 104 97 90 87 76 61 49 43 37 16 4 19 26 32 36 35 35 33 32 35 39 43 47 50 55 66 67 74 73 71 71 71 69 66 75 82 85 87
108 111 111 108 107 108 108 111 108 100 93 89 83 75 60 51 45 36 23 5 16 29 34 31 32 31 28 30 31 32 36 39 43 50 54 56 64 71 72 72 70 65 61 63 66 71 77
106 109 108 105 105 107 107 109 104 97 91 84 82 75 61 52 45 39 24 13 21 32 33 31 29 25 26 28 29 30 32 34 38 42 47 51 55 65 69 70 68 64 62 58 60 60 64
106 106 106 103 103 105 106 106 100 94 90 80 78 72 61 52 43 32 16 8 18 30 30 30 28 28 24 26 25 26 27 30 34 39 44 48 52 53 62 68 62 57 59 65 64 59 59
104 103 103 102 101 104 105 103 95 89 85 81 74 68 57 47 39 29 17 8 11 20 24 25 22 18 18 20 20 23 25 27 30 36 41 44 46 45 46 51 53 53 52 53 59 66 63
102 100 100 102 101 102 101 97 90 86 81 78 70 63 52 45 36 27 12 10 16 19 23 24 21 18 16 15 17 20 22 24 28 31 35 40 42 43 42 42 46 49 50 50 52 53 52
100 98 99 102 101 100 94 89 82 79 75 71 65 59 49 38 31 16 13 3 8 13 17 19 18 18 20 22 20 19 20 23 25 27 31 36 39 41 40 40 40 42 44 44 44 44 46
97 98 99 101 100 96 89 82 77 74 70 66 60 54 46 35 27 15 3 1 5 9 12 14 14 17 19 23 25 24 22 21 22 24 25 27 31 34 35 37 36 34 32 33 32 31 29
95 97 99 99 96 90 82 77 73 69 65 62 54 49 43 37 25 17 11 7 10 11 12 12 13 16 21 23 21 22 24 23 23 25 26 27 28 29 29 29 27 27 29 28 26 28 29
94 96 97 94 90 83 77 73 70 66 61 59 50 41 41 34 28 19 18 17 13 13 14 14 15 18 23 26 27 25 25 25 26 26 27 27 29 29 27 25 26 27 27 26 25 24 24
94 93 91 87 82 76 73 70 69 65 61 57 50 38 35 33 27 22 16 20 22 17 15 15 16 20 23 27 28 28 28 26 25 26 26 27 27 26 24 25 25 24 23 23 25 25 25
92 88 84 80 76 70 69 67 65 63 60 56 49 39 32 30 26 22 18 16 24 23 19 18 18 22 25 27 29 30 27 24 23 23 24 24 24 23 25 24 22 23 24 24 24 24 21
87 82 78 75 72 68 65 63 62 60 59 55 49 39 34 28 26 23 21 18 20 29 25 22 23 26 29 32 30 28 25 23 24 26 27 26 24 22 22 21 22 22 23 22 23 25 24
82 77 73 72 69 65 63 59 58 58 57 56 51 43 38 31 25 23 23 22 20 27 34 30 28 31 32 34 32 30 28 28 27 26 25 22 20 20 20 22 21 19 20 21 25 26 27
79 74 71 69 65 63 61 57 56 56 54 52 51 48 44 38 30 22 24 25 25 27 34 36 35 35 36 37 36 33 31 30 28 26 25 21 19 19 20 21 17 13 17 23 26 28 24
77 72 68 67 62 60 59 55 55 54 52 50 46 47 45 45 38 28 26 29 27 30 36 41 40 36 37 38 38 37 35 32 30 28 25 24 22 20 22 20 16 14 16 24 28 28 27

GFSGBSN_250_spd_054.txt.gz
Wind_Speed
94 97 99 101 104 107 109 111 109 104 103 106 104 93 86 80 79 74 67 58 54 51 51 57 59 67 73 74 80 92 101 107 111 120 122 119 116 112 109 110 110 105 101 99 100 97 93
95 99 102 104 105 108 112 113 109 105 105 108 102 94 87 83 78 70 61 53 48 44 46 50 54 63 68 71 81 87 95 103 108 116 122 120 116 115 113 109 108 107 105 102 102 100 95
97 101 103 105 106 110 114 112 109 106 108 110 101 94 89 85 77 66 55 47 44 41 41 43 45 57 62 69 79 82 91 99 103 110 118 121 119 117 115 112 106 103 105 104 100 100 98
98 103 106 107 108 111 113 111 110 109 111 110 100 94 89 85 73 61 50 44 39 39 39 36 39 51 61 71 76 78 87 95 101 106 113 119 118 117 116 112 112 105 103 100 101 98 97
99 104 108 108 109 112 114 111 111 111 112 109 100 94 89 81 69 56 49 41 36 34 34 32 37 48 63 70 76 78 85 92 96 101 107 114 121 115 114 109 110 107 102 99 100 102 96
102 106 111 109 110 113 115 110 112 112 113 109 100 94 88 78 67 55 47 39 31 26 27 29 35 48 65 67 69 76 81 88 90 94 101 108 116 117 109 108 102 101 99 100 101 100 97
105 109 111 109 111 113 114 111 111 113 113 109 100 93 89 80 65 55 48 35 27 19 21 24 35 56 62 64 66 71 78 83 86 90 93 100 108 111 112 102 103 103 100 102 101 96 93
108 112 109 109 112 114 114 111 112 113 114 109 100 93 91 79 65 54 43 28 21 13 16 27 42 54 60 63 67 70 73 77 81 84 91 96 101 107 109 111 104 99 98 93 95 96 92
109 113 110 111 112 114 113 112 113 114 114 107 100 94 88 73 62 47 36 27 16 8 18 34 44 49 58 59 54 64 69 73 77 82 89 90 95 101 110 109 106 97 97 98 96 92 89
109 113 110 112 113 114 114 113 115 115 111 105 96 90 81 70 56 40 31 26 14 3 19 30 39 49 57 57 59 62 65 69 73 78 85 87 90 97 101 107 108 103 96 96 95 90 84
112 111 111 112 113 114 113 112 114 114 109 99 90 85 77 65 48 37 36 28 10 5 18 28 40 47 49 49 52 54 58 62 68 72 76 79 85 87 89 100 106 106 102 94 94 91 87
113 111 111 111 112 113 112 113 113 112 106 96 90 82 77 61 44 39 39 24 9 6 13 19 30 40 41 44 47 51 50 52 60 66 65 71 78 80 82 86 96 104 102 98 92 88 84
110 110 109 111 111 110 110 113 113 108 104 94 87 81 76 60 45 40 38 29 12 10 12 22 34 38 38 39 38 41 44 48 55 58 53 61 69 75 79 80 83 87 99 101 99 92 85
109 108 108 110 109 109 110 114 111 104 100 94 87 82 76 64 51 44 41 25 14 15 19 24 31 32 32 32 36 38 41 43 50 53 54 58 64 69 71 74 77 75 76 85 99 98 96
105 105 107 108 106 106 110 111 107 99 96 92 86 81 76 66 54 49 39 27 15 20 26 27 28 31 31 31 31 31 35 40 44 47 47 50 56 61 65 69 69 70 72 75 76 86 96
103 104 105 105 103 104 107 107 101 93 89 87 83 81 76 66 55 52 41 24 12 21 27 29 30 25 26 26 26 27 28 31 34 37 38 43 55 57 57 61 64 64 65 66 69 71 73
102 104 103 102 102 102 104 101 95 88 83 83 78 74 71 63 54 47 38 25 12 10 15 17 15 19 20 20 21 22 22 25 28 31 35 40 48 54 55 56 57 57 58 58 60 63 68
101 100 100 100 100 101 99 94 88 82 78 78 74 69 66 60 51 44 37 29 16 12 11 12 13 12 11 13 14 14 19 22 26 30 34 39 43 49 53 56 57 59 61 60 58 57 60
99 98 98 97 98 97 93 87 81 78 75 71 72 65 60 54 45 40 33 29 19 12 8 9 11 11 12 13 15 16 19 22 25 27 32 37 42 44 52 48 48 51 61 61 59 58 54
99 98 98 96 94 92 87 81 76 74 69 66 65 64 57 50 42 34 30 26 17 12 6 2 4 7 9 11 13 14 15 19 22 26 29 33 38 41 44 43 42 44 50 51 50 48 49
99 96 97 94 90 86 82 76 71 70 64 62 59 58 54 48 39 31 27 25 20 11 8 5 2 3 6 9 12 15 17 19 21 23 28 32 33 33 34 35 34 33 35 36 36 39 43
100 97 95 90 84 81 77 71 68 66 62 59 55 53 51 45 41 31 23 22 24 21 13 10 7 6 8 11 12 13 15 16 18 21 23 27 30 32 35 36 38 36 35 36 38 41 35
101 97 92 85 81 78 74 68 65 63 59 57 54 50 43 43 39 33 23 17 17 19 19 16 12 10 10 11 13 14 16 18 20 22 24 26 27 30 33 33 34 34 35 33 30 28 23
101 96 89 82 79 76 70 65 61 60 58 54 51 47 42 36 35 33 25 18 15 16 20 18 15 13 12 15 16 17 16 17 19 21 22 23 24 23 23 23 23 24 24 23 21 21 23
98 93 86 79 76 75 69 63 59 57 56 53 49 45 41 35 31 31 28 22 16 15 17 20 18 16 15 18 19 20 20 20 20 21 22 23 22 21 21 21 21 22 21 21 23 23 22
93 89 82 77 74 73 68 62 57 55 55 53 49 45 40 34 30 28 28 26 20 16 19 20 23 20 18 19 22 22 23 22 23 23 23 23 22 22 21 22 23 22 22 22 22 22 24
90 84 79 75 72 70 65 60 56 55 54 52 49 46 41 36 33 27 24 26 26 21 21 24 24 23 22 22 24 25 25 24 23 24 25 26 24 23 23 22 22 22 22 22 22 24 26
87 82 78 74 71 69 63 58 55 54 54 50 47 46 44 41 37 33 26 22 27 27 24 26 28 28 28 25 27 29 28 25 23 25 26 25 25 24 22 21 21 21 21 21 23 27 29
84 80 77 74 70 68 63 58 54 52 52 48 44 45 45 45 40 38 34 23 26 33 31 28 33 33 32 30 32 31 30 27 27 26 26 24 23 20 20 21 21 19 19 18 23 28 28

GFSGBSN_250_spd_057.txt.gz
Wind_Speed
84 88 91 94 98 99 100 101 102 101 98 101 100 96 90 83 78 74 70 64 58 54 50 50 51 51 65 73 79 85 88 96 104 114 117 125 127 123 118 116 112 109 104 101 102 98 95
87 90 92 96 98 100 101 103 104 103 102 104 102 95 89 82 78 74 65 56 50 46 43 43 45 44 55 67 76 84 87 92 98 110 117 119 126 125 121 117 116 113 109 106 106 102 99
90 93 94 98 100 102 103 104 105 104 105 107 101 94 88 83 78 71 58 48 42 38 37 37 36 37 45 62 72 79 84 89 94 104 114 118 122 127 122 120 117 116 112 109 107 104 100
92 96 97 100 102 105 105 106 106 105 107 106 100 94 90 84 80 69 56 46 37 34 32 28 28 31 43 60 71 78 83 85 92 98 109 116 119 123 125 121 117 114 113 109 108 104 100
94 98 99 103 104 106 106 107 107 106 108 106 100 96 91 85 80 65 56 45 37 31 27 23 25 32 45 60 72 76 77 81 86 93 102 109 116 118 122 120 116 113 110 108 107 105 103
95 98 101 104 105 108 108 108 108 107 109 106 99 96 89 85 76 63 58 48 37 29 22 19 26 37 48 61 67 73 79 76 82 91 97 107 112 115 114 119 110 105 103 105 106 105 104
97 99 100 103 105 109 109 109 110 109 109 105 99 95 89 84 74 62 54 44 32 20 15 18 29 47 50 54 63 69 62 70 78 85 89 98 103 102 106 112 117 107 108 106 107 105 101
98 101 103 103 107 109 111 110 111 111 108 104 98 94 87 79 70 60 46 32 23 13 8 18 30 39 44 51 59 61 62 69 74 77 82 92 98 101 104 107 115 116 109 105 103 103 101
98 101 103 104 107 109 111 110 111 112 106 101 97 92 84 78 68 50 38 30 23 14 5 14 25 34 42 50 54 51 59 67 70 70 79 85 93 96 100 102 105 112 109 104 101 99 100
97 101 103 104 107 109 111 111 112 112 105 99 95 90 83 78 66 47 38 36 29 18 6 7 23 33 40 46 49 51 57 63 64 65 72 76 86 91 96 97 100 108 113 107 103 100 95
98 103 104 105 107 110 110 112 111 110 104 99 95 87 82 77 64 45 42 38 27 20 12 7 16 27 37 42 46 49 54 60 63 64 70 74 81 86 90 91 95 99 107 110 106 97 96
101 102 103 104 106 110 111 111 109 107 102 98 96 88 81 75 64 50 45 40 27 21 14 8 9 14 20 29 37 44 51 57 60 61 69 74 79 81 84 90 92 94 101 108 102 101 93
102 102 101 102 106 110 112 109 105 102 99 95 94 90 83 78 68 53 49 43 29 23 19 15 11 15 26 33 37 43 49 52 56 58 59 67 71 72 75 77 79 83 85 95 103 101 93
103 103 101 100 104 109 111 105 100 97 95 89 88 85 81 79 69 57 52 47 34 25 20 13 17 20 24 26 31 40 46 52 54 53 55 60 65 67 68 68 70 72 77 83 92 99 102
105 102 101 100 102 107 107 100 96 92 90 86 84 80 76 74 68 59 52 48 42 21 14 16 16 18 23 28 33 36 42 46 48 47 46 50 56 59 60 60 62 66 70 74 80 90 95
103 103 101 102 102 105 102 96 92 88 83 82 78 75 70 68 64 53 47 46 36 32 19 10 10 17 20 26 28 33 37 39 41 43 40 43 49 52 54 56 59 61 63 67 71 75 84
102 103 100 102 102 104 98 93 88 84 80 78 74 71 67 63 59 51 44 40 35 27 18 12 7 7 12 16 22 28 31 34 37 37 36 40 44 48 50 53 57 60 62 61 60 62 68
103 105 101 101 102 101 95 89 84 80 77 74 71 67 64 60 57 51 40 37 33 29 21 11 7 8 11 11 13 18 22 27 29 31 34 38 40 44 43 45 47 52 57 59 58 58 62
105 105 104 101 99 98 91 85 80 77 73 71 68 65 60 57 53 50 41 32 31 27 24 20 15 9 4 5 9 12 14 17 21 25 28 32 36 39 43 44 44 44 47 50 53 58 59
103 103 103 100 96 94 87 82 77 73 70 67 65 64 58 51 50 46 40 30 25 25 22 20 16 11 7 3 3 6 9 13 17 21 25 28 32 36 40 43 45 44 45 42 46 48 49
103 101 102 100 96 91 83 78 74 70 66 64 61 60 57 52 46 42 39 31 22 18 19 19 16 12 10 8 6 7 11 12 15 18 22 27 30 31 34 37 39 43 44 44 43 42 48
101 100 102 100 96 89 80 74 71 67 64 62 59 56 53 52 47 41 36 31 23 15 13 16 17 16 13 10 7 6 10 12 15 17 19 22 26 30 33 32 37 38 38 36 35 38 34
100 99 101 99 97 87 77 72 69 66 62 60 57 54 50 47 46 43 38 31 26 20 13 10 13 17 15 11 8 6 8 13 17 19 21 22 24 27 30 32 34 37 37 33 28 25 23
100 100 100 98 93 86 76 70 68 65 61 58 54 51 48 44 41 41 40 34 26 21 16 11 9 11 15 13 9 8 8 10 13 16 20 23 24 26 28 30 32 33 31 28 28 29 30
101 100 98 95 87 81 78 69 66 63 60 57 54 49 46 44 39 36 37 37 30 24 19 14 12 9 11 15 11 11 11 11 11 11 15 19 21 23 26 27 27 27 27 28 27 26 23
102 99 95 92 84 77 76 70 65 61 58 55 53 48 43 41 38 36 35 32 34 29 21 19 16 14 12 13 14 15 14 16 15 14 14 13 14 16 18 19 19 20 21 22 22 22 22
100 96 92 87 82 75 73 69 64 58 55 52 51 48 42 41 37 34 34 31 31 32 27 20 20 18 18 15 16 17 18 21 21 20 18 18 16 16 17 18 20 20 20 21 21 22 22
91 91 88 84 80 74 69 67 62 56 52 50 47 46 41 43 38 35 35 33 30 29 30 29 23 23 24 21 18 19 21 22 24 23 22 22 22 21 21 20 21 22 22 22 22 22 22
86 86 84 82 76 72 67 64 60 55 50 48 45 44 40 42 39 36 38 36 33 30 30 33 33 28 25 27 23 20 24 27 26 25 24 23 22 20 21 23 23 22 21 20 20 21 24

GFSGBSN_250_spd_060.txt.gz
Wind_Speed
79 82 88 89 93 93 94 97 98 97 97 97 95 89 84 79 75 70 66 61 56 52 51 53 54 53 47 57 78 92 91 93 102 110 117 122 129 125 122 118 113 109 106 103 103 102 100
82 85 89 91 93 95 96 98 99 98 98 98 93 88 84 82 76 72 65 56 46 41 42 44 46 44 41 50 79 93 94 93 98 107 115 121 127 130 126 123 118 114 110 108 106 105 102
84 88 91 92 94 97 96 100 101 99 99 98 94 90 87 83 77 71 61 48 39 34 31 34 36 37 38 55 71 90 91 91 95 102 112 118 127 130 130 126 123 118 115 113 109 106 103
87 88 91 93 95 97 99 100 102 101 101 100 95 92 89 84 79 69 57 46 39 32 27 26 28 34 47 52 66 84 87 88 93 100 106 115 121 129 133 129 126 124 120 116 114 110 105
89 93 95 95 99 100 101 102 104 102 100 99 95 93 91 85 79 66 56 50 42 33 25 20 27 35 41 53 62 78 85 85 91 95 101 109 116 120 131 133 130 127 122 119 116 111 108
94 95 95 96 99 101 103 102 105 103 100 99 95 92 91 83 75 66 55 47 38 28 20 17 22 33 44 53 58 67 75 79 86 92 97 105 112 117 120 131 128 123 120 120 119 114 110
97 100 101 99 101 102 103 102 105 103 100 99 94 92 90 84 76 64 51 39 29 22 14 10 19 33 46 52 55 62 67 75 79 85 93 99 106 110 112 119 127 125 120 120 122 119 113
97 99 102 100 104 104 102 101 106 103 100 101 96 93 90 85 77 65 48 36 26 18 10 5 14 29 39 44 53 59 66 64 70 80 88 93 97 102 106 114 121 126 125 119 120 118 116
96 98 101 103 105 106 103 102 107 103 102 101 96 92 89 83 76 62 44 38 29 20 15 8 9 22 33 39 47 57 60 69 74 77 82 85 88 92 98 104 115 118 126 123 116 116 115
94 97 101 103 105 106 104 102 108 104 102 102 98 92 89 83 77 64 47 41 31 26 25 14 12 23 31 36 42 45 53 62 62 69 75 76 79 82 88 96 108 114 116 124 119 113 110
94 99 103 105 104 106 105 102 107 104 99 101 98 93 89 83 77 66 50 45 35 28 32 19 12 18 26 34 38 46 55 55 56 59 64 66 69 74 77 85 98 108 112 115 122 116 109
96 101 103 106 103 103 104 104 105 103 98 97 95 91 88 84 78 70 57 47 42 30 29 26 19 10 20 28 35 44 51 53 54 54 58 62 65 70 74 80 89 99 105 109 113 119 109
94 102 103 103 103 104 103 104 104 99 96 93 92 89 86 82 79 73 62 49 49 46 30 28 25 22 17 28 35 41 42 43 47 53 59 61 64 68 71 75 82 93 97 100 103 111 113
95 99 98 100 101 102 103 103 102 97 92 89 87 84 81 77 74 70 62 53 52 46 41 27 21 22 20 21 28 32 32 35 40 46 52 55 57 61 65 70 76 80 87 91 95 99 103
93 94 96 99 102 101 102 104 100 95 87 86 83 80 76 72 69 64 55 48 45 40 34 29 17 14 18 20 24 25 28 31 35 40 42 44 50 52 52 61 65 69 79 85 91 94 94
92 95 98 99 101 101 103 103 98 91 85 82 79 75 72 69 64 59 52 42 41 38 31 25 20 11 6 17 19 23 25 26 27 32 36 41 45 46 48 49 55 60 65 69 79 86 86
94 96 97 105 104 102 103 101 96 87 83 78 76 73 68 64 60 56 53 40 31 32 30 24 16 9 4 6 14 20 22 24 27 30 29 31 36 42 44 45 46 50 55 61 66 71 75
90 99 98 104 105 103 100 99 94 84 82 78 74 71 66 62 58 54 49 43 31 25 25 24 20 12 4 6 11 15 22 24 25 24 26 30 33 38 42 44 43 43 47 53 58 62 66
87 98 102 103 105 103 100 96 93 83 80 75 73 67 64 59 56 53 47 41 33 23 20 20 18 15 9 3 7 13 19 23 25 27 28 28 33 37 42 42 42 43 44 48 52 55 58
94 96 101 105 101 101 98 93 89 81 78 74 71 67 61 58 53 49 45 40 35 26 16 13 14 14 12 7 1 7 12 18 23 26 28 31 31 34 38 40 41 41 43 44 46 51 54
94 98 98 107 102 98 92 89 86 78 75 74 69 64 58 55 53 48 45 39 34 28 21 13 9 10 11 7 4 6 11 13 17 21 23 27 29 31 33 37 40 39 40 40 44 46 49
94 94 98 102 101 96 91 85 84 78 72 70 67 62 57 52 49 47 43 39 36 31 26 18 9 5 7 8 4 4 7 13 17 19 21 24 27 30 32 34 40 42 42 41 38 38 37
93 94 97 99 92 91 89 82 79 75 71 67 64 59 54 51 47 44 43 39 34 30 25 21 15 9 5 6 6 4 4 9 13 17 20 23 26 29 30 32 35 39 42 40 38 37 38
96 96 98 92 85 85 85 82 77 73 68 65 61 56 52 48 46 44 41 38 36 30 26 21 17 13 9 5 6 5 5 7 10 13 17 19 22 26 29 28 29 30 30 33 34 31 30
96 96 97 91 82 82 82 81 78 71 67 63 59 54 49 46 44 43 41 37 35 32 28 24 18 15 13 8 4 5 7 7 9 12 13 17 21 24 26 29 30 31 32 32 28 27 27
94 102 88 86 80 78 79 78 76 73 66 62 57 53 49 44 41 41 40 37 34 32 28 25 21 16 14 14 10 7 10 10 10 12 13 14 17 20 24 27 29 30 32 36 35 34 32
97 98 83 79 77 75 76 75 73 72 67 60 55 51 48 44 39 40 39 36 36 32 30 26 23 18 16 16 17 13 13 15 14 15 15 16 16 17 22 25 27 29 30 31 31 31 30
102 86 88 80 73 72 75 74 71 69 67 58 54 50 45 46 39 40 39 37 34 30 29 31 27 22 21 19 19 20 17 19 19 19 19 20 20 21 21 20 22 25 27 28 29 29 28
81 88 87 77 68 70 73 73 70 66 62 59 53 49 44 45 42 41 39 36 34 33 31 29 31 30 25 23 22 24 24 22 23 25 23 22 22 23 26 27 27 28 27 28 29 29 27

GFSGBSN_250_spd_063.txt.gz
Wind_Speed
82 84 89 94 95 95 93 92 91 91 91 90 87 85 80 77 74 68 64 58 51 48 47 48 50 54 60 66 80 89 88 89 89 96 103 110 120 125 128 124 119 114 109 104 101 104 102
84 87 93 96 97 95 94 92 92 91 92 90 87 85 80 78 75 71 63 52 43 38 36 40 45 47 52 61 82 86 91 89 88 94 102 109 119 126 128 129 124 117 112 107 104 105 105
84 87 94 97 98 96 96 95 95 93 92 91 88 87 82 80 76 70 60 49 41 34 30 32 37 43 46 56 63 83 94 93 90 93 99 109 115 122 126 131 126 121 119 112 108 109 105
84 89 96 99 100 102 101 96 97 93 93 92 91 90 86 84 79 72 61 53 44 36 30 26 29 34 42 44 50 67 86 92 90 95 101 107 113 118 125 128 130 123 124 118 112 112 109
84 90 98 99 100 101 103 101 97 94 94 92 91 92 89 85 79 74 64 55 44 35 29 22 23 32 38 45 53 64 76 93 93 95 99 102 108 112 121 128 131 129 123 120 116 113 111
89 93 97 98 100 101 102 103 98 96 96 94 93 94 90 87 83 76 65 55 43 31 23 16 16 24 33 40 49 64 74 82 94 95 94 95 102 112 117 126 128 125 122 121 118 115 111
94 92 96 97 100 100 102 104 102 98 96 94 93 93 91 88 84 78 67 54 43 31 19 8 8 18 29 40 47 55 64 78 93 102 92 91 98 103 110 118 129 131 127 123 122 117 114
91 93 95 98 99 99 100 101 102 101 99 97 94 93 91 86 83 78 69 54 43 29 19 8 5 15 27 38 49 59 64 73 82 92 84 85 92 100 108 113 121 128 127 120 122 119 117
90 93 95 99 101 99 101 100 101 101 98 97 94 93 92 88 82 78 71 55 41 28 22 15 6 10 19 31 43 55 62 68 75 81 82 85 89 94 101 108 115 123 128 124 121 119 118
89 89 96 100 100 98 101 101 100 101 99 97 95 92 91 88 83 79 75 61 41 30 26 21 12 11 22 32 37 38 48 56 64 70 75 81 84 90 96 102 109 117 127 124 122 119 121
85 91 96 99 97 99 101 102 99 99 98 95 94 93 92 89 85 79 76 62 45 39 25 22 18 13 17 28 36 43 47 55 58 64 68 71 78 85 89 94 102 110 122 127 124 124 118
88 91 94 95 99 101 101 100 101 97 98 93 92 91 91 88 86 80 76 66 51 46 34 22 21 13 13 19 27 35 44 53 56 61 64 65 71 77 82 85 91 104 114 125 127 126 124
90 91 89 93 96 99 103 101 102 96 96 92 89 88 87 85 83 79 75 71 57 44 39 25 20 17 13 16 18 29 37 39 45 52 57 61 65 69 74 76 83 93 106 114 124 128 123
88 90 85 93 91 98 102 102 102 95 93 90 86 86 84 80 77 74 71 67 57 44 41 35 26 16 14 11 19 26 32 38 41 44 46 52 59 63 65 69 77 85 96 104 110 114 118
88 89 86 86 87 95 100 101 99 97 93 89 85 83 80 76 73 69 65 61 54 41 36 32 27 20 11 8 10 15 24 27 34 38 41 44 49 55 60 65 71 75 82 92 99 103 108
89 85 85 86 85 89 96 104 102 96 93 88 85 80 77 72 68 66 61 55 50 42 33 28 24 17 12 5 7 13 19 24 28 31 30 36 41 45 48 53 58 65 69 77 85 91 95
88 84 82 85 87 92 95 99 99 96 93 85 82 80 75 69 63 60 58 53 48 43 32 25 21 18 12 9 4 3 10 15 19 22 24 28 30 34 39 42 46 51 59 67 75 80 87
86 83 79 86 85 90 91 97 96 93 88 83 79 77 74 68 60 56 53 50 45 39 33 23 18 16 12 7 6 2 5 9 13 16 20 25 26 29 32 35 40 43 49 56 62 69 76
84 81 80 83 81 88 90 92 94 94 88 86 82 76 73 69 61 52 50 47 43 38 32 25 17 13 11 9 5 5 6 9 12 16 19 21 25 28 29 31 34 39 44 48 54 59 64
85 81 80 89 79 85 87 87 92 96 88 84 80 77 73 69 62 54 47 45 42 36 31 27 19 11 6 4 4 6 9 11 15 17 18 22 25 29 30 32 33 34 36 46 48 52 58
82 76 83 89 81 83 79 84 87 90 89 83 78 74 73 69 60 53 48 43 41 38 31 26 22 15 10 4 3 6 11 13 16 17 20 23 25 28 31 35 37 38 38 40 44 50 52
78 78 84 88 86 81 85 83 84 85 94 84 79 74 71 69 61 52 46 44 38 36 31 26 21 16 12 9 7 7 10 12 17 19 20 23 24 27 31 33 37 39 40 40 41 42 48
79 79 81 85 91 88 82 83 79 85 88 91 75 69 69 67 64 54 46 42 40 35 31 26 23 19 15 13 10 9 10 12 14 16 21 24 26 27 30 32 32 36 40 39 40 39 40
78 84 83 88 94 88 75 87 76 80 85 88 77 68 65 63 62 55 47 42 39 37 34 27 23 20 17 16 15 11 9 9 11 15 18 22 25 27 27 28 30 34 38 39 38 37 38
81 86 87 94 89 92 84 85 89 84 80 79 76 64 65 60 59 54 48 43 39 36 35 31 25 21 18 17 16 15 11 9 8 12 15 18 23 25 28 29 29 30 33 39 39 40 38
87 88 85 89 86 99 85 87 87 86 75 76 70 63 63 60 57 52 48 45 40 35 35 33 27 22 19 18 18 17 15 12 10 11 14 16 19 23 26 29 28 30 30 34 37 39 42
90 86 82 92 88 95 90 85 78 90 72 69 70 65 62 58 55 53 47 45 42 36 32 32 31 25 22 19 19 20 19 16 14 13 14 17 19 20 24 30 32 33 34 35 35 37 34
92 90 88 85 85 89 86 96 75 73 79 76 64 64 60 58 53 53 46 45 42 37 32 35 32 27 24 22 20 21 22 22 19 17 18 18 20 23 24 25 31 36 37 37 39 39 39
88 105 89 90 75 89 84 84 73 72 72 83 68 63 59 58 51 52 48 42 42 39 36 34 33 29 28 24 24 23 25 26 24 24 23 22 22 22 24 27 31 30 32 34 34 35 36

GFSGBSN_250_spd_066.txt.gz
Wind_Speed
77 83 89 91 94 97 97 97 98 100 101 97 89 83 77 75 69 65 61 51 42 38 36 37 39 44 54 64 71 75 79 80 81 86 92 103 113 120 121 123 124 119 113 111 107 98 98
80 83 90 92 96 98 101 101 100 100 103 100 91 86 81 80 74 70 64 51 42 35 32 28 30 37 47 64 73 76 79 79 83 86 91 98 110 118 123 125 125 124 119 116 109 100 99
80 84 89 91 99 101 104 104 100 104 103 101 93 89 83 84 79 76 69 53 45 37 31 24 24 32 40 59 68 77 83 80 82 85 90 96 106 114 120 121 126 126 123 119 111 104 103
82 86 89 93 99 103 106 109 107 105 102 98 92 89 85 86 82 79 71 58 49 42 32 23 20 29 38 45 59 77 82 82 80 85 89 95 101 109 115 121 122 127 125 122 114 109 108
84 88 90 95 102 103 106 109 112 109 102 100 93 88 85 84 83 81 72 63 53 45 35 23 17 23 36 47 57 72 82 84 83 87 90 93 95 103 111 117 119 122 126 123 117 113 112
82 88 95 97 102 103 106 109 113 110 106 101 96 90 88 85 83 82 77 68 57 47 34 22 13 17 29 36 46 60 78 83 86 86 89 91 93 98 105 110 114 113 122 121 119 116 113
83 86 95 97 101 104 106 109 111 112 107 100 96 93 87 86 82 82 78 69 57 43 31 21 9 11 22 31 42 54 72 82 85 84 86 87 92 92 98 108 112 115 122 123 125 121 118
81 85 94 102 101 99 103 108 112 114 107 100 95 94 89 88 85 84 80 73 59 44 36 22 8 4 17 29 39 53 66 72 82 88 87 87 89 92 96 100 105 109 113 123 127 122 120
80 84 88 102 98 95 100 104 107 109 109 99 97 95 92 90 88 84 81 76 63 51 43 31 16 10 7 19 31 41 53 67 78 94 92 88 89 90 91 92 96 102 107 117 122 123 121
81 84 88 98 100 95 99 99 101 105 104 101 96 96 94 92 90 85 82 79 68 59 47 34 24 16 10 6 24 35 42 52 65 85 82 90 87 88 84 85 88 95 101 110 117 124 124
81 84 89 97 98 90 94 95 96 99 101 100 95 93 92 92 93 89 83 79 72 64 52 37 29 22 12 10 14 30 41 49 60 69 75 84 81 79 73 75 81 90 96 104 115 122 125
81 83 89 91 92 86 86 91 92 93 96 99 97 93 91 90 92 90 84 78 73 67 50 43 31 23 16 9 16 23 35 44 50 56 64 71 74 75 75 76 77 83 90 99 112 121 122
81 84 87 91 92 91 85 86 88 90 93 95 97 92 88 88 88 87 82 76 73 64 55 42 37 27 17 11 7 13 26 33 43 46 50 56 60 65 71 71 75 74 81 92 102 114 118
82 85 83 90 90 86 82 82 87 90 97 95 100 95 87 83 83 82 79 74 68 61 54 43 35 31 22 14 6 4 11 23 34 41 46 49 52 56 61 67 65 67 75 82 92 100 113
82 84 84 91 83 88 78 82 85 85 88 98 99 98 92 84 82 78 74 68 62 58 53 44 33 28 24 16 9 4 3 11 19 29 37 43 48 51 55 59 60 62 68 75 84 95 103
84 86 85 89 82 83 83 80 86 87 86 91 96 98 96 86 80 78 74 67 59 53 49 46 36 22 18 17 12 8 1 6 12 17 22 29 36 40 46 52 55 58 65 70 76 86 94
84 85 85 86 78 78 78 81 89 85 87 95 99 100 96 92 78 74 71 65 58 52 47 41 36 29 15 11 8 4 1 3 7 9 13 19 23 27 34 39 42 48 55 61 69 76 86
83 85 86 89 73 74 75 79 86 91 87 93 88 94 97 96 80 73 69 63 59 52 46 40 35 28 20 10 6 4 2 6 8 8 11 15 17 21 26 30 35 40 48 55 61 68 76
84 86 86 81 74 71 71 81 81 100 94 89 91 97 93 91 89 71 68 61 56 50 45 39 35 31 24 16 7 2 4 5 8 11 14 16 18 21 24 27 31 36 43 48 54 61 69
84 86 87 79 73 75 71 74 86 94 91 91 84 94 92 91 85 68 66 63 54 50 43 39 35 31 27 21 14 9 2 7 10 11 13 15 17 20 24 30 32 35 38 43 49 55 61
86 87 84 80 72 76 74 85 87 98 97 94 97 99 97 98 88 68 62 60 56 48 43 38 32 29 27 23 18 14 11 8 8 11 14 19 21 24 26 27 31 34 37 40 45 51 53
87 85 82 80 76 81 78 87 90 93 97 96 78 95 88 84 78 66 59 57 54 51 42 39 32 27 24 22 20 18 17 15 13 12 13 17 22 26 28 29 30 32 36 39 41 45 47
89 88 84 81 76 83 89 91 95 93 95 98 96 102 92 91 83 69 60 54 52 49 46 37 34 28 24 22 20 19 18 17 17 17 18 19 19 23 29 31 32 33 33 34 38 41 44
91 89 86 80 81 81 91 94 99 93 97 96 91 97 91 93 77 69 63 52 49 46 46 40 33 30 24 21 20 18 18 18 18 19 21 20 20 22 24 27 30 35 34 36 37 37 42
93 91 90 87 88 83 86 99 102 97 97 97 87 93 81 88 70 66 61 54 49 45 42 42 36 29 26 22 20 20 17 18 19 18 21 22 21 23 25 26 28 32 33 34 37 38 39
96 92 91 90 90 83 90 92 99 99 100 90 89 89 86 78 66 61 58 54 50 45 41 40 36 33 29 23 21 20 19 18 18 19 18 19 21 21 23 25 28 30 32 33 33 35 37
98 98 93 89 92 95 91 97 83 99 98 95 92 77 92 86 71 62 55 50 49 45 42 39 37 35 32 27 22 20 20 20 19 18 19 18 18 20 21 24 28 29 29 29 31 36 38
101 102 102 97 95 99 101 97 90 93 94 102 100 86 73 68 68 60 54 48 45 43 40 39 37 35 31 28 26 21 20 21 21 20 21 19 18 19 22 22 26 28 29 31 33 37 40
106 107 108 105 99 100 104 98 101 90 92 107 95 68 59 64 62 55 51 46 44 42 41 37 36 36 31 30 29 25 23 22 23 24 23 22 21 20 22 23 26 27 31 32 34 35 38

GFSGBSN_250_spd_069.txt.gz
Wind_Speed
72 76 82 87 92 96 100 102 103 103 101 99 96 89 83 77 73 68 64 58 44 32 28 26 29 35 46 57 68 68 71 73 72 78 80 84 93 101 107 113 117 118 119 118 117 109 105
72 78 83 88 93 98 104 104 106 105 104 100 97 91 85 78 73 70 68 62 47 32 24 20 22 30 44 58 60 67 71 72 71 80 82 85 93 100 108 113 115 118 120 121 115 111 106
70 77 82 89 94 98 104 107 109 109 109 105 98 89 86 82 76 73 72 65 56 41 30 21 17 28 40 53 59 70 73 73 73 78 80 86 92 99 106 113 116 119 121 123 116 114 109
70 76 82 88 93 101 103 108 109 111 113 108 99 92 86 84 80 78 76 70 61 50 36 27 15 19 32 49 60 68 73 74 75 77 81 87 90 99 105 112 115 118 119 120 118 117 112
71 75 83 88 93 97 107 109 109 112 113 110 105 94 87 84 81 78 76 73 60 46 37 28 14 10 29 45 57 63 71 74 75 76 79 87 89 94 102 108 114 117 117 117 122 117 115
72 76 82 86 93 95 107 109 112 114 115 113 110 98 90 85 82 78 78 77 63 50 42 31 16 5 22 38 51 60 68 72 74 77 78 83 89 91 98 102 113 114 115 116 122 119 118
73 77 80 86 92 95 104 106 113 114 113 115 114 106 94 87 84 80 78 77 69 55 47 38 22 7 10 28 43 56 66 71 75 75 75 79 83 87 94 103 111 118 115 114 122 123 119
72 77 80 84 93 95 102 102 107 111 113 112 114 110 101 90 87 85 81 82 76 62 55 39 25 14 0 21 38 51 62 68 72 76 73 75 78 86 92 99 107 115 117 114 115 120 120
71 76 80 84 90 96 100 100 102 103 108 111 113 109 105 95 89 85 82 82 79 71 65 44 30 18 10 11 28 43 56 60 67 69 73 69 73 81 87 92 100 108 118 117 110 115 120
71 76 79 83 87 93 94 94 91 95 102 106 106 107 107 100 92 87 84 82 81 78 69 54 37 27 18 10 18 28 41 54 62 70 73 71 73 77 84 89 94 102 109 113 110 111 118
70 76 80 83 86 90 83 85 87 89 93 99 103 106 106 102 96 87 85 80 79 73 65 60 45 30 25 13 13 24 36 47 57 64 69 71 70 72 77 84 89 94 97 103 111 112 111
70 74 78 82 84 84 81 83 83 83 87 93 99 102 105 102 98 88 83 80 76 74 66 60 53 37 26 21 9 16 27 34 50 57 65 69 69 73 73 75 79 83 85 91 99 105 103
71 75 79 80 83 85 84 80 80 81 84 93 96 100 103 101 96 92 84 80 75 72 67 58 52 42 28 19 17 3 20 34 41 51 57 56 62 71 69 70 71 71 74 80 84 91 93
70 75 78 79 82 84 86 79 86 77 84 87 95 99 101 100 96 94 87 78 73 69 66 59 52 46 32 19 13 12 2 24 35 38 39 46 52 64 72 70 65 62 61 65 70 78 92
70 74 77 80 81 85 85 81 82 82 84 83 90 96 104 102 102 91 86 79 72 65 62 57 50 43 38 24 14 10 9 10 15 28 33 35 39 50 62 68 67 62 61 60 60 68 82
71 74 77 79 81 82 83 81 78 82 84 89 89 91 100 100 101 94 86 80 72 65 58 54 47 42 35 30 18 9 8 8 6 15 22 29 33 39 44 48 53 54 52 56 60 63 69
72 74 77 80 81 83 83 82 77 81 85 86 87 92 93 98 100 90 81 78 72 66 57 52 47 37 34 28 22 12 4 7 8 9 12 15 21 28 32 37 40 41 44 50 54 59 63
72 73 76 80 81 80 82 80 80 83 80 86 89 87 92 98 94 87 75 79 67 64 59 49 47 39 30 27 22 18 6 2 9 13 13 14 15 18 22 28 31 33 38 43 49 55 59
73 73 75 79 80 80 80 78 75 82 86 87 91 92 89 97 89 87 71 67 68 58 56 49 43 41 32 25 20 16 13 8 7 11 14 17 18 20 23 25 28 32 36 42 47 51 56
75 76 77 80 79 81 81 77 83 82 88 87 94 95 98 92 90 92 74 67 62 60 51 50 41 38 34 26 19 15 10 11 9 12 15 16 19 22 24 25 27 30 33 38 43 46 50
75 77 79 81 82 81 80 79 83 85 89 88 97 102 103 94 91 85 82 70 63 61 52 45 42 36 34 29 24 16 12 9 12 13 16 18 20 22 23 25 28 31 35 37 41 45 46
76 78 80 82 83 83 83 80 85 86 90 94 102 107 105 98 86 88 85 72 66 58 52 45 38 35 32 31 25 20 14 12 10 12 16 19 22 25 27 27 28 32 35 37 40 42 46
80 80 82 84 84 84 86 84 83 88 90 96 102 102 105 100 90 79 73 70 69 60 54 45 38 32 29 28 26 22 19 15 11 13 16 19 21 25 28 28 29 31 33 38 39 41 44
84 83 85 84 85 85 90 85 82 89 90 93 100 106 102 97 91 88 75 72 62 60 54 44 38 30 26 25 25 23 20 16 14 15 17 19 20 23 26 30 33 35 34 37 40 39 40
86 86 87 85 88 91 90 90 88 90 90 93 97 102 102 90 89 85 66 68 61 52 49 47 36 32 26 23 24 22 21 18 15 16 18 19 20 23 25 27 32 34 34 35 35 37 43
89 91 90 92 92 96 94 92 93 92 95 97 97 95 97 91 90 85 69 67 59 50 46 42 37 31 27 24 22 21 20 19 18 14 17 20 20 22 25 26 29 28 32 35 35 36 38
94 96 96 97 98 99 97 95 95 94 99 99 96 88 100 99 89 83 75 68 53 50 42 37 35 30 26 25 22 21 21 20 20 16 16 17 18 21 23 26 27 25 28 30 34 35 34
99 100 101 102 103 102 99 98 99 98 96 97 95 96 94 96 94 85 79 66 52 46 42 38 30 31 28 24 23 23 21 20 21 20 17 17 19 18 21 22 25 25 28 30 31 32 33
102 105 106 106 105 104 103 103 102 103 102 99 101 98 92 99 99 86 69 60 50 43 41 38 31 30 28 24 25 24 24 23 21 22 20 19 21 20 20 21 22 23 25 28 31 31 32

GFSGBSN_250_spd_072.txt.gz
Wind_Speed
65 69 74 77 84 88 94 98 100 103 104 102 96 97 99 82 79 78 75 65 55 43 30 27 30 32 41 54 61 66 70 71 75 74 74 81 84 86 91 99 106 108 114 118 120 115 111
66 69 73 77 83 91 94 99 103 104 106 105 101 98 104 85 75 73 71 66 59 49 35 22 23 30 37 47 55 63 69 72 74 73 74 77 82 85 89 97 108 111 117 116 114 115 113
64 70 73 76 82 89 95 100 106 109 110 107 108 100 105 97 78 76 71 66 63 50 37 21 14 24 32 37 48 59 69 72 72 73 72 76 82 84 88 95 108 114 121 118 117 117 115
64 69 73 77 81 87 94 97 106 112 112 112 111 108 106 106 84 79 75 67 65 54 43 30 13 17 27 35 42 55 64 71 70 71 71 75 80 84 86 94 106 116 119 119 116 117 118
64 68 72 77 79 86 91 95 103 111 113 115 115 113 113 110 95 82 78 72 68 59 51 39 25 8 17 29 38 51 61 68 68 71 71 74 79 82 85 91 102 112 116 119 120 118 121
64 68 71 76 79 84 89 95 99 108 114 116 119 118 117 115 108 87 82 78 72 66 57 46 32 11 8 21 34 47 56 65 67 68 72 75 78 80 83 88 96 106 112 118 122 122 121
64 67 70 75 79 84 90 95 98 106 109 116 117 117 119 117 110 95 85 82 76 71 63 52 37 19 2 16 26 37 52 61 65 65 69 65 69 74 82 88 95 105 112 119 127 124 122
63 66 69 73 78 82 90 94 97 103 108 111 113 114 116 115 113 105 95 82 77 72 69 55 42 26 11 5 20 30 44 54 59 63 64 61 67 75 79 86 94 101 108 114 120 122 121
61 66 67 71 77 82 87 91 95 99 102 104 107 109 112 114 113 109 101 89 82 74 71 57 47 32 19 6 8 23 35 47 54 58 61 61 66 72 78 84 88 96 104 111 114 120 120
60 64 68 71 74 80 85 89 92 96 97 97 96 101 105 109 109 108 102 92 82 76 70 64 51 38 24 14 4 12 27 41 50 54 56 60 64 68 75 81 85 93 100 107 113 113 120
59 63 67 69 74 79 84 89 89 89 93 91 92 96 100 107 106 103 100 95 87 76 70 64 58 47 27 20 6 8 20 34 43 48 55 60 59 63 68 76 82 90 97 105 111 114 113
59 62 66 69 72 77 82 86 86 89 88 89 88 93 96 100 103 101 98 95 91 80 69 64 59 47 38 20 12 0 12 23 33 38 42 52 58 61 64 69 78 85 91 98 105 107 110
57 61 65 68 71 75 80 83 85 85 85 87 84 92 97 97 100 100 97 94 88 82 72 63 55 50 40 32 13 8 10 22 30 31 39 47 55 58 60 62 68 78 85 90 97 99 102
57 60 64 67 70 73 77 82 84 83 82 84 88 88 94 95 94 98 96 91 85 80 74 63 57 50 41 33 24 5 1 15 15 18 28 40 46 53 56 57 61 66 77 83 87 93 101
55 60 62 65 69 72 75 81 83 83 83 81 86 87 93 96 93 95 94 90 89 79 75 64 54 47 43 31 24 12 3 11 14 24 26 28 33 39 48 53 55 57 57 68 77 84 92
54 61 62 65 68 72 75 78 82 82 83 83 84 86 93 92 94 94 94 92 90 83 73 65 55 48 39 35 23 16 3 9 18 24 28 31 32 36 42 49 51 53 57 56 59 69 77
55 58 62 64 67 71 75 78 81 81 83 84 84 89 90 93 92 91 90 87 86 80 70 66 54 45 39 32 24 15 8 5 14 20 25 27 32 37 36 41 54 57 58 59 58 56 60
57 58 61 64 66 70 73 78 79 82 83 85 85 88 89 90 91 90 88 81 83 75 68 61 56 43 38 30 26 19 11 6 9 15 20 23 27 29 33 36 39 43 46 46 52 59 60
60 58 61 62 67 70 73 76 78 78 81 87 87 88 87 90 94 92 87 87 80 76 69 61 53 48 34 30 24 20 13 8 9 12 17 21 24 26 29 32 33 33 36 39 43 46 51
60 59 61 62 66 70 74 76 76 77 80 83 83 87 86 90 93 91 90 84 84 76 65 59 50 45 37 27 24 20 16 11 9 12 16 20 23 26 28 29 30 33 35 37 38 41 47
62 61 61 63 66 70 74 76 77 79 80 82 82 86 85 88 98 95 87 89 85 81 66 62 49 41 34 27 22 20 16 13 11 11 14 19 24 26 28 29 31 31 33 35 37 39 39
64 64 63 65 66 70 76 77 79 80 82 84 85 84 80 85 91 98 88 91 88 83 71 59 50 39 34 26 23 18 16 14 12 13 14 18 21 25 28 29 31 33 36 38 39 38 39
65 67 65 67 70 73 76 79 81 81 85 87 89 88 86 88 87 96 95 93 92 87 78 60 50 40 31 26 24 19 18 15 13 14 15 17 20 24 27 29 32 32 36 36 38 38 40
66 70 67 70 73 75 78 80 83 84 87 90 90 89 93 92 91 97 96 93 103 89 79 63 52 38 32 27 24 21 20 18 15 15 16 17 18 21 24 26 31 37 36 38 39 39 39
68 71 71 74 76 77 78 82 86 87 91 93 91 89 93 88 95 101 95 102 103 92 81 66 51 38 32 26 24 22 22 20 16 18 18 18 18 18 22 26 29 31 32 36 39 39 40
71 73 76 77 80 81 82 83 87 90 92 94 95 93 98 95 88 106 102 101 98 96 85 69 52 38 33 28 23 22 21 20 21 19 19 18 19 19 19 22 28 28 30 32 35 39 42
78 75 80 80 82 84 86 88 90 93 95 95 96 97 101 104 90 101 100 105 96 90 79 67 50 36 32 30 24 23 22 21 22 21 20 20 20 20 19 20 22 26 29 32 33 36 37
79 82 82 84 86 88 92 93 96 96 99 99 99 97 99 104 109 105 93 106 93 88 76 64 49 38 31 30 28 23 21 22 23 21 22 22 21 21 21 19 19 22 27 30 31 32 32
81 83 85 87 89 92 95 98 99 100 101 101 102 100 101 105 112 109 91 96 85 81 70 57 46 35 29 29 26 25 22 20 21 24 23 23 23 22 21 19 19 18 22 25 29 32 32

GFSGBSN_250_spd_075.txt.gz
Wind_Speed
61 65 67 71 75 80 83 85 89 94 103 105 105 105 101 101 102 89 77 73 67 59 43 35 31 28 25 37 49 58 65 73 77 81 81 83 84 89 93 95 95 88 90 99 102 104 105
62 64 67 70 75 81 82 88 90 92 101 108 109 109 106 101 105 98 82 78 71 63 45 32 27 24 23 33 45 56 64 70 77 82 80 80 80 84 90 95 97 90 92 96 99 106 108
62 63 66 71 75 80 82 88 90 93 100 107 111 112 112 104 106 102 90 79 76 68 51 39 30 20 21 25 35 46 58 66 76 78 78 77 77 79 85 93 96 91 90 96 103 105 106
60 63 66 70 75 77 83 87 90 93 99 106 111 114 116 111 111 108 99 83 78 73 58 48 40 26 13 18 28 41 55 64 72 73 74 74 73 76 82 88 91 87 87 95 103 102 108
60 62 66 69 74 77 82 86 90 94 100 103 109 115 117 115 113 111 102 93 82 78 68 56 48 34 16 10 22 34 49 60 67 70 72 73 72 73 76 82 83 80 82 95 103 106 111
59 62 65 68 71 76 79 85 89 92 100 105 109 114 117 117 115 112 106 96 87 82 76 65 51 40 25 8 16 30 41 52 61 69 72 67 69 70 72 78 75 78 85 94 106 110 112
58 62 64 69 70 73 78 82 89 94 99 103 105 111 114 114 116 114 110 98 92 82 80 73 55 44 32 16 5 22 35 43 51 61 64 64 62 63 68 72 77 82 89 97 107 110 112
58 60 62 67 68 73 77 80 85 90 96 101 103 108 112 112 112 111 110 104 93 85 80 75 62 47 35 20 6 8 25 33 43 55 62 62 62 64 68 73 78 82 87 96 106 111 110
57 59 61 65 67 72 73 79 83 89 94 98 99 105 107 107 107 108 109 106 97 87 80 73 65 51 40 25 13 1 15 27 36 49 57 58 61 61 63 69 74 79 85 94 104 111 115
55 59 60 65 66 68 73 76 81 86 92 94 96 100 102 105 104 105 106 104 98 90 85 69 66 58 42 28 17 9 6 19 32 43 49 48 51 54 58 64 70 77 85 91 101 109 115
54 59 59 62 64 67 69 75 77 83 89 91 95 99 98 101 99 99 101 102 99 95 85 72 63 58 48 33 20 14 2 10 24 35 41 45 51 53 55 61 68 76 81 87 95 105 112
53 57 59 60 63 65 68 71 76 81 86 89 92 96 95 94 97 98 98 101 98 91 85 75 63 57 51 39 28 14 8 3 13 26 34 42 48 49 53 56 65 74 79 83 91 98 105
52 54 58 61 63 64 66 69 72 78 83 86 89 93 95 89 92 95 95 95 97 91 86 77 64 54 49 43 31 22 9 4 3 19 28 35 43 50 53 55 61 69 73 78 85 92 99
52 52 56 59 62 62 64 66 69 74 81 83 84 88 93 89 91 92 91 91 91 92 84 80 67 55 47 42 34 24 15 3 1 11 14 30 38 42 46 49 54 60 70 75 80 86 97
51 50 55 56 61 61 62 65 67 73 78 82 84 87 91 91 88 89 90 90 90 93 91 81 69 59 45 39 34 27 18 12 3 7 14 18 30 37 43 50 53 53 59 68 75 82 89
48 48 53 53 59 59 60 62 65 73 77 82 84 84 89 90 89 90 89 88 93 92 92 87 72 63 49 34 31 26 20 14 10 11 14 18 21 22 30 41 46 48 56 59 64 72 78
51 48 52 54 57 59 57 60 63 70 76 78 82 82 87 88 91 93 89 87 90 91 91 88 79 68 54 38 26 25 21 15 12 13 15 23 23 24 27 30 43 46 52 52 57 61 69
53 51 53 56 58 58 56 57 61 68 75 77 78 82 83 87 90 92 91 91 91 91 89 89 82 70 59 43 28 22 20 16 15 15 17 19 24 30 33 37 41 43 45 46 51 54 59
54 56 54 56 58 56 54 57 60 67 73 76 77 81 83 86 90 92 91 98 99 94 89 89 82 74 61 51 30 22 18 17 15 17 19 19 23 28 33 37 39 40 44 47 52 55 56
55 56 57 58 58 55 55 56 61 66 72 75 76 78 83 85 87 91 87 92 99 91 90 89 81 73 62 53 36 25 19 17 16 16 18 20 23 25 29 34 37 38 41 42 42 43 50
54 54 58 61 59 55 54 56 62 67 72 74 76 78 85 86 86 88 92 91 94 90 87 85 81 73 67 55 38 30 23 19 17 17 18 21 22 23 26 29 32 36 39 39 40 47 46
56 53 57 61 59 53 54 58 64 69 73 74 77 80 83 85 86 88 92 96 94 93 91 87 83 72 65 56 36 31 27 22 19 18 18 21 23 23 25 27 30 31 34 37 39 41 41
54 55 57 61 61 53 56 60 66 69 74 76 78 83 86 87 89 89 92 95 95 89 92 88 82 71 64 55 38 28 27 25 22 20 20 20 22 23 25 25 26 31 35 35 36 38 41
54 57 58 62 59 53 57 64 67 71 75 76 79 83 86 88 91 91 94 90 100 98 91 92 84 73 61 52 38 29 27 26 24 23 21 22 21 21 25 22 25 36 32 35 37 37 38
57 59 61 61 57 56 62 66 70 73 76 77 80 84 87 87 91 93 93 88 103 103 93 86 85 73 59 48 36 27 26 28 26 23 24 22 22 23 23 23 30 32 30 32 38 41 40
60 61 62 58 55 61 65 69 72 75 77 78 80 85 91 90 93 94 91 98 98 103 96 85 81 71 55 44 33 27 26 28 25 26 25 21 22 24 25 24 26 28 29 31 36 38 37
62 62 59 58 60 65 69 71 73 75 78 81 82 86 93 99 98 96 96 95 101 100 94 89 80 69 50 43 31 24 26 26 29 28 25 24 22 23 23 25 28 25 26 30 32 36 36
62 58 59 64 66 68 72 73 75 77 79 82 84 87 93 99 103 105 96 99 101 99 100 90 79 67 49 40 32 23 24 25 30 28 25 26 24 23 23 24 23 26 25 26 29 33 34
59 61 66 69 71 73 75 76 78 80 81 84 86 89 92 98 104 106 100 101 109 100 99 92 77 62 46 39 33 24 21 23 31 29 26 28 24 23 25 24 22 24 24 24 25 29 31

GFSGBSN_250_spd_078.txt.gz
Wind_Speed
57 60 64 68 72 77 77 82 82 84 91 93 96 101 105 107 106 106 98 86 79 71 66 52 40 29 21 21 36 47 56 66 71 73 76 79 82 85 88 87 85 84 83 82 85 94 95
55 58 63 67 71 75 77 80 83 84 91 94 96 100 106 110 109 107 100 91 82 73 67 56 44 31 18 16 30 40 48 61 70 72 74 78 81 84 86 89 87 86 85 84 85 90 91
53 56 61 67 69 74 76 79 82 84 89 96 98 102 107 110 110 105 103 94 89 73 67 62 50 36 21 10 19 29 40 54 65 68 71 78 78 81 84 88 89 87 87 84 85 86 90
53 53 60 64 70 73 76 80 80 84 88 94 99 103 107 111 113 108 103 98 92 83 69 65 57 44 25 12 7 17 30 45 57 61 69 74 76 78 83 86 89 87 87 85 84 84 85
51 53 57 62 67 72 76 78 82 83 90 92 96 102 107 112 111 110 106 100 94 89 73 68 63 50 33 14 0 12 23 36 48 59 67 72 75 75 77 82 86 86 86 85 84 85 86
50 52 54 58 65 69 74 78 81 82 87 90 95 100 106 112 112 110 107 103 97 92 79 71 66 55 39 21 9 8 19 30 46 55 63 66 71 70 71 74 78 83 85 88 87 87 86
51 52 54 57 62 67 71 75 79 79 84 88 92 95 103 106 112 111 108 106 98 95 84 73 66 59 44 27 12 3 12 19 37 46 57 63 64 63 67 72 77 82 85 90 91 90 88
51 51 55 56 60 66 69 73 76 78 80 85 90 93 99 103 106 110 109 105 103 96 93 78 65 59 49 33 18 11 1 14 26 43 51 57 63 65 67 68 73 78 84 89 91 89 90
49 50 55 56 58 61 68 71 72 76 76 82 87 92 96 98 102 105 107 103 102 99 97 86 67 58 53 38 24 15 7 11 21 32 40 48 57 59 62 66 69 73 80 85 89 89 88
50 51 53 54 58 58 64 68 70 74 74 77 84 89 94 98 98 102 101 102 103 100 97 92 79 59 53 45 30 17 8 7 16 24 34 48 52 56 59 62 65 69 74 80 82 82 83
50 52 54 53 56 57 61 65 67 70 72 74 80 87 92 97 98 100 99 101 102 104 102 97 87 66 52 47 36 20 10 3 8 18 28 38 47 52 56 59 61 64 69 74 76 76 79
52 51 54 54 53 56 58 63 65 69 69 73 77 84 90 94 97 97 97 98 100 103 101 99 91 78 56 46 39 25 12 7 4 14 22 33 41 45 51 54 55 58 61 68 70 75 77
53 52 53 53 51 52 56 61 64 68 68 69 74 81 87 91 94 96 94 97 99 101 102 97 93 83 66 48 39 30 14 5 7 6 16 26 37 44 47 51 53 54 58 61 65 68 74
52 52 53 52 51 51 54 60 63 65 65 67 71 78 85 89 92 94 94 97 101 101 98 97 95 85 69 56 41 32 21 7 4 6 10 21 32 40 45 49 50 53 55 58 60 65 72
51 51 53 50 52 50 52 58 61 63 65 64 69 75 81 85 89 91 92 93 94 101 101 97 95 90 74 59 47 34 24 13 4 8 14 17 26 34 42 45 47 46 47 52 58 63 68
51 50 50 49 48 49 53 55 59 61 63 62 66 73 79 83 85 88 89 91 88 96 98 96 93 89 79 67 48 37 28 18 10 7 15 19 20 30 38 43 43 44 50 51 54 58 62
52 51 49 50 50 49 54 54 58 60 60 60 63 70 77 81 83 86 88 89 88 94 96 95 91 84 81 71 57 38 29 23 16 10 11 21 25 26 30 33 41 47 51 52 57 60 64
52 50 48 52 49 51 53 52 56 59 57 58 61 68 74 81 82 84 87 88 89 89 98 99 93 87 80 74 64 46 29 25 21 16 11 14 25 29 32 36 38 40 44 48 53 54 60
50 51 48 50 48 53 52 51 53 57 56 57 61 67 73 78 79 82 86 89 89 88 95 99 96 89 87 79 68 53 36 25 25 20 17 14 18 25 34 38 40 42 46 50 56 56 58
48 49 49 52 51 54 53 50 52 57 55 56 61 67 72 75 77 79 83 86 89 87 95 98 95 91 84 83 71 58 44 27 23 25 20 19 18 21 24 30 37 43 48 50 52 52 55
50 48 48 50 52 54 54 51 51 57 55 56 61 67 71 73 76 80 81 85 90 92 97 100 96 96 90 81 72 62 44 34 23 25 25 22 21 21 21 22 25 33 42 45 44 48 54
50 48 46 47 51 55 55 52 49 56 55 56 61 67 72 73 75 79 82 85 91 97 98 96 98 95 88 86 75 62 47 35 25 24 27 25 23 22 23 23 23 24 29 37 44 47 48
49 48 45 48 50 54 56 53 51 56 56 57 63 67 72 74 77 78 83 87 92 93 103 97 98 96 95 89 78 64 47 35 26 24 26 27 25 23 24 23 23 26 30 29 32 39 44
49 50 47 47 50 54 56 55 54 56 57 59 65 68 71 73 77 79 83 89 95 100 100 101 101 97 99 87 76 60 45 33 25 24 26 29 25 22 26 22 23 34 27 28 31 35 36
50 49 48 48 49 52 55 57 56 55 57 64 67 69 71 74 78 79 82 89 95 101 105 101 100 97 95 84 71 57 42 30 23 22 25 28 26 25 25 24 29 32 30 27 30 33 32
49 48 47 48 49 52 57 58 55 55 59 66 70 71 73 74 78 81 84 88 93 99 101 102 102 101 97 85 68 53 37 29 17 20 25 28 26 24 28 26 29 33 28 27 30 34 32
46 48 48 49 51 54 56 57 56 58 62 66 71 74 76 78 80 83 85 92 97 100 106 109 106 103 97 88 70 51 36 25 20 22 21 25 27 26 26 26 31 27 25 28 29 33 33
48 48 48 50 51 54 56 56 58 61 66 69 70 75 79 83 86 86 91 95 99 100 106 110 107 105 95 81 66 50 35 25 20 22 20 22 26 30 26 28 30 23 28 27 28 31 32
51 50 50 53 54 53 55 59 63 66 69 71 73 73 76 84 88 88 92 97 102 106 105 107 103 97 90 76 60 50 37 27 23 24 21 25 26 26 26 31 28 26 26 25 26 28 29

GFSGBSN_250_spd_081.txt.gz
Wind_Speed
57 57 59 57 59 64 69 72 78 83 84 88 88 89 93 97 105 107 107 99 93 84 72 60 55 41 31 20 21 34 42 54 65 69 72 75 77 79 83 85 85 81 84 85 88 92 94
56 58 58 57 58 63 66 72 76 81 83 86 89 87 93 97 104 107 106 99 94 85 78 63 58 44 33 21 16 29 40 53 64 68 69 72 76 77 78 83 85 82 83 84 86 89 91
54 56 57 58 57 63 65 71 74 79 82 84 88 86 90 92 102 111 106 102 96 91 78 66 60 49 37 22 10 17 31 47 59 65 67 71 74 75 77 81 83 83 83 83 84 86 87
52 54 56 58 58 63 64 70 73 76 81 84 88 86 89 93 98 110 110 101 97 92 82 69 59 53 40 25 7 14 24 41 54 61 64 69 71 73 75 77 82 84 83 82 83 84 86
52 51 54 58 59 61 64 68 73 74 79 81 85 86 88 91 98 108 112 105 92 90 87 74 61 55 41 30 7 10 22 34 47 56 64 69 69 70 71 75 80 80 80 80 81 82 82
54 50 52 56 59 59 63 66 72 73 76 80 82 86 87 91 95 102 108 110 94 94 88 77 63 55 44 33 13 5 16 25 37 47 56 59 61 65 68 69 69 77 80 81 81 83 82
53 51 50 54 57 60 62 64 70 69 74 77 79 83 85 88 94 99 104 108 100 96 90 84 65 57 49 37 20 6 10 16 28 38 47 52 57 61 65 66 70 77 80 82 84 84 83
52 52 49 53 56 59 60 62 67 67 70 74 78 82 82 85 90 96 100 102 102 94 95 89 70 58 51 41 29 10 9 14 26 37 43 47 56 62 65 66 71 74 80 84 85 84 83
50 49 48 51 54 58 59 62 64 65 67 73 75 79 81 83 88 93 98 98 99 96 98 92 75 63 52 46 35 24 8 13 18 30 37 44 51 57 61 63 67 72 76 84 86 83 83
49 49 48 49 52 55 57 60 63 63 65 70 72 76 79 81 85 91 95 97 100 92 97 92 83 75 59 48 41 29 16 6 13 20 28 37 45 51 53 59 65 70 73 76 81 82 81
50 51 49 49 48 52 56 58 61 61 63 67 69 74 77 77 81 88 91 94 97 92 93 92 88 78 72 54 41 34 19 7 6 15 24 29 37 46 51 57 61 64 67 69 73 78 81
51 50 49 49 48 51 53 56 58 59 61 64 66 70 74 75 79 84 88 91 92 94 93 97 91 87 77 65 48 34 26 12 4 13 20 26 33 41 49 51 55 59 61 63 67 71 77
51 51 48 49 48 50 52 53 54 56 59 63 64 67 70 72 76 81 85 88 88 91 90 93 89 89 85 71 60 42 28 18 4 10 17 25 30 37 41 46 50 54 57 58 61 64 69
52 52 47 49 47 49 51 53 52 55 58 60 61 64 67 70 73 77 83 87 87 87 90 86 91 88 87 80 67 55 34 21 14 7 19 24 30 37 42 46 51 55 56 56 56 58 65
54 50 47 49 48 48 51 52 51 53 56 58 59 62 65 67 72 76 81 84 81 87 92 91 89 87 85 84 74 62 48 27 13 12 16 25 29 34 41 46 48 52 52 54 55 58 61
54 49 47 47 48 48 48 51 50 51 55 58 57 60 63 64 69 75 79 82 81 87 92 99 92 93 91 88 81 70 59 43 21 9 16 23 30 35 40 42 45 47 51 51 52 53 56
56 50 46 47 46 47 47 48 49 49 53 56 56 57 61 63 68 73 77 79 80 83 92 96 94 92 90 92 88 78 66 54 35 18 12 19 27 34 39 43 49 50 51 53 56 55 54
56 50 47 47 48 46 46 48 47 47 51 54 56 56 61 61 66 70 75 78 80 84 87 92 96 94 92 90 90 81 71 59 44 26 18 16 23 32 35 42 46 49 51 51 51 51 54
54 50 47 49 45 45 45 47 47 48 48 51 55 55 60 61 64 70 74 77 78 81 84 92 95 94 95 91 88 83 73 63 49 32 22 17 21 27 35 39 43 48 53 55 55 56 55
49 49 50 50 45 43 44 45 47 48 46 50 53 54 59 60 63 68 72 76 76 79 83 89 93 95 95 94 89 86 77 66 53 35 25 23 21 24 29 34 42 47 53 55 58 55 56
49 53 52 50 46 43 45 45 48 49 45 48 53 53 56 58 61 66 71 74 75 80 83 86 94 96 93 96 94 87 78 65 53 36 25 25 24 22 25 30 34 42 49 50 53 57 59
52 49 50 48 46 44 43 46 49 50 46 48 52 54 56 57 60 65 68 72 74 81 84 87 95 100 98 91 93 85 72 67 50 36 26 25 27 21 23 27 31 33 36 43 50 54 54
51 50 49 44 44 42 41 46 50 49 46 46 50 54 57 57 62 66 70 73 75 79 86 89 94 97 99 94 92 82 67 61 47 35 27 22 28 24 22 24 25 29 36 33 34 41 45
47 47 46 44 43 42 42 47 50 50 45 45 50 54 57 58 62 67 71 72 77 81 85 91 96 99 99 96 90 81 68 55 41 31 27 24 26 22 23 20 23 32 28 28 31 33 33
43 42 43 43 42 42 43 46 48 49 47 46 51 54 55 57 63 65 70 72 77 83 89 91 94 98 95 95 87 80 67 54 37 28 25 22 23 23 23 22 28 30 26 26 28 30 29
41 40 41 41 40 41 42 46 47 49 49 48 52 53 55 58 63 66 70 73 78 82 87 91 93 98 98 101 88 80 71 55 38 28 24 22 24 22 25 24 26 31 23 21 24 28 29
47 45 43 40 39 40 41 43 44 48 49 52 53 52 56 59 63 67 70 75 80 82 86 89 93 100 102 105 86 80 74 53 41 30 22 20 21 21 24 24 28 30 21 20 24 28 30
46 45 43 41 41 41 41 41 43 48 53 54 53 54 58 59 64 67 72 78 81 87 90 92 95 103 107 109 92 82 70 56 41 31 22 20 21 26 26 25 29 19 22 24 25 28 30
45 44 42 40 41 40 39 42 45 51 54 55 53 57 60 63 68 69 75 80 83 88 93 96 101 105 109 107 101 82 72 58 39 31 22 18 24 24 25 29 27 23 26 25 26 28 29

GFSGBSN_250_spd_084.txt.gz
Wind_Speed
52 54 53 54 57 58 62 65 71 71 74 77 83 88 89 87 88 93 98 97 98 99 97 84 62 51 44 32 20 20 40 54 70 75 79 81 82 87 90 91 92 93 91 94 96 97 98
51 55 52 55 55 57 60 63 70 71 73 75 80 86 88 89 88 89 98 97 98 99 97 90 64 52 47 35 21 15 32 52 68 74 76 78 79 82 87 89 94 91 90 93 94 95 96
52 54 54 54 56 57 59 61 68 70 72 76 78 84 87 89 90 88 95 97 99 98 97 90 67 54 48 36 23 12 22 43 63 73 74 76 77 78 81 87 89 90 91 92 92 94 95
54 55 56 55 56 56 58 60 64 68 71 74 77 83 85 87 88 88 93 99 96 96 97 92 72 57 50 39 28 9 19 38 56 67 72 73 75 76 79 81 84 90 89 91 90 92 91
55 56 56 55 55 57 56 57 62 66 69 72 76 81 83 85 86 85 90 99 98 96 94 90 80 59 52 43 32 12 11 27 47 60 67 69 70 71 74 76 80 84 85 87 86 89 89
58 56 56 57 57 56 55 55 59 64 68 70 73 79 80 82 84 85 86 95 99 97 96 90 84 60 53 45 35 16 2 17 32 50 60 65 65 69 71 71 74 75 81 85 85 87 86
61 57 56 58 57 56 53 54 56 62 66 69 69 75 77 79 81 80 83 92 97 97 94 87 81 68 51 48 37 22 5 10 23 39 53 58 62 64 68 69 67 68 75 82 84 85 85
62 58 58 57 57 56 52 52 53 59 63 67 67 71 73 76 79 79 80 88 93 92 93 89 78 70 55 46 41 27 7 10 20 30 41 48 55 60 63 64 66 68 73 79 85 87 86
63 61 59 56 57 56 52 52 52 56 60 64 66 68 70 73 75 77 78 85 91 91 88 87 75 70 60 48 44 35 19 7 15 25 32 42 50 53 55 57 60 65 69 77 83 84 82
63 62 60 57 56 55 52 51 51 55 57 61 64 65 66 70 71 73 75 81 86 90 91 88 82 73 62 56 47 40 32 13 3 16 28 37 43 51 55 55 59 63 68 72 75 80 82
62 64 59 57 55 54 50 49 50 51 56 57 61 62 63 65 68 72 72 77 83 88 91 89 81 76 68 58 56 47 35 24 5 12 21 28 37 45 52 58 59 61 65 68 71 75 78
60 59 59 56 55 54 51 48 48 49 53 55 58 59 60 62 66 70 68 73 80 83 86 84 84 80 74 63 57 54 48 27 16 10 20 27 32 40 48 51 55 58 60 65 69 71 75
58 55 55 54 52 53 49 47 46 47 51 52 55 56 57 60 63 67 67 71 78 80 81 84 79 78 78 75 65 55 51 43 24 15 16 24 33 36 40 46 51 53 57 61 63 66 68
51 51 52 53 50 52 49 47 46 46 48 50 51 54 55 57 59 64 66 69 74 77 79 82 80 72 76 76 73 60 55 47 41 22 16 20 28 35 39 44 50 56 58 60 61 62 66
46 47 50 51 51 51 49 46 45 45 46 48 49 52 53 55 57 61 63 64 72 75 76 82 81 74 74 78 76 75 67 53 45 33 20 19 23 31 39 45 49 53 53 55 59 62 66
42 45 47 50 48 50 47 46 44 44 44 46 48 51 52 53 55 59 60 63 68 72 74 80 84 79 76 80 80 81 73 61 48 43 29 22 23 28 36 41 47 49 54 55 58 61 63
40 45 46 47 46 48 46 46 43 43 43 44 46 49 50 51 54 58 60 61 65 70 72 78 80 84 80 87 85 82 80 69 57 47 34 24 26 28 33 41 49 52 54 55 59 60 62
39 43 45 45 47 46 45 45 42 43 42 43 45 47 49 49 52 55 58 60 64 70 70 73 77 81 79 84 92 88 84 75 65 51 36 19 27 32 34 37 43 49 54 56 58 59 61
41 40 44 46 46 43 43 44 43 43 43 42 44 46 48 48 49 54 55 59 64 66 69 73 76 79 84 78 85 90 86 79 66 49 37 20 23 33 34 36 41 46 54 58 61 60 60
40 40 42 47 50 47 44 44 43 44 45 43 43 44 47 46 48 53 54 57 63 65 70 73 73 77 85 84 83 90 87 79 64 48 35 21 21 32 37 37 41 43 49 54 57 59 63
37 37 40 39 42 44 43 45 45 46 47 44 43 43 45 46 50 51 54 56 61 62 69 71 71 78 82 84 84 88 84 76 65 47 32 20 20 28 36 38 38 42 44 45 53 60 58
35 37 37 39 41 42 45 46 42 47 46 43 41 43 44 46 48 49 52 56 60 63 68 72 73 79 81 86 86 85 80 73 63 46 31 21 19 24 34 39 39 39 40 42 48 60 62
39 36 37 38 41 43 44 41 41 44 46 44 41 42 43 44 46 47 52 56 60 63 68 71 75 78 85 88 97 80 79 69 62 46 33 23 20 20 30 37 37 38 44 43 43 47 53
39 38 42 46 44 44 43 40 40 43 45 46 40 40 41 42 45 46 52 56 61 62 68 72 76 81 87 93 97 90 76 66 56 43 33 25 21 18 26 34 36 44 35 36 39 45 44
41 38 36 39 42 41 39 40 41 41 43 45 41 42 41 40 45 46 51 58 61 64 69 70 79 82 86 94 98 97 79 65 57 44 30 24 17 18 22 30 39 39 32 33 38 38 40
40 36 37 38 38 36 37 38 39 40 41 43 41 40 41 41 43 47 52 58 60 67 72 73 76 83 88 92 99 103 79 73 63 49 34 26 17 14 20 27 35 36 31 31 32 32 37
40 36 37 37 37 36 37 38 36 38 39 42 43 42 41 41 42 48 52 57 60 68 71 77 80 85 86 94 99 107 93 77 65 54 35 27 19 15 19 26 31 33 27 25 27 27 31
40 36 38 41 40 38 38 37 36 35 36 41 43 44 42 39 44 49 55 57 62 66 72 76 81 85 88 96 100 104 99 83 65 58 38 28 23 17 18 23 31 26 22 23 27 30 29
41 35 36 40 43 43 41 38 35 35 36 40 45 46 42 42 46 50 54 59 63 69 75 77 84 87 92 96 101 102 99 84 68 57 40 27 24 20 19 25 29 24 22 26 27 27 27

GFSGBSN_250_spd_087.txt.gz
Wind_Speed
51 51 49 50 55 57 60 63 65 67 66 68 70 75 79 84 86 90 89 89 89 92 96 96 92 80 59 45 29 18 20 34 52 65 73 80 83 86 90 96 104 103 101 105 103 105 106
50 51 53 55 56 58 60 62 65 67 66 67 68 73 78 83 86 88 85 88 88 90 96 101 96 85 61 47 27 15 12 31 48 63 75 81 82 84 88 92 99 95 101 106 105 106 105
50 51 52 53 57 58 60 61 64 66 68 66 66 71 76 81 83 85 82 85 87 90 93 100 96 88 63 49 31 20 5 23 40 57 69 77 81 81 83 87 91 96 104 101 102 105 105
49 52 53 56 58 60 60 61 64 65 66 65 65 69 74 78 81 83 81 82 84 88 92 99 98 90 65 50 36 26 12 13 36 52 63 73 77 80 80 85 91 96 100 100 99 102 101
51 53 58 58 59 61 61 60 63 64 65 65 64 66 71 75 78 80 79 79 84 85 91 98 96 91 70 52 39 31 15 6 26 47 59 68 71 76 80 82 84 90 95 95 97 98 98
58 56 60 59 62 62 62 61 62 62 63 63 64 63 68 72 74 78 76 77 80 85 89 95 90 88 74 54 40 35 18 5 14 32 51 63 68 71 74 78 78 83 91 93 93 94 93
61 60 65 65 69 63 62 62 63 61 62 61 62 62 64 68 72 75 75 76 76 84 84 90 89 82 78 55 46 38 29 12 2 18 37 53 59 65 70 75 79 82 87 88 90 89 90
66 65 66 65 60 61 61 61 61 58 59 59 60 60 63 65 69 72 73 73 72 81 85 86 85 74 69 63 48 40 34 22 6 8 27 45 56 60 67 68 71 74 79 82 87 88 91
71 73 70 65 62 61 60 59 59 55 56 56 56 57 61 63 65 68 69 69 69 76 82 83 81 71 64 58 55 45 38 27 12 7 13 33 48 54 59 64 68 71 72 78 83 89 89
67 71 66 64 61 61 59 56 57 51 53 54 54 54 57 59 61 64 65 67 68 71 77 80 76 72 64 56 52 55 45 32 20 5 20 31 40 47 52 59 63 66 68 71 77 82 88
70 65 63 61 59 60 57 52 52 51 51 49 51 52 54 57 58 61 61 64 66 69 74 79 78 74 70 60 56 54 50 42 29 13 12 24 37 46 52 55 60 63 65 69 74 77 81
64 58 60 57 58 55 53 48 47 45 46 46 50 49 51 55 55 57 59 59 61 67 72 75 78 76 72 70 63 57 46 44 39 25 10 17 30 39 49 55 56 59 62 65 69 72 71
60 54 56 53 52 50 47 45 44 43 43 44 47 48 47 52 51 54 56 57 62 62 68 71 72 73 72 74 73 64 54 51 39 33 19 11 22 36 46 52 56 60 61 65 67 67 67
56 53 53 49 46 46 45 44 44 40 41 40 43 46 44 49 51 51 55 55 59 58 65 68 68 72 71 74 76 72 70 60 50 35 27 15 18 27 40 48 54 59 62 65 67 66 71
55 52 47 44 43 42 40 41 42 40 40 37 40 43 44 46 48 49 52 51 57 58 64 68 67 68 70 70 74 77 73 67 59 48 32 21 18 23 29 42 52 58 60 64 63 64 65
52 48 46 41 39 39 37 38 40 36 38 36 38 42 42 45 46 46 50 49 54 54 60 65 68 68 70 73 73 76 80 73 62 50 38 25 21 24 27 34 42 53 58 60 61 62 65
52 48 48 41 37 37 36 39 40 36 37 35 37 41 42 44 45 44 47 47 51 51 57 62 67 70 68 72 71 74 80 78 70 56 43 29 22 22 28 30 40 47 55 59 62 63 64
52 51 48 39 36 35 37 38 38 37 34 34 36 41 42 44 45 43 43 45 47 49 57 58 62 65 71 71 74 76 82 79 73 59 48 35 24 22 28 34 36 41 49 56 59 62 65
53 52 47 40 37 36 37 38 37 34 34 35 37 40 41 44 42 42 42 44 47 48 54 59 61 65 69 70 71 71 79 80 74 61 48 37 27 24 26 34 35 39 47 54 60 63 64
54 52 47 39 36 34 39 39 39 37 36 38 38 40 41 41 41 42 40 44 46 47 54 58 63 64 68 74 75 71 77 82 72 62 49 36 26 25 26 31 39 41 45 50 55 56 66
58 54 44 39 35 35 35 37 40 40 39 41 38 39 40 39 41 40 40 42 45 46 53 57 60 64 66 74 76 70 70 78 74 61 51 36 24 24 25 30 37 42 43 45 49 62 61
54 53 41 38 33 34 34 37 39 38 39 41 39 35 39 40 40 39 39 42 44 46 52 55 62 65 68 73 77 78 73 75 72 57 49 36 25 21 24 29 33 39 40 39 46 55 61
57 55 44 34 32 33 34 34 36 37 38 40 39 37 39 38 38 38 37 42 42 46 53 56 58 63 67 74 79 80 77 77 70 55 46 36 28 20 21 26 32 34 41 41 44 50 54
59 51 41 38 33 31 35 35 35 36 39 39 39 38 34 35 36 35 36 41 40 46 52 54 56 61 67 75 81 84 75 73 70 53 43 36 29 21 20 23 25 38 46 44 43 46 48
58 51 43 39 33 30 36 35 34 36 37 38 39 37 33 34 35 35 36 39 39 47 51 56 59 63 70 74 83 85 88 76 71 57 49 38 29 23 19 21 26 42 45 38 40 42 42
57 48 41 39 34 31 32 35 35 34 36 38 37 36 34 34 34 33 38 38 42 47 51 58 60 65 68 74 81 88 89 83 73 59 49 41 29 24 19 21 31 37 38 37 39 40 41
58 49 43 39 35 30 32 32 32 32 35 35 35 36 37 32 34 33 38 37 44 49 54 60 62 66 70 76 82 89 93 94 77 71 54 45 33 25 22 20 28 33 32 34 37 39 39
57 51 46 40 34 31 31 29 30 32 34 35 34 37 38 35 32 34 35 38 45 49 54 61 65 67 73 77 83 88 94 95 79 69 58 51 38 29 22 20 25 30 24 30 33 37 37
60 53 45 39 35 32 33 31 31 32 34 35 37 38 38 36 33 33 35 41 46 51 56 63 66 70 72 78 85 89 94 94 89 74 60 53 42 32 26 20 22 25 25 27 31 34 35

GFSGBSN_250_spd_090.txt.gz
Wind_Speed
59 53 51 48 48 49 50 54 58 61 65 68 68 71 73 75 78 83 83 85 87 81 83 90 86 84 85 60 49 36 21 18 29 42 52 66 72 77 82 86 96 96 102 108 107 105 102
62 56 52 53 46 49 51 54 55 60 64 67 69 70 73 73 76 80 82 83 86 82 81 89 92 88 88 70 51 33 18 13 24 34 45 56 58 66 74 85 95 98 102 106 106 103 103
64 58 53 53 50 49 51 54 56 59 62 67 69 68 72 71 74 78 80 82 83 83 81 86 91 92 87 74 53 33 18 7 16 29 35 45 53 61 69 77 82 91 99 104 106 106 105
64 60 55 52 51 51 53 54 58 61 63 64 66 67 69 69 71 74 78 79 77 81 78 83 89 94 86 74 57 38 24 10 6 16 31 42 56 64 72 74 79 90 100 104 107 105 106
64 61 54 52 53 54 55 56 60 62 62 61 64 64 66 67 68 72 75 76 74 76 77 78 87 88 89 82 67 44 31 17 7 8 24 42 56 65 71 78 85 87 92 94 104 108 105
68 60 59 55 53 53 57 58 62 62 59 59 61 61 60 64 65 69 72 73 70 71 76 77 81 83 85 83 73 48 33 21 17 9 15 29 49 61 68 74 76 82 85 91 100 101 98
69 64 58 59 55 55 58 60 64 65 59 59 58 57 56 61 61 66 69 70 67 66 70 76 77 81 80 74 71 59 38 27 15 19 6 22 38 56 64 71 78 78 80 84 90 94 94
71 68 63 61 59 60 58 61 61 60 60 58 52 53 54 58 57 62 65 65 64 62 66 74 76 77 76 72 64 61 52 37 25 15 6 7 31 45 56 63 70 72 72 74 79 86 92
78 70 66 62 63 63 61 60 59 58 57 53 49 50 49 52 53 58 62 62 63 59 62 68 74 76 78 77 68 57 50 44 32 15 2 14 29 41 51 58 66 72 73 77 76 80 84
80 70 70 67 62 65 65 63 60 58 53 48 47 43 43 48 50 55 58 59 61 56 57 64 72 75 76 75 73 64 49 41 38 23 9 11 23 36 47 56 62 69 73 73 75 77 82
85 74 72 68 65 65 62 61 58 52 50 45 42 39 40 45 47 51 56 56 58 53 53 59 66 70 75 76 74 70 59 48 37 28 15 9 18 31 43 52 59 64 66 71 74 77 75
84 76 72 68 62 59 60 55 52 48 43 39 37 36 36 41 43 47 53 54 57 54 52 55 59 67 71 71 71 71 65 57 45 32 20 12 16 26 37 48 53 56 64 69 72 75 72
84 78 72 68 58 58 55 52 49 43 40 36 33 29 35 37 40 45 50 51 52 52 48 52 59 65 69 69 69 70 69 65 58 44 27 17 15 23 33 43 50 59 64 68 71 69 69
83 78 72 65 59 54 51 48 46 40 38 35 32 32 34 34 38 43 48 48 49 48 49 50 55 64 65 68 68 69 72 69 64 54 39 23 18 22 30 39 50 57 62 64 67 68 71
83 81 74 66 59 55 47 45 43 40 36 29 29 29 32 34 37 41 45 47 47 46 48 49 55 59 63 63 64 66 71 71 71 64 51 35 24 20 28 35 43 52 57 64 64 66 68
78 79 66 67 59 51 44 43 38 37 33 25 26 27 31 33 36 38 43 43 44 45 46 46 52 56 57 57 62 62 71 73 72 68 59 43 32 20 24 34 43 46 52 57 62 64 68
79 78 66 68 59 43 43 39 34 33 33 28 27 27 31 32 35 37 40 40 41 42 44 46 51 56 56 59 63 65 69 75 77 70 63 49 38 25 22 30 44 47 50 51 58 64 66
80 78 71 67 58 43 40 37 34 34 32 27 29 29 31 32 34 36 37 38 39 41 42 44 49 53 56 59 67 67 71 76 81 78 68 57 44 31 21 28 35 44 47 50 52 57 63
82 75 72 65 58 44 38 34 34 35 31 28 29 29 30 30 33 34 34 37 38 41 42 42 47 51 57 60 62 67 71 76 80 81 74 62 49 35 23 23 29 42 47 48 51 55 57
82 77 72 66 56 43 37 36 34 35 34 33 32 29 30 30 32 32 31 35 37 39 40 40 45 50 56 59 63 65 70 75 79 81 77 65 55 40 25 24 26 36 48 49 50 50 56
81 77 71 65 54 44 40 34 34 35 35 35 34 33 33 33 30 30 30 34 35 37 39 41 45 49 54 56 63 69 72 77 79 79 74 63 53 42 28 23 24 30 39 48 47 50 48
80 77 71 60 53 45 37 35 33 32 35 35 36 36 35 32 29 28 30 32 31 34 36 38 45 50 55 57 60 71 74 77 81 77 72 59 52 43 30 22 23 26 31 38 46 47 48
80 77 72 60 52 43 40 34 30 32 34 35 35 37 34 32 27 27 29 29 31 32 35 40 45 48 54 57 61 67 73 79 81 77 74 60 51 45 32 25 21 23 28 32 42 47 48
83 76 70 57 51 44 38 32 32 33 32 32 33 36 34 29 26 28 28 28 30 31 32 39 46 49 54 57 61 66 72 79 85 77 72 62 48 42 33 27 22 23 27 33 37 43 44
82 78 69 59 50 43 36 33 33 34 33 33 34 35 34 27 26 28 27 26 29 32 32 38 45 49 53 58 61 65 75 79 84 76 72 62 51 41 33 28 24 23 28 32 34 42 45
82 74 65 56 50 44 38 34 32 35 35 34 32 32 30 24 25 26 26 24 28 31 35 40 46 50 56 58 63 68 74 80 88 83 76 66 56 47 36 28 25 24 27 27 30 38 41
81 74 65 55 50 45 39 34 30 33 35 33 32 30 28 25 25 25 25 25 26 30 34 39 45 52 58 60 66 69 74 79 86 88 77 67 59 52 43 31 24 26 24 24 26 35 37
82 72 65 59 52 45 39 33 29 32 31 30 29 28 28 29 25 25 27 26 26 30 35 41 45 52 57 61 66 71 78 81 88 91 83 71 60 48 41 36 27 24 20 19 24 32 35
78 70 62 56 49 44 38 34 31 31 28 28 30 30 28 29 28 27 26 26 28 32 36 42 45 53 58 63 67 73 78 79 85 92 91 81 64 57 47 37 30 23 22 18 23 31 35

GFSGBSN_250_spd_093.txt.gz
Wind_Speed
83 76 70 67 63 60 58 57 51 54 53 55 57 62 65 69 67 71 75 78 83 84 90 84 81 88 85 79 61 48 38 24 16 27 36 52 64 69 76 82 88 101 103 103 105 109 109
85 81 73 71 65 61 57 55 53 53 53 55 56 59 65 65 66 68 72 76 79 81 86 82 79 85 83 80 66 49 37 23 11 19 29 41 53 64 73 78 86 94 100 101 103 107 108
85 82 77 75 70 63 59 55 52 54 53 55 57 61 64 65 64 65 68 72 76 79 82 79 76 79 79 78 73 51 38 22 8 5 19 32 50 61 65 76 84 92 100 103 101 102 105
86 82 79 79 70 61 61 55 51 54 54 55 56 60 62 62 60 61 64 69 72 76 78 77 73 75 82 78 76 63 42 25 10 6 12 27 36 58 66 71 80 86 97 100 102 102 105
91 88 80 80 75 62 62 55 52 55 55 54 54 58 60 60 57 57 59 65 67 71 73 72 73 78 78 82 80 66 47 32 12 13 9 20 23 48 58 69 77 80 86 93 98 99 100
84 85 85 83 79 69 62 56 51 56 57 53 52 54 57 58 53 54 55 60 64 67 70 68 71 71 75 77 80 71 55 37 20 16 12 20 29 42 55 62 67 76 84 87 94 99 100
76 78 81 81 77 71 61 60 53 54 56 55 54 55 55 57 49 49 50 56 59 65 65 62 66 67 73 76 75 72 60 45 28 12 20 8 29 44 53 61 69 77 80 85 91 97 98
66 64 71 73 69 70 63 59 54 53 58 54 57 56 52 51 46 44 47 52 54 59 61 57 62 67 68 72 73 69 64 55 42 26 9 16 15 34 48 55 62 64 67 72 75 90 92
57 59 63 65 69 67 65 59 57 54 55 55 57 56 50 47 39 38 43 48 50 55 57 54 57 63 67 69 71 67 63 54 48 36 20 2 22 30 42 51 61 67 66 69 74 78 89
54 55 62 62 66 64 66 63 59 56 54 53 55 48 47 43 33 36 40 45 46 51 53 52 53 61 64 69 71 68 64 60 55 42 31 13 7 25 38 48 59 67 65 62 66 73 76
56 62 58 62 63 65 65 64 60 57 52 52 50 45 46 34 31 33 37 42 44 47 49 48 48 56 62 67 69 71 65 61 58 47 35 25 13 17 31 46 55 61 63 63 63 65 66
58 54 56 62 62 65 65 62 59 58 51 50 48 43 40 29 29 31 36 38 42 44 44 43 44 50 57 63 68 68 67 64 60 55 45 27 20 16 25 37 49 57 65 69 63 61 59
53 48 48 60 60 67 64 63 58 55 51 47 44 41 34 27 31 32 34 35 37 42 42 39 40 45 50 61 65 66 67 68 62 60 51 38 24 17 21 33 43 53 61 67 67 58 56
50 49 52 59 62 66 66 58 57 55 48 45 39 36 30 25 29 30 33 32 34 39 41 37 39 45 49 55 61 65 66 68 65 64 58 47 33 22 19 29 42 50 58 62 66 63 66
73 60 47 62 63 65 66 55 55 55 45 40 37 33 28 24 29 29 31 29 32 35 39 36 36 45 48 52 58 60 64 67 71 67 61 55 42 25 23 23 37 49 53 58 63 67 69
82 67 54 66 67 67 66 56 54 48 45 41 35 28 24 26 28 28 28 27 31 31 36 35 36 38 44 48 52 57 62 68 72 73 65 59 52 34 24 20 31 41 52 55 62 65 67
90 75 65 68 70 67 65 58 53 46 42 37 31 28 24 25 29 28 26 26 29 29 33 34 34 37 42 47 49 56 62 69 72 75 70 65 56 41 31 21 25 36 45 53 60 62 65
92 81 70 70 73 66 63 60 54 49 42 37 28 28 27 28 29 28 25 25 28 27 30 32 32 38 41 48 54 56 61 69 74 75 77 71 56 44 36 27 20 25 37 47 54 57 62
92 82 72 73 74 68 68 59 53 47 40 35 27 28 28 29 28 27 23 23 26 27 29 30 33 37 43 48 51 57 61 69 74 74 78 77 67 50 38 31 21 21 30 40 51 57 58
92 83 75 77 71 73 68 59 53 45 41 32 27 27 27 29 28 26 23 23 23 25 27 29 32 36 42 49 51 50 58 66 74 74 76 79 71 54 40 32 21 21 25 34 44 53 57
88 82 77 73 73 72 66 58 52 47 38 29 29 30 29 30 29 26 24 22 23 24 25 26 27 33 39 45 51 52 56 64 71 76 75 76 69 54 43 33 21 20 23 26 36 48 52
90 80 78 77 75 72 63 59 51 45 34 30 31 33 30 31 31 26 24 21 22 23 24 26 26 31 37 43 47 50 56 63 70 76 75 73 67 56 43 36 24 17 19 22 27 36 46
86 79 78 79 74 67 61 56 50 41 34 31 33 32 30 30 30 26 21 20 18 22 23 26 26 32 38 43 47 51 52 60 69 75 77 74 69 58 45 37 28 20 18 20 26 29 39
80 78 80 77 72 64 60 55 46 37 32 30 32 32 32 31 28 21 18 19 17 21 23 26 27 32 37 41 48 53 52 60 67 78 82 74 67 56 46 37 33 25 21 20 24 28 32
82 81 81 76 70 66 62 55 47 37 33 31 31 30 31 23 18 18 18 16 17 19 21 24 27 30 35 42 48 53 54 61 68 76 79 79 69 60 52 44 38 31 21 21 22 25 30
85 86 83 80 74 70 63 54 43 37 33 32 31 29 27 19 17 16 17 16 16 18 21 23 27 32 36 40 48 54 60 62 67 74 80 82 77 70 58 48 42 38 27 19 19 20 26
90 87 83 77 75 70 62 52 44 37 33 30 33 31 24 19 18 18 16 15 16 18 22 25 29 33 37 42 47 55 61 63 70 74 78 83 82 75 69 61 48 39 31 21 20 20 23
93 84 79 74 70 65 57 49 42 39 35 33 30 24 22 22 20 19 14 15 16 17 22 26 30 34 39 44 49 56 63 66 70 75 79 84 82 78 73 62 53 44 35 27 25 23 24
90 85 79 76 70 63 55 48 44 40 35 34 33 24 24 23 22 20 14 14 17 18 23 27 31 35 40 45 49 56 62 67 71 73 79 88 83 80 72 62 55 49 39 33 27 26 27

GFSGBSN_250_spd_096.txt.gz
Wind_Speed
97 94 93 92 88 82 77 75 68 64 62 58 55 58 60 60 61 61 66 68 72 75 78 79 82 79 74 74 72 63 44 35 22 7 21 35 45 53 62 76 86 98 91 99 102 104 105
96 97 92 93 90 86 81 76 70 62 61 57 55 55 60 59 59 58 63 65 70 71 74 75 79 78 70 74 66 61 45 35 21 2 17 32 46 50 57 69 78 93 96 96 99 100 104
74 71 81 87 88 83 82 77 72 66 60 55 54 53 58 59 59 57 63 63 67 67 69 72 77 76 67 70 67 69 51 36 25 3 15 25 40 52 60 70 73 88 100 99 100 100 100
74 73 69 68 70 80 83 80 75 69 60 54 54 54 56 58 58 57 62 60 63 64 65 69 72 75 68 71 71 67 55 39 26 5 15 19 34 49 57 62 71 79 93 97 98 100 99
61 59 55 65 60 66 75 79 74 68 61 54 55 54 53 56 57 58 60 58 59 60 61 65 68 69 71 71 73 70 63 44 27 11 13 23 23 45 56 66 70 75 86 95 96 97 102
81 68 60 45 57 58 61 73 72 66 60 53 57 54 51 54 57 57 58 55 55 55 57 60 64 62 68 67 68 71 63 49 33 14 6 25 30 33 47 58 63 72 82 94 96 102 107
87 67 64 52 45 55 53 62 70 62 59 54 55 54 53 54 53 54 58 50 50 50 52 54 58 56 62 65 62 68 66 54 40 23 6 17 38 40 43 51 62 67 70 83 90 96 102
93 87 64 46 50 50 53 56 65 61 58 57 52 53 51 50 51 51 52 44 46 47 47 50 53 51 56 62 63 64 65 56 48 32 16 4 28 41 48 51 56 57 62 73 84 87 93
92 83 75 60 41 36 51 51 54 56 54 51 49 49 50 48 48 49 47 40 42 41 43 45 47 45 51 58 60 64 66 59 51 42 23 8 11 31 44 50 57 63 61 65 76 86 84
87 69 68 50 41 40 46 47 50 52 50 48 49 50 48 45 44 47 40 37 38 38 39 41 41 40 48 53 58 62 65 63 58 51 40 18 7 18 38 48 54 60 63 64 67 71 78
71 70 53 45 37 34 45 46 49 49 50 47 48 49 47 44 43 44 38 34 34 34 36 38 38 36 43 50 56 61 60 61 57 55 50 36 13 10 23 39 47 54 60 64 68 70 71
60 56 53 52 44 40 45 49 51 51 50 47 49 48 45 45 41 41 36 33 31 29 32 35 34 34 38 45 53 60 61 60 57 54 54 46 29 10 14 29 43 54 58 61 62 67 65
49 52 60 63 60 44 50 53 54 51 48 48 46 46 43 45 43 37 35 32 27 26 28 31 30 30 35 41 47 54 58 60 60 58 55 52 37 21 14 21 33 47 55 60 62 64 58
44 55 56 71 70 49 55 56 57 53 50 47 46 43 41 39 40 35 32 30 24 24 25 28 29 26 33 39 42 48 54 59 60 60 60 58 47 30 16 18 27 40 49 54 59 60 56
39 49 56 76 75 56 63 57 60 57 54 50 46 44 39 38 36 33 31 26 22 23 23 26 27 27 31 39 45 48 52 58 61 61 62 60 58 42 22 17 23 34 46 55 60 61 58
41 45 56 80 82 68 66 61 59 55 52 51 46 42 39 37 34 33 30 25 20 21 23 24 24 26 28 35 42 44 49 56 61 66 63 62 57 48 32 20 19 27 41 52 57 61 62
37 43 60 81 87 75 66 67 63 58 56 51 48 44 39 36 33 32 28 22 18 19 22 24 22 23 29 30 36 41 48 52 59 67 67 64 58 51 39 26 19 19 30 44 56 60 64
36 47 62 82 88 77 69 68 63 56 53 49 46 43 37 33 33 31 25 19 17 18 20 21 21 19 26 32 34 41 44 51 58 67 72 69 63 57 45 32 25 18 22 30 44 56 62
37 48 66 82 85 76 71 68 67 62 59 52 47 42 35 35 35 29 24 19 16 17 19 19 20 19 24 31 38 42 46 53 58 66 74 74 72 65 55 37 28 21 19 26 37 52 58
36 53 71 81 83 76 69 65 64 62 58 51 45 39 35 37 33 27 23 18 16 16 17 17 19 20 25 28 34 41 46 52 58 64 73 77 72 69 59 45 29 23 18 20 28 40 52
38 59 73 76 77 67 67 70 71 64 57 52 43 37 37 36 30 26 23 17 16 16 16 17 16 18 26 32 36 40 46 49 54 63 70 76 75 70 60 46 33 24 19 18 21 30 40
40 60 70 74 75 77 72 72 66 59 56 49 44 39 37 32 28 25 24 19 17 15 16 15 14 16 21 29 33 38 44 49 55 59 66 71 74 67 55 44 35 25 19 18 19 24 33
46 55 62 64 74 71 72 72 65 59 54 50 43 40 36 31 28 25 23 19 18 15 15 14 14 14 20 25 30 36 42 47 50 56 61 68 73 66 53 47 38 28 18 14 17 20 29
67 68 64 61 70 76 73 70 63 60 56 51 44 39 37 30 29 26 23 19 16 15 13 13 14 14 20 26 31 34 42 47 49 56 61 68 73 67 57 56 43 34 26 17 15 18 22
72 70 66 73 76 78 74 67 66 62 54 47 41 38 33 31 28 25 20 19 15 15 13 12 15 15 21 27 32 35 41 47 49 57 65 67 72 76 69 61 51 41 33 26 19 15 20
76 72 68 71 78 77 75 72 66 59 52 45 41 33 33 27 25 21 18 18 15 14 12 13 17 17 21 27 33 37 41 48 50 57 63 68 73 79 76 69 60 52 40 33 25 19 20
72 71 74 81 80 75 72 70 62 57 51 44 37 32 28 24 23 20 18 16 14 13 11 13 17 18 21 27 33 38 41 47 53 57 65 70 73 77 80 75 67 59 49 39 31 25 24
76 70 81 83 81 77 75 69 64 58 48 43 36 32 24 23 20 20 18 17 14 12 11 14 18 18 22 27 34 39 42 47 55 59 64 70 73 77 80 77 75 67 59 48 38 29 27
69 77 86 84 81 77 72 67 64 55 47 41 35 30 27 22 23 21 20 17 16 12 11 14 18 19 23 29 35 40 43 49 56 62 65 71 76 76 76 79 78 74 69 58 46 37 30

GFSGBSN_250_spd_099.txt.gz
Wind_Speed
71 76 69 76 71 71 70 74 85 83 83 80 78 70 63 56 56 57 59 62 67 69 72 77 80 80 72 61 67 69 58 48 34 23 15 18 27 39 45 57 73 81 95 96 100 106 108
78 70 71 64 63 60 61 58 62 70 74 79 75 68 63 54 53 53 57 60 65 69 71 76 77 78 72 61 62 63 57 53 37 25 12 15 24 29 38 53 64 76 91 93 99 104 106
77 72 66 58 56 56 54 54 52 62 58 68 68 65 61 52 52 51 54 58 61 66 70 72 76 73 69 62 59 62 60 59 43 28 9 11 20 26 32 44 61 74 83 87 93 101 102
78 74 74 50 49 40 40 46 47 58 57 56 64 62 59 51 51 48 52 55 57 62 67 70 70 66 66 59 61 63 60 56 42 30 15 9 18 26 31 38 55 69 80 82 93 95 100
84 82 76 62 53 51 42 44 41 48 51 50 54 57 56 51 48 45 50 53 55 59 63 66 64 62 65 62 56 60 60 58 40 28 20 9 16 25 31 35 43 58 75 81 86 92 97
90 89 84 73 57 60 46 37 31 40 47 43 48 51 51 48 45 44 47 51 54 56 59 60 57 57 60 60 55 58 61 57 45 28 17 14 16 21 30 37 38 52 72 80 83 84 92
94 94 90 70 60 52 47 35 42 38 42 43 45 45 49 45 44 42 45 47 53 52 55 56 50 49 52 54 55 54 56 58 51 38 21 10 20 23 27 31 38 48 55 70 76 77 86
99 94 84 64 37 40 40 40 39 33 39 40 41 43 47 46 41 41 43 46 49 46 51 48 45 44 46 48 52 53 52 55 49 43 30 18 13 23 27 34 37 40 48 62 71 70 76
88 88 84 67 59 41 30 43 41 41 39 40 38 42 44 44 42 40 40 44 42 44 46 43 39 41 38 43 48 52 52 50 51 41 36 22 13 17 26 34 40 44 49 58 65 70 74
88 81 69 57 55 52 39 46 47 44 47 45 38 41 42 43 41 37 39 41 40 41 42 37 34 37 34 38 45 51 51 50 53 49 44 38 22 15 19 33 43 50 55 57 62 66 70
77 67 65 59 53 54 53 56 58 51 52 48 42 43 42 40 35 35 37 37 37 40 38 32 30 32 30 35 41 48 51 52 54 50 47 42 33 21 19 24 35 49 56 61 63 64 67
77 70 61 57 52 54 60 63 65 60 56 48 47 45 41 35 35 37 35 36 36 38 34 25 26 28 26 30 36 42 49 53 55 56 53 49 41 26 20 22 28 41 49 57 60 66 68
82 69 59 52 49 49 55 65 70 68 55 52 50 47 43 38 36 37 36 35 34 36 28 22 24 26 23 28 35 38 44 51 55 59 56 53 47 35 21 22 26 34 46 52 58 64 65
78 65 52 44 44 47 59 68 77 69 59 56 54 49 44 41 37 36 35 34 32 32 23 20 21 23 22 24 27 34 40 47 52 57 59 56 50 41 28 18 25 31 38 47 52 58 62
58 51 47 36 41 47 63 76 81 70 65 57 54 51 46 39 35 36 33 31 30 26 19 17 19 21 19 24 27 31 37 44 51 55 59 57 54 46 34 21 19 27 32 42 51 58 62
49 42 42 34 38 47 66 77 81 76 66 62 59 53 48 38 37 36 33 30 27 21 16 15 17 19 16 22 26 31 37 43 49 53 58 62 56 53 40 28 19 23 32 35 44 52 54
46 39 35 33 36 46 66 78 79 69 65 66 62 57 48 40 36 37 33 30 24 19 14 13 15 14 14 19 23 29 34 40 47 52 58 62 60 56 47 35 24 20 24 30 38 44 54
44 34 30 29 39 47 71 80 69 72 70 66 62 55 47 43 42 38 33 27 22 18 13 12 15 12 10 16 21 28 32 38 44 52 59 63 66 58 55 45 32 21 21 24 32 37 50
37 29 25 30 38 50 74 80 71 65 69 67 63 57 49 46 44 37 32 24 20 17 13 12 13 11 10 14 19 27 33 39 45 52 58 65 70 65 58 50 39 28 20 19 25 34 40
33 25 20 26 30 59 69 73 68 71 71 66 63 53 48 46 43 37 30 23 20 16 13 13 11 11 11 16 20 27 34 37 44 50 57 63 69 71 64 54 41 31 23 17 16 22 40
29 20 18 23 42 67 75 75 74 72 69 66 58 52 51 48 42 35 28 24 21 17 13 14 12 10 10 14 20 23 30 35 41 49 55 59 67 72 66 59 45 34 24 18 13 20 25
23 19 15 26 50 60 75 73 73 70 67 62 57 53 51 47 40 35 30 25 21 17 14 14 12 10 9 13 18 25 29 35 41 46 51 59 64 71 70 58 48 35 28 21 16 16 22
19 13 17 28 32 53 71 65 68 70 67 61 57 54 50 45 40 36 31 26 22 18 15 13 12 9 10 14 20 26 30 34 40 44 50 56 63 68 68 61 52 47 36 27 20 17 21
14 15 29 31 45 49 69 68 69 68 67 64 58 56 50 43 39 35 29 25 22 18 16 13 12 8 9 14 21 25 31 33 40 42 47 59 64 68 73 67 62 53 44 34 26 19 20
13 15 25 45 47 53 60 70 72 69 64 58 55 52 45 42 38 34 28 24 22 18 18 13 11 9 8 13 18 24 30 34 39 43 49 57 65 68 75 74 67 64 53 44 35 27 21
14 17 27 51 56 59 69 74 71 65 60 54 51 45 41 41 37 30 25 23 21 19 18 14 12 8 7 13 18 24 30 35 38 45 51 58 62 70 74 76 75 69 63 54 48 34 26
18 25 31 51 64 73 77 75 68 63 57 53 50 44 42 39 32 26 24 22 21 21 17 13 12 8 6 12 18 24 30 38 40 45 52 59 61 67 74 78 78 74 67 63 57 42 32
22 34 46 64 58 73 77 73 67 61 56 54 50 45 40 36 32 24 22 22 23 20 16 13 10 8 8 12 19 24 30 36 40 46 52 58 61 67 77 79 80 76 74 70 65 49 39
33 47 56 66 69 78 78 73 67 61 58 57 51 45 38 35 31 28 29 25 23 19 17 13 12 9 7 12 18 24 29 36 43 48 54 59 60 70 74 78 84 80 80 76 72 60 45

GFSGBSN_250_spd_102.txt.gz
Wind_Speed
75 78 73 74 67 61 59 50 55 66 71 67 69 76 77 75 72 68 65 64 54 56 58 59 62 69 73 74 58 60 60 58 52 44 32 24 19 18 27 39 47 57 60 68 73 79 90
87 88 86 80 75 72 61 62 50 46 57 59 69 66 65 65 60 60 55 55 50 51 54 55 59 64 71 71 64 63 60 55 51 42 30 24 15 14 20 29 41 49 57 72 77 83 88
91 93 93 92 80 71 67 58 41 43 43 52 61 58 55 56 51 45 48 46 47 47 51 51 56 61 66 70 64 58 61 55 50 43 31 23 10 9 14 21 33 44 58 71 80 79 85
95 95 95 96 79 66 61 47 44 37 43 43 49 54 53 53 49 41 43 42 44 43 46 48 53 57 60 67 58 55 62 55 49 47 35 27 18 6 10 16 28 48 60 72 78 80 81
95 99 104 97 81 66 61 50 36 39 37 39 46 59 59 51 44 38 39 38 41 39 42 44 48 53 57 61 55 52 57 59 48 47 42 30 21 11 5 9 17 42 61 68 74 78 80
100 100 100 97 84 70 62 42 33 33 39 37 46 50 47 48 40 36 35 36 35 35 39 40 44 47 52 54 53 51 52 56 60 58 53 39 25 13 6 9 16 25 49 59 69 62 73
101 103 100 96 89 76 58 44 39 40 40 44 42 47 44 46 38 32 35 33 33 31 35 36 41 41 48 47 48 48 48 49 54 54 50 46 37 24 16 13 15 19 36 52 66 61 59
104 104 102 96 84 82 64 44 46 51 55 47 45 50 46 40 36 35 32 29 30 29 31 32 36 38 41 42 41 45 45 44 48 48 46 43 37 29 17 13 18 21 28 40 52 54 66
108 107 101 92 83 84 65 51 51 54 60 56 49 49 47 42 36 35 29 30 27 28 26 28 34 35 34 35 36 40 44 44 43 45 44 40 40 33 25 14 18 27 31 34 44 46 54
109 108 99 88 83 74 66 58 54 60 60 60 57 54 50 47 39 37 31 28 27 27 24 26 29 31 29 31 32 36 39 42 40 43 44 45 43 37 31 22 17 23 36 37 41 45 50
115 109 97 91 77 71 64 58 55 59 61 63 63 58 51 50 44 39 33 30 28 27 22 25 26 27 24 26 29 32 36 40 42 43 43 41 42 39 34 27 24 21 31 44 43 49 48
114 106 98 91 73 63 54 48 48 52 62 61 67 61 56 49 48 41 35 35 29 25 22 23 25 22 21 23 25 29 33 37 41 44 46 45 43 40 35 31 27 25 29 41 53 52 53
115 103 93 84 72 54 45 39 44 52 62 63 67 64 57 53 51 42 38 37 29 24 21 20 23 17 18 20 22 26 31 37 41 45 48 48 45 40 37 33 29 29 28 35 42 47 52
114 102 90 71 62 51 36 37 42 51 57 70 71 63 57 55 54 46 40 39 30 23 21 19 18 15 14 15 18 22 28 34 39 44 49 50 48 45 38 34 29 28 30 30 37 45 52
105 99 83 61 55 45 32 38 37 48 62 74 68 65 61 57 53 46 44 39 30 22 19 18 14 13 12 14 16 20 26 33 38 43 48 52 49 48 45 36 30 27 27 29 35 41 48
108 94 75 56 47 39 35 34 34 48 67 73 66 65 62 58 55 48 45 36 27 22 19 17 11 11 11 13 15 20 26 32 39 44 48 53 55 52 48 42 34 28 27 26 29 35 43
100 85 68 50 41 32 33 26 35 49 64 69 70 68 62 59 54 49 45 33 26 23 20 15 10 9 10 11 13 18 26 32 38 43 47 53 57 56 54 48 40 32 25 24 26 29 35
92 79 61 40 37 27 25 26 39 50 56 67 70 66 64 61 56 52 44 33 28 25 19 15 10 8 9 9 11 18 24 30 37 43 48 53 59 59 58 53 47 37 25 21 20 23 32
89 71 52 37 27 22 21 28 43 52 66 70 72 67 66 62 56 50 43 34 29 24 20 16 10 8 8 9 11 17 22 29 35 40 48 52 60 63 59 55 49 43 32 20 19 20 27
88 64 40 29 21 16 17 28 31 55 61 70 69 69 66 58 54 47 39 34 29 24 21 16 10 9 8 9 10 15 20 27 35 41 46 53 59 65 65 59 53 44 36 24 18 17 22
87 60 36 23 13 11 20 26 33 53 64 69 63 71 64 60 55 47 40 33 29 26 21 16 10 9 8 7 8 15 21 26 33 39 44 51 58 64 66 62 54 47 36 29 21 16 16
81 56 33 16 7 11 19 33 46 62 68 65 73 67 63 60 52 46 40 33 30 25 20 16 10 9 8 7 7 14 20 27 31 38 43 48 55 60 66 64 56 47 39 33 26 19 16
73 50 31 19 12 15 22 42 62 66 67 73 67 64 62 56 49 43 37 32 29 25 19 14 10 9 9 8 8 14 20 25 31 36 41 47 51 59 66 68 62 55 52 41 29 21 18
67 45 29 20 14 6 21 42 60 71 70 69 66 61 58 53 46 40 37 31 29 24 18 13 11 10 10 8 7 13 19 26 31 37 42 45 49 57 64 69 68 64 61 51 41 28 19
61 38 26 16 13 24 37 61 73 72 69 65 63 58 53 46 42 38 34 29 29 24 18 14 12 11 10 6 7 12 19 26 31 36 42 46 49 55 64 70 70 70 70 60 55 45 27
55 35 18 10 22 37 38 51 70 68 68 65 62 57 50 42 38 34 32 29 29 24 18 14 12 12 9 5 6 13 18 24 29 35 41 47 51 57 64 73 75 73 71 63 58 53 41
49 32 9 14 34 42 49 59 68 68 68 64 58 52 46 42 36 35 31 29 29 23 19 15 14 13 11 5 6 12 17 22 29 35 41 47 50 55 63 71 76 78 75 72 68 60 52
44 28 7 19 44 54 54 62 57 67 65 60 54 50 44 40 37 33 29 30 27 22 18 16 15 15 13 5 6 11 15 21 29 36 41 46 51 56 64 67 79 79 82 79 74 65 62
39 26 10 22 49 57 54 56 58 65 64 59 53 49 44 40 35 32 28 28 24 21 20 17 16 15 11 6 8 11 16 22 29 36 44 46 53 59 65 68 76 82 89 83 82 74 70

GFSGBSN_250_spd_105.txt.gz
Wind_Speed
80 82 79 79 81 77 77 77 64 64 50 54 50 53 59 59 66 64 63 55 52 56 55 54 50 54 57 66 68 58 44 46 46 49 49 42 29 16 8 16 24 39 48 52 63 74 79
87 83 83 80 81 79 81 75 70 61 54 48 49 50 53 57 61 62 54 46 48 48 43 42 41 45 51 60 62 54 43 45 50 49 45 34 17 8 5 7 18 32 38 50 54 59 65
85 84 83 88 87 84 84 83 71 56 50 50 45 50 51 49 52 53 50 43 45 41 33 32 34 38 45 53 59 52 39 42 44 41 34 29 16 12 9 5 7 21 42 48 53 56 61
87 89 89 89 91 91 85 83 70 50 48 44 47 48 50 48 51 47 45 41 40 35 28 28 27 32 40 47 55 52 38 41 41 34 36 33 21 17 13 10 5 10 33 39 50 55 58
88 89 88 91 97 94 91 77 61 54 49 44 44 52 52 48 48 47 46 40 36 29 23 23 22 27 34 42 50 52 40 40 44 37 38 41 33 21 16 9 4 7 19 36 44 56 58
91 92 93 98 96 99 93 76 66 55 46 41 43 57 54 53 48 45 42 40 34 25 21 17 20 24 29 36 46 46 43 42 48 46 49 46 39 30 19 9 5 4 14 23 41 46 51
97 96 96 97 96 96 91 71 65 56 50 42 44 61 59 54 49 44 45 40 33 26 19 14 15 20 25 33 41 42 42 39 41 44 47 46 43 37 29 16 7 1 10 18 23 44 42
96 99 102 103 97 96 80 70 66 54 52 45 50 60 60 59 49 46 46 42 31 27 20 13 12 17 22 30 35 37 37 39 42 43 44 41 40 37 32 24 13 8 8 12 32 36 41
108 108 107 105 101 91 78 74 63 53 49 41 53 59 59 61 49 48 46 38 32 27 21 15 10 14 19 27 28 32 33 35 39 40 41 43 41 38 33 28 19 11 15 18 22 26 30
111 118 117 113 104 91 79 69 59 45 39 35 43 54 57 59 49 51 44 39 36 29 23 16 11 12 17 25 25 28 31 32 34 37 39 38 44 42 35 28 23 17 16 20 25 28 30
116 128 118 116 108 96 81 65 50 38 35 30 42 52 52 62 53 53 48 42 38 33 26 18 12 10 15 19 20 24 28 30 32 36 39 38 39 39 36 32 24 23 17 19 25 31 35
118 130 122 114 107 90 79 61 46 34 33 28 39 52 53 58 55 50 48 43 41 37 29 19 13 10 13 14 16 20 25 29 30 33 36 37 39 40 41 36 30 26 22 22 25 31 36
126 131 126 113 98 84 69 57 43 32 30 26 39 48 54 59 57 51 50 46 45 39 30 22 15 10 11 10 12 16 21 26 31 35 38 39 40 38 40 41 34 27 24 23 26 31 37
122 126 126 108 93 79 61 52 40 31 28 29 42 46 55 60 58 53 51 49 45 38 31 24 16 12 10 7 8 13 19 24 30 35 39 43 43 43 39 38 35 30 24 22 24 30 39
124 128 113 99 86 72 55 42 35 31 26 33 43 50 58 58 57 53 53 52 47 36 31 23 17 14 9 6 5 9 15 22 28 33 38 42 45 47 46 40 35 34 26 21 21 31 39
132 131 105 90 81 67 48 37 34 26 24 33 43 54 53 60 56 55 55 53 47 36 31 24 18 15 9 5 3 6 14 21 27 32 38 43 47 47 47 43 37 34 27 19 20 26 35
144 123 97 83 67 57 44 31 22 14 21 35 44 53 54 61 60 56 57 53 44 34 30 24 20 15 9 5 3 6 13 20 26 32 38 42 47 50 48 50 42 37 31 21 16 19 29
140 120 96 80 62 47 36 20 11 14 22 32 42 54 59 63 64 61 59 51 41 35 30 25 21 15 9 5 3 9 13 19 26 34 38 43 49 51 51 48 48 46 35 25 13 13 23
139 123 95 79 57 46 28 11 9 15 23 31 41 51 63 64 65 63 58 50 39 36 32 26 21 14 8 4 2 7 13 18 24 33 39 44 50 55 55 56 57 48 40 32 18 11 17
122 117 92 77 53 40 21 6 5 11 21 30 48 58 66 67 66 61 56 45 39 34 31 27 20 14 8 5 2 5 12 18 23 30 38 45 51 56 57 56 54 49 37 30 25 13 14
126 110 84 70 49 32 16 0 6 16 22 37 54 62 67 68 63 58 51 45 39 34 30 26 20 13 8 6 2 5 11 17 23 29 37 44 50 55 59 59 56 49 41 32 28 20 13
130 110 83 62 44 22 10 13 20 27 30 54 63 63 64 65 59 56 49 43 38 34 31 25 18 13 9 6 2 5 11 17 23 29 36 42 47 53 59 62 59 55 47 43 35 27 19
130 111 84 51 34 14 7 20 35 39 50 53 60 64 66 63 59 54 49 41 36 34 30 24 17 13 9 6 3 5 10 16 22 27 33 40 46 53 57 62 60 55 57 43 40 28 22
121 103 81 51 21 10 11 25 38 57 58 57 63 61 62 59 55 50 44 37 35 33 28 23 17 14 9 6 4 3 8 14 20 27 32 37 44 50 54 61 67 66 59 55 44 38 33
119 99 76 48 16 12 17 23 39 50 61 61 63 62 60 57 52 47 43 38 37 33 28 22 18 13 9 6 5 2 7 13 21 27 33 37 41 46 52 59 62 68 69 64 56 51 41
113 97 73 45 16 11 15 19 36 52 62 65 64 60 58 54 50 45 39 34 36 33 27 22 18 13 8 7 5 4 7 12 19 27 33 37 42 46 51 57 65 69 70 70 62 59 54
115 97 67 42 20 8 23 18 29 47 55 60 60 56 53 49 45 40 37 31 31 31 26 20 17 13 9 8 8 5 7 12 17 25 32 36 41 46 51 57 62 67 71 72 71 72 60
118 99 65 38 18 10 19 26 37 38 47 57 57 54 51 47 41 37 34 30 32 28 23 20 16 13 11 7 8 7 7 13 18 24 29 37 41 46 52 54 62 69 72 75 75 74 69
101 89 58 40 18 14 23 36 42 45 54 52 55 52 49 44 39 35 34 32 29 25 22 19 17 15 11 9 9 7 9 11 17 23 30 34 41 46 49 55 58 67 73 75 77 76 75

GFSGBSN_250_spd_108.txt.gz
Wind_Speed
74 80 80 79 77 77 76 79 78 72 67 58 48 46 43 45 53 56 54 52 50 48 46 38 35 39 44 48 53 50 46 41 43 43 41 40 43 44 39 36 36 38 45 55 68 76 86
76 83 78 83 78 86 80 80 77 75 66 53 45 42 40 41 48 50 55 51 46 43 38 36 33 35 36 41 43 42 39 36 36 36 38 41 40 34 28 26 25 28 34 45 60 68 74
79 84 83 83 86 89 90 87 82 73 63 49 43 42 37 38 37 48 48 49 43 39 34 31 30 28 30 32 35 35 32 30 32 30 32 32 27 23 18 17 16 14 16 29 44 59 67
78 92 87 86 92 93 93 94 86 74 60 47 44 43 40 39 41 44 48 47 41 35 30 30 29 25 23 26 29 32 28 24 29 22 24 22 22 15 7 4 8 8 15 28 38 46 55
81 92 87 89 99 101 98 94 87 71 58 51 48 46 44 40 43 42 48 43 40 31 29 29 23 21 18 21 23 27 24 20 28 26 26 27 27 24 11 8 9 10 3 16 32 40 44
89 94 88 97 100 104 100 95 81 70 58 56 49 45 46 43 45 42 49 42 40 35 30 27 22 16 13 17 22 24 21 20 32 31 37 34 35 34 26 16 8 8 7 4 13 29 37
96 101 99 100 109 103 101 91 77 66 59 55 46 39 43 41 45 44 48 45 38 35 31 28 22 12 10 14 21 21 20 20 27 35 37 37 37 38 33 24 11 5 5 6 5 15 22
101 108 101 105 112 108 104 85 71 68 58 53 41 33 38 38 42 42 48 50 39 36 34 30 21 12 11 13 17 21 20 19 26 31 35 35 35 36 34 29 21 11 1 6 8 11 16
107 111 109 120 117 118 109 85 76 67 57 47 37 28 33 34 34 36 49 45 41 39 36 31 22 15 12 12 15 17 20 20 24 29 29 33 36 36 35 32 24 15 7 9 14 19 21
106 110 111 125 124 118 107 90 81 68 52 36 29 27 30 25 30 35 54 45 44 42 40 34 25 17 12 9 12 14 18 21 23 25 25 31 33 35 36 36 31 20 12 7 14 21 24
113 121 125 131 128 122 106 92 79 64 44 29 22 27 28 26 27 35 49 50 47 46 43 36 27 18 12 7 7 10 14 18 23 27 28 30 34 37 34 33 31 27 18 12 13 20 26
122 125 129 131 127 119 99 92 72 54 34 26 18 26 25 31 28 34 47 52 51 48 45 37 28 20 13 6 3 6 11 16 21 25 27 29 31 34 35 35 31 28 24 18 14 20 27
122 127 133 131 123 108 95 87 65 45 29 20 17 26 28 33 31 36 48 57 55 53 47 39 30 20 13 6 1 4 10 14 20 24 27 30 32 32 31 33 33 30 25 20 18 23 32
125 131 132 128 125 99 89 74 55 39 25 11 18 23 32 35 35 36 45 55 55 53 47 38 30 22 14 7 2 4 9 16 21 24 29 31 35 36 35 32 31 29 26 21 19 25 33
124 133 133 134 123 96 75 58 45 31 19 7 15 24 33 36 40 48 51 59 55 52 47 39 30 22 15 8 4 2 8 15 21 25 29 31 34 34 36 35 32 28 25 20 20 24 31
130 139 132 136 124 98 70 54 36 24 9 8 18 29 37 42 47 52 57 60 54 50 46 38 30 23 16 10 7 1 7 13 20 25 30 32 36 36 38 40 37 35 28 22 19 20 26
133 139 137 131 117 99 68 50 32 17 5 13 23 31 38 44 51 59 62 59 54 50 46 37 30 23 17 13 8 1 4 10 16 23 30 34 36 40 41 47 45 43 34 26 19 18 21
132 137 136 120 114 96 65 42 26 12 5 16 27 35 42 49 61 61 61 56 53 50 45 37 30 24 18 14 10 3 4 9 14 21 28 36 40 42 46 50 51 49 37 31 23 16 19
134 135 131 119 108 88 56 33 19 6 9 25 30 36 41 58 64 63 60 56 50 48 43 37 29 24 18 14 10 4 4 9 14 20 28 34 41 45 48 52 55 55 47 31 27 20 17
134 134 124 116 100 77 49 24 9 5 14 33 34 40 45 57 62 61 59 56 49 46 41 35 29 24 19 16 11 4 4 9 15 22 28 35 42 48 50 51 53 56 50 41 29 20 15
132 134 124 111 95 70 44 15 3 16 30 38 39 43 49 61 60 58 58 55 48 44 40 34 29 24 19 17 13 5 3 10 15 21 27 33 39 46 51 54 53 48 48 43 36 29 20
136 128 125 108 94 71 39 10 13 28 38 39 39 42 46 53 59 60 58 51 48 43 38 33 29 23 20 18 13 6 4 9 15 21 26 32 37 44 51 55 54 50 52 55 44 33 18
137 131 125 100 90 70 36 4 13 32 37 34 37 40 46 51 56 59 56 50 46 42 38 33 28 23 20 18 12 5 3 8 14 20 24 32 38 43 49 55 55 54 56 52 47 38 37
134 132 119 99 85 68 37 5 13 37 39 35 35 40 46 50 53 57 51 47 43 38 37 32 26 22 18 16 11 6 2 7 12 19 25 31 37 41 48 54 61 60 59 56 54 45 38
130 133 114 97 88 69 33 13 8 33 39 38 39 49 50 49 53 52 47 43 40 37 35 30 25 20 17 14 11 6 1 5 10 16 23 29 35 40 47 51 54 62 64 63 65 58 56
132 127 108 92 82 71 38 17 9 20 29 33 41 51 54 55 53 49 45 41 39 35 33 29 24 20 17 14 11 6 1 4 9 17 21 27 33 38 44 50 55 57 63 65 65 62 59
132 123 103 88 79 62 39 29 5 6 11 19 29 41 53 59 52 47 42 40 39 35 31 28 23 20 17 14 12 7 1 4 9 14 21 26 32 36 43 48 51 56 61 62 68 67 64
123 113 101 88 79 57 37 27 15 16 17 11 29 46 53 52 48 44 40 36 34 32 30 26 23 20 17 14 12 8 4 5 9 14 19 25 32 36 40 46 49 50 54 61 66 71 70
122 110 96 88 71 53 35 21 22 13 23 25 32 46 50 47 45 42 37 33 32 32 27 24 22 19 16 15 11 9 5 5 8 15 20 24 30 35 43 45 50 49 50 54 62 67 71

GFSGBSN_250_spd_111.txt.gz
Wind_Speed
65 71 77 75 74 78 75 80 82 82 79 79 79 65 62 56 53 55 60 51 46 44 44 35 33 32 33 39 43 43 38 36 33 38 45 46 42 42 43 43 43 45 46 47 54 61 70
71 78 78 77 79 77 77 86 87 87 84 84 79 65 59 56 49 49 53 48 42 41 36 29 31 29 30 36 36 36 32 28 26 33 40 40 36 36 38 39 38 40 39 41 45 53 61
71 78 83 83 81 82 84 89 92 92 90 85 72 59 53 52 48 45 45 40 41 35 32 32 27 28 31 32 28 30 25 21 23 28 30 36 34 35 35 31 28 29 33 35 40 48 58
70 79 91 92 90 92 88 93 94 99 94 81 65 55 52 50 48 44 42 38 34 35 33 28 28 29 29 23 22 24 17 17 22 23 21 25 25 24 23 23 22 21 26 29 29 37 49
77 81 95 99 98 98 95 96 100 99 97 80 65 54 53 49 47 41 42 39 33 36 29 31 32 29 25 19 18 18 12 15 19 21 15 13 12 14 15 13 10 14 13 11 16 24 28
79 86 99 99 103 106 102 102 103 100 93 79 67 55 53 45 43 38 42 37 36 34 32 35 33 30 24 15 16 11 8 10 14 17 17 17 17 20 15 10 6 3 6 12 11 16 20
79 89 100 101 102 114 110 111 110 96 89 75 63 53 44 35 39 35 39 38 40 36 38 38 36 30 22 14 12 4 6 6 13 18 19 19 20 24 24 19 14 7 1 8 14 12 15
81 93 100 106 107 115 113 109 101 91 85 69 55 43 33 29 32 32 37 39 41 38 48 41 37 30 22 15 7 2 4 4 11 16 20 22 22 24 26 25 18 12 3 5 13 16 13
94 102 109 108 115 121 112 104 98 89 78 62 46 34 23 23 29 34 37 42 42 48 47 44 37 29 23 14 6 2 4 8 11 14 16 22 28 28 27 27 22 15 7 3 9 17 21
106 104 114 118 119 125 113 106 98 89 70 49 33 27 18 24 31 36 38 36 48 49 50 47 38 30 23 14 7 5 6 7 11 16 19 23 28 31 28 27 25 19 12 6 10 15 23
111 117 121 122 127 126 111 104 96 83 58 38 26 18 19 23 35 40 38 43 51 49 53 47 37 31 22 13 8 5 7 9 13 16 21 24 26 28 30 28 26 23 15 8 11 18 26
121 117 130 126 133 129 116 101 89 69 49 31 20 11 17 31 40 47 42 44 44 51 53 47 37 30 22 13 8 6 6 8 10 14 17 22 24 25 27 29 28 27 19 15 10 18 29
125 127 133 136 135 129 113 100 81 56 39 23 11 11 26 37 46 48 46 46 47 55 54 45 38 28 21 14 10 6 4 6 10 13 14 19 22 22 23 25 27 26 26 16 13 18 27
126 127 139 139 137 131 111 94 71 48 32 15 4 15 33 44 52 51 50 51 52 57 54 44 36 27 21 16 11 6 3 7 11 16 17 22 26 29 29 27 23 24 22 20 15 16 22
130 133 147 143 139 129 112 89 63 41 26 8 9 25 38 48 55 54 54 55 50 59 51 45 36 28 22 16 12 6 4 8 13 17 21 25 27 30 33 31 27 25 20 18 15 13 22
131 139 147 149 139 125 106 82 54 35 19 1 18 32 41 52 55 55 56 48 54 56 52 44 37 29 23 18 12 5 6 10 15 19 23 27 28 31 35 36 35 32 28 20 14 13 16
132 141 146 156 146 125 99 76 47 30 13 7 24 39 50 56 55 53 50 54 56 57 49 42 36 29 24 19 11 5 3 10 15 21 25 29 31 34 36 38 42 41 33 23 18 15 15
136 141 144 156 150 123 95 73 42 24 7 12 29 42 52 56 56 53 55 58 55 55 48 42 36 28 24 19 12 6 4 10 15 21 25 30 34 36 39 43 47 49 44 31 19 15 12
132 140 148 159 155 120 91 67 38 15 4 24 35 45 53 53 53 55 58 58 57 51 45 40 34 28 25 20 13 8 6 9 13 18 24 31 36 38 39 42 46 50 53 45 30 19 14
131 139 145 156 157 121 87 58 33 9 12 30 39 47 54 51 51 55 56 56 56 50 43 38 33 27 24 21 13 9 6 7 11 17 24 32 38 41 44 44 47 47 50 47 40 28 19
133 138 144 152 157 120 84 58 34 3 17 35 40 42 48 48 51 54 56 56 54 48 41 36 31 27 23 21 13 8 4 7 12 18 24 31 37 42 47 51 46 49 48 44 41 32 25
130 135 144 150 159 124 83 71 36 7 23 35 34 39 44 44 48 52 53 53 50 44 38 33 30 25 22 20 13 7 3 6 11 17 23 30 35 41 46 51 52 50 49 52 48 39 36
127 129 142 146 158 131 83 71 26 15 31 30 27 28 35 38 45 49 49 47 44 41 35 31 28 24 21 19 13 7 3 5 10 16 22 28 33 39 44 50 54 55 53 52 55 53 48
122 133 136 139 150 139 91 63 40 15 29 25 25 26 34 42 46 48 47 43 39 37 33 29 26 22 20 18 13 7 3 2 9 15 21 26 30 35 42 48 53 56 57 56 58 59 55
121 126 132 142 140 136 106 66 50 33 11 15 26 34 34 40 45 48 43 40 38 36 32 28 24 21 20 18 13 9 5 1 7 14 19 25 29 33 38 45 50 54 58 58 63 60 56
121 125 125 137 139 136 113 73 48 40 18 10 4 18 33 39 46 46 40 38 36 34 32 28 24 20 19 17 14 11 5 2 6 12 17 22 27 32 35 40 47 53 54 60 60 62 63
116 112 125 126 137 133 107 73 48 31 25 2 13 20 31 38 47 44 39 37 34 32 31 28 24 21 19 18 16 12 7 4 5 10 14 19 24 29 33 39 44 50 54 58 61 63 64
114 123 128 132 128 124 106 81 50 34 25 12 12 24 31 36 45 39 36 38 35 33 30 28 24 21 19 18 16 14 10 7 8 10 13 17 22 26 31 36 40 47 51 57 62 65 64
120 123 124 124 121 118 110 85 53 34 23 20 11 29 37 33 44 39 38 36 34 31 28 27 25 22 20 19 16 15 13 9 8 11 13 16 20 25 30 35 39 44 50 53 60 61 62

GFSGBSN_250_spd_114.txt.gz
Wind_Speed
58 65 66 66 74 74 76 73 85 86 85 85 84 77 69 64 60 57 49 42 45 43 37 37 33 34 34 31 29 33 39 36 35 36 42 50 45 44 43 47 47 44 47 52 55 57 60
65 72 76 75 73 84 78 88 86 94 92 95 89 78 68 64 56 51 45 38 38 36 30 30 29 32 32 25 28 28 27 23 26 28 33 40 37 37 38 38 38 41 43 45 49 53 58
79 79 81 82 82 90 88 88 94 98 101 104 94 78 71 65 56 49 41 36 35 29 25 25 31 32 28 24 22 23 17 17 19 21 26 31 32 30 30 30 32 35 41 45 46 47 51
87 94 87 88 86 94 90 91 95 99 103 98 90 82 72 64 53 44 38 33 31 29 24 27 33 30 25 23 21 13 13 10 13 18 17 26 31 28 30 29 33 33 35 39 39 39 40
99 103 91 103 94 97 99 95 102 102 102 97 90 83 73 61 48 38 32 32 31 28 25 32 34 29 28 25 16 13 9 5 10 15 16 20 22 26 21 23 25 28 29 26 27 29 28
99 109 107 114 102 107 108 105 108 106 107 100 91 78 64 48 40 30 26 32 32 30 32 37 34 35 31 25 18 12 7 4 8 14 17 15 16 13 16 14 17 19 21 18 21 24 23
102 111 118 117 115 114 119 111 111 109 107 97 84 64 46 36 30 24 26 34 34 34 34 40 41 38 32 26 18 12 4 3 5 11 15 10 10 10 10 12 15 15 17 15 13 21 23
105 112 120 122 132 133 132 120 113 110 101 85 64 44 35 30 25 23 29 33 36 36 42 44 44 39 32 24 19 11 5 3 3 8 9 8 10 12 11 13 13 12 12 11 12 15 25
109 117 124 126 142 146 142 125 117 107 88 65 49 36 30 23 20 24 33 35 41 37 45 46 44 38 31 25 19 11 8 6 2 6 10 12 15 17 18 17 15 14 12 10 10 16 21
107 121 124 133 141 155 150 126 115 99 75 54 40 27 20 16 19 28 36 42 42 46 49 48 45 38 32 25 15 11 9 8 5 9 12 15 19 22 23 21 19 15 14 13 8 13 20
113 120 126 135 143 158 153 130 111 89 60 45 30 17 12 12 19 33 42 49 50 50 51 48 44 38 31 23 16 13 11 9 8 11 15 15 17 21 24 25 25 23 17 14 13 11 20
113 118 128 142 148 158 164 132 104 73 51 36 21 11 5 13 28 43 49 54 55 53 53 50 44 37 29 21 18 15 13 11 9 12 17 18 18 18 20 23 24 24 26 17 14 14 17
114 123 130 143 151 157 166 125 96 64 46 27 13 3 10 24 39 47 54 59 56 59 54 50 42 34 27 21 17 15 14 10 9 12 14 18 20 20 20 21 24 24 25 24 17 16 18
116 121 131 144 150 160 164 114 88 58 39 22 11 4 20 35 46 56 59 60 60 57 55 48 41 33 26 21 17 15 12 11 10 14 17 19 20 22 23 21 21 19 22 23 20 17 22
115 125 130 144 154 165 151 103 81 53 34 19 7 12 30 43 56 62 62 60 58 55 52 47 39 33 27 22 17 14 11 12 12 16 17 19 21 24 27 29 25 22 21 20 16 16 19
115 122 129 142 151 160 136 96 72 48 32 18 6 21 38 50 62 63 61 54 55 58 51 43 36 32 27 22 17 13 10 12 13 16 21 22 25 26 27 29 31 26 20 18 14 13 13
114 120 128 141 148 155 151 92 68 48 33 16 11 26 42 59 61 59 55 56 58 54 48 41 35 30 28 21 15 12 10 12 16 20 24 26 27 30 30 33 37 35 28 22 16 13 8
114 121 122 137 146 149 156 93 69 51 33 11 15 29 50 56 58 56 53 55 55 52 44 38 33 29 26 19 15 12 12 15 19 24 28 31 32 33 36 35 37 41 39 28 22 18 10
113 118 124 132 142 148 149 129 68 56 29 12 18 39 44 54 54 52 52 53 51 48 41 36 32 29 24 18 16 12 13 16 19 24 28 31 33 37 39 41 42 43 39 35 28 23 16
109 114 122 131 140 144 145 149 76 46 22 17 20 39 48 52 50 48 46 49 48 44 38 33 30 28 23 18 15 12 13 14 18 22 27 31 35 39 41 45 43 42 42 40 33 24 20
109 112 121 126 132 137 138 141 110 45 23 22 28 38 44 44 43 43 47 47 44 39 35 30 28 26 22 17 12 10 11 12 16 21 27 31 35 40 42 44 45 43 43 36 39 29 21
106 111 119 123 127 133 135 141 139 61 30 17 23 33 35 38 39 43 44 44 39 35 30 26 24 23 21 16 10 9 8 10 15 21 25 28 33 39 43 47 49 48 47 45 37 41 33
100 111 117 122 125 123 123 128 131 111 45 20 21 27 29 32 35 39 38 38 33 31 27 22 20 19 19 15 9 7 6 7 13 19 22 26 31 36 41 44 50 52 53 52 50 51 49
97 106 114 118 124 124 125 126 125 126 86 25 11 13 20 28 32 36 35 32 29 26 24 19 16 15 17 14 9 5 2 5 10 16 20 23 28 33 37 43 48 52 55 53 53 53 57
102 105 111 115 115 119 120 125 123 122 112 56 17 9 7 14 26 30 29 28 27 25 21 18 15 14 15 13 9 4 1 4 8 13 17 21 26 30 35 40 46 50 52 57 56 55 57
99 102 103 111 112 111 119 121 126 122 114 99 28 13 4 10 24 27 26 27 23 24 21 18 15 14 14 13 11 6 3 5 8 12 16 19 23 27 32 36 41 46 51 55 58 60 62
96 97 100 106 104 108 111 115 119 116 120 109 50 20 10 10 21 28 27 26 26 26 24 21 18 16 15 13 13 10 7 7 8 12 16 19 21 24 28 33 38 42 47 52 55 62 64
98 98 99 99 101 106 108 112 109 112 114 106 65 23 15 13 20 30 31 29 27 26 24 23 21 19 17 16 15 14 12 11 11 13 16 19 20 23 27 30 33 38 42 47 54 58 67
97 93 96 99 102 109 111 115 120 118 111 107 69 40 18 18 23 30 36 30 29 28 27 25 23 22 21 19 18 17 16 15 14 14 16 19 20 23 25 28 31 35 40 45 49 54 59

GFSGBSN_250_spd_117.txt.gz
Wind_Speed
81 82 88 95 98 106 102 91 88 86 78 80 79 79 85 84 86 80 69 57 54 46 41 35 30 28 29 29 31 31 38 43 44 47 48 51 53 59 64 58 54 53 51 53 55 57 58
84 88 88 96 101 113 119 116 87 86 83 85 84 90 91 89 88 80 65 54 50 43 33 25 22 24 25 29 27 29 32 29 27 30 33 38 47 54 50 46 46 45 47 50 51 52 53
85 89 93 105 108 124 129 120 96 92 88 89 93 95 92 88 83 72 56 45 40 37 26 20 21 23 25 22 24 21 20 17 17 21 31 32 38 39 33 35 38 40 42 44 45 47 50
92 96 99 103 114 125 132 125 106 97 96 94 95 89 91 84 71 58 41 33 32 31 23 20 22 26 22 25 21 18 18 14 14 16 19 22 23 27 27 27 28 29 29 31 38 42 47
98 102 105 107 120 128 139 136 112 102 95 91 87 83 75 68 53 42 31 27 28 29 24 23 26 25 30 26 24 22 16 13 9 10 12 12 15 21 22 20 22 22 28 35 39 40 44
102 105 107 107 123 136 138 147 115 100 100 87 76 65 53 43 37 27 26 26 31 33 30 30 27 36 34 32 27 21 16 10 5 4 8 10 13 19 23 24 26 27 29 30 29 30 34
103 110 113 115 126 136 142 148 111 99 84 71 60 49 37 26 22 19 21 29 36 36 37 34 36 40 38 32 26 20 13 8 3 4 8 10 13 15 19 23 22 24 23 22 22 23 25
102 111 116 121 131 137 149 150 113 93 74 58 46 34 24 17 13 15 23 35 42 43 40 38 46 45 38 32 24 17 13 9 3 5 6 6 9 11 12 14 15 16 16 16 18 17 20
107 112 119 122 133 147 155 132 107 83 64 52 39 26 16 7 7 16 30 44 48 48 43 49 51 45 37 30 23 15 13 10 6 2 1 2 5 6 7 9 10 13 14 16 18 18 16
115 113 122 131 137 150 163 110 100 75 63 47 34 21 9 1 12 25 39 50 51 51 49 52 52 45 37 28 21 17 14 12 9 7 7 7 10 10 12 14 15 15 13 12 16 19 14
117 117 122 133 140 153 163 112 93 74 57 41 26 17 7 13 24 37 48 52 55 56 57 56 52 44 34 26 21 18 15 14 11 11 9 9 9 13 17 18 19 23 19 16 15 17 17
116 120 125 133 143 151 162 113 88 67 53 37 24 16 13 20 33 45 53 59 61 61 60 58 50 41 32 26 22 18 16 16 15 15 13 12 14 15 17 19 22 25 26 24 20 12 16
117 121 126 127 140 153 161 110 88 67 51 38 26 17 17 29 42 52 58 63 64 63 63 56 47 37 30 26 21 19 19 20 18 15 17 16 18 18 20 23 25 28 27 26 22 17 6
114 120 125 128 136 146 158 126 93 71 55 42 28 18 24 35 47 55 62 66 66 65 60 52 43 35 29 25 21 20 21 21 21 22 22 20 17 19 20 24 27 27 26 24 19 15 3
111 119 125 128 131 140 149 148 95 81 63 43 27 22 27 34 44 56 65 67 65 61 54 45 39 32 29 24 22 22 22 23 23 21 21 19 17 20 22 25 27 27 24 20 19 10 7
111 114 119 129 132 135 146 146 104 80 66 47 30 26 28 36 48 59 66 66 62 58 51 43 35 31 27 23 23 22 23 23 22 22 25 25 26 23 22 24 28 26 25 20 17 12 6
108 112 115 123 126 129 139 136 143 83 64 49 33 24 32 40 51 57 62 61 57 49 43 37 35 30 24 23 22 22 24 23 23 25 25 31 33 32 31 31 31 31 31 24 21 15 3
108 110 113 120 125 124 130 138 147 92 58 41 31 33 42 44 50 55 57 55 50 44 37 33 31 27 22 22 20 21 22 23 27 29 31 32 34 38 38 35 32 36 34 30 23 17 11
106 109 110 116 118 124 121 128 136 136 65 38 30 38 37 39 48 51 49 48 42 36 31 29 28 23 21 20 19 20 21 25 28 29 31 34 35 38 40 43 42 39 35 25 22 21 17
104 106 109 112 114 122 120 122 127 129 114 41 31 31 36 38 39 41 40 39 34 31 26 25 23 20 20 18 17 19 20 25 26 30 32 35 37 39 43 47 45 43 44 36 25 22 23
103 106 107 108 110 116 122 113 118 122 118 97 41 22 30 29 30 33 31 30 26 22 19 19 18 17 16 14 15 15 18 23 25 28 30 33 39 41 44 47 48 49 44 43 41 26 23
99 104 103 104 106 110 114 111 112 118 123 114 96 36 18 20 20 24 23 23 20 16 13 12 13 12 12 11 11 13 16 20 24 26 28 33 38 41 45 48 51 50 49 48 44 40 36
99 100 101 102 102 103 106 110 102 100 110 111 110 94 30 10 9 15 15 18 13 11 8 7 7 6 5 6 6 8 12 15 20 23 26 30 34 38 42 46 50 50 53 52 53 47 43
97 98 100 104 102 100 99 102 96 97 100 100 108 107 69 24 2 9 11 12 11 9 7 6 5 5 5 1 2 4 7 11 15 18 22 26 30 34 38 42 45 52 53 53 54 54 54
95 99 100 102 99 102 97 97 91 94 100 104 102 102 97 51 20 7 13 15 16 13 11 9 6 6 7 9 6 6 6 8 11 14 18 22 25 29 34 38 42 47 50 53 55 54 54
94 97 101 102 94 97 96 94 87 94 93 96 99 104 97 78 36 20 15 18 19 18 17 14 12 10 10 11 10 10 8 8 9 12 15 18 22 25 29 33 38 42 45 48 51 53 54
91 96 98 100 95 95 88 86 89 91 95 97 98 92 96 96 56 30 23 23 22 22 21 20 17 15 14 14 15 14 13 12 11 12 14 16 19 22 25 28 32 36 41 45 46 48 51
97 92 96 97 100 93 87 88 90 94 97 97 95 96 99 101 77 44 28 27 31 26 26 25 24 22 20 19 18 18 18 17 17 15 15 16 18 20 23 26 28 32 37 41 44 47 49
95 97 102 104 99 92 88 94 92 96 98 97 96 100 100 99 90 51 37 31 33 34 29 30 29 26 25 24 24 22 22 21 21 20 19 17 19 21 23 24 27 29 33 37 41 44 47